Date StartTime U_cm/s V_cm/s W_cm/s Ustd_cm/s Vstd_cm/s Wstd_cm/s Uvar_(cm/s)^2 Vvar_(cm/s)^2 Wvar_(cm/s)^2 KE_(m/s)^2 TurbulentKE_(m/s)^2 HorizWindSpeed_cm/s FrictionSpeec_cm/s DragCoef SpeedOfSound_m/s SonicTemperature_C Pressure_mb 
11/19/2013  00:00:00     -189.622      -62.505       -6.923      107.015       47.508       34.658    11452.223     2257.033     1201.154        2.741        0.746      199.658       42.946        0.046      338.248       10.768      859.233
11/19/2013  00:01:00     -153.455      -66.308        1.982       78.561       65.287       44.343     6171.786     4262.405     1966.325        2.017        0.620      167.168       40.581        0.059      338.255       10.780      859.182
11/19/2013  00:02:00     -220.889      -49.937       -9.472       94.505      102.404       57.922     8931.174    10486.529     3354.958        3.707        1.139      226.463       48.436        0.046      338.329       10.904      859.152
11/19/2013  00:03:00      -81.109      -74.950       14.327       74.777       63.401       33.021     5591.611     4019.672     1090.391        1.155        0.535      110.436       31.958        0.084      338.320       10.890      859.165
11/19/2013  00:04:00     -178.416     -122.569       -0.528       98.079       56.640       48.706     9619.499     3208.066     2372.313        3.102        0.760      216.461       52.757        0.059      338.350       10.940      859.153
11/19/2013  00:05:00      -36.461      -28.887       19.570       74.281       59.558       38.230     5517.636     3547.210     1461.508        0.653        0.526       46.517       35.977        0.598      338.296       10.850      859.104
11/19/2013  00:06:00     -178.591      -46.145       -5.666       69.489       66.747       35.421     4828.749     4455.149     1254.658        2.230        0.527      184.456       39.840        0.047      338.333       10.910      859.068
11/19/2013  00:07:00     -199.654      -68.206       -1.804       74.812       84.462       47.754     5596.821     7133.801     2280.399        2.976        0.751      210.983       42.912        0.041      338.296       10.848      859.038
11/19/2013  00:08:00     -221.141      -63.169      -16.405       89.214       80.033       37.994     7959.131     6405.264     1443.577        3.448        0.790      229.986       31.028        0.018      338.330       10.904      859.053
11/19/2013  00:09:00     -107.297      -45.093       13.380      111.134       68.853       44.157    12350.834     4740.736     1949.797        1.638        0.952      116.387       55.568        0.228      338.249       10.771      859.135
11/19/2013  00:10:00      -94.482     -157.004      -11.515       58.593       70.738       29.309     3433.122     5003.814      859.033        2.150        0.465      183.240       21.724        0.014      338.333       10.911      859.201
11/19/2013  00:11:00     -188.937     -179.580      -11.266      106.324       94.402       52.717    11304.787     8911.754     2779.131        4.553        1.150      260.665       54.704        0.044      338.334       10.911      859.194
11/19/2013  00:12:00      -88.350      -60.766      -13.411       38.675       69.241       27.449     1495.744     4794.252      753.449        0.936        0.352      107.230       23.404        0.048      338.321       10.894      859.188
11/19/2013  00:13:00     -134.267      -51.773       -0.609       64.610       54.077       34.657     4174.472     2924.328     1201.114        1.450        0.415      143.903       28.306        0.039      338.298       10.852      859.186
11/19/2013  00:14:00      -77.708      -79.396       -9.730       54.833       34.620       21.983     3006.711     1198.567      483.231        0.856        0.234      111.096       14.299        0.017      338.308       10.870      859.167
11/19/2013  00:15:00     -133.955        6.012       -2.809       59.413       36.070       23.909     3529.878     1301.072      571.618        1.169        0.270      134.090       18.595        0.019      338.269       10.806      859.125
11/19/2013  00:16:00      -64.476      -41.482       -6.989       41.062       30.859       13.948     1686.069      952.308      194.547        0.438        0.142       76.667       13.745        0.032      338.291       10.842      859.104
11/19/2013  00:17:00      -23.005     -108.372       -1.095       44.750       32.935       23.150     2002.557     1084.721      535.922        0.795        0.181      110.786       11.742        0.011      338.315       10.882      859.092
11/19/2013  00:18:00      -77.987     -107.272       -7.630       23.572       47.051       18.557      555.660     2213.782      344.365        1.038        0.156      132.625       15.176        0.013      338.355       10.951      859.081
11/19/2013  00:19:00      -49.617      -26.871        1.524       18.287       19.468       16.614      334.398      379.019      276.037        0.209        0.049       56.426       11.359        0.041      338.338       10.921      859.038
11/19/2013  00:20:00      -16.254      -39.850       -6.476       19.616       21.985       12.103      384.775      483.338      146.474        0.145        0.051       43.037        7.438        0.030      338.311       10.877      859.018
11/19/2013  00:21:00       -1.482     -156.709       -5.049       45.593       58.426       27.488     2078.686     3413.614      755.580        1.542        0.312      156.716        8.318        0.003      338.388       11.005      859.030
11/19/2013  00:22:00      -92.100     -110.496        2.281       49.849       66.659       28.196     2484.941     4443.459      795.018        1.421        0.386      143.846       26.062        0.033      338.308       10.870      859.018
11/19/2013  00:23:00      -19.887      -70.754        7.546       57.407       37.327       20.288     3295.531     1393.299      411.619        0.528        0.255       73.495        6.722        0.008      338.300       10.859      859.003
11/19/2013  00:24:00      -84.050      -52.778       -3.379       45.501       37.148       18.055     2070.304     1379.948      326.001        0.682        0.189       99.246       19.820        0.040      338.204       10.696      858.990
11/19/2013  00:25:00      -56.719      -34.483       16.618       55.791       38.659       31.298     3112.623     1494.489      979.591        0.513        0.279       66.379       35.303        0.283      338.116       10.547      859.003
11/19/2013  00:26:00      -28.593       -3.232        6.850       50.384       46.174       28.623     2538.518     2131.999      819.277        0.318        0.274       28.775       30.003        1.087      338.081       10.490      858.994
11/19/2013  00:27:00        9.345       17.925       25.111       23.499       21.469       14.623      552.215      460.910      213.835        0.113        0.061       20.214       14.541        0.517      338.037       10.416      858.965
11/19/2013  00:28:00      -18.340       20.376        8.543       12.909       21.653       16.371      166.655      468.864      268.022        0.086        0.045       27.414        8.417        0.094      338.033       10.410      858.959
11/19/2013  00:29:00      -30.464        1.681       -4.696       11.900       14.777        7.751      141.607      218.363       60.079        0.069        0.021       30.510        5.677        0.035      338.044       10.428      858.978
11/19/2013  00:30:00      -53.382      -16.052        1.816       10.856       16.453        6.667      117.856      270.709       44.454        0.177        0.022       55.743        3.860        0.005      338.067       10.466      858.987
11/19/2013  00:31:00     -115.081      -54.398       -3.206       74.224       53.628       33.579     5509.169     2875.967     1127.570        1.286        0.476      127.290       30.847        0.059      338.066       10.464      858.978
11/19/2013  00:32:00     -179.404      -57.315      -11.573       63.711       50.734       31.109     4059.046     2573.892      967.739        2.160        0.380      188.337       28.574        0.023      338.092       10.506      858.984
11/19/2013  00:33:00     -124.413       -8.933       -0.253       41.257       43.824       28.794     1702.119     1920.537      829.093        1.000        0.223      124.733       21.266        0.029      337.994       10.345      858.979
11/19/2013  00:34:00     -107.084      -71.886       10.315       80.261       55.128       31.747     6441.890     3039.073     1007.842        1.361        0.524      128.975       41.490        0.103      337.965       10.293      858.982
11/19/2013  00:35:00     -102.974      -70.850        8.162       60.003       54.145       22.262     3600.318     2931.678      495.577        1.136        0.351      124.993       18.703        0.022      337.939       10.253      858.973
11/19/2013  00:36:00     -112.989      -38.878       -0.572       52.521       44.090       30.091     2758.488     1943.965      905.482        0.994        0.280      119.491       29.630        0.061      337.949       10.267      858.947
11/19/2013  00:37:00     -127.607     -111.891        1.937       99.176       63.488       40.832     9835.866     4030.783     1667.222        2.217        0.777      169.715       54.863        0.105      338.021       10.388      858.945
11/19/2013  00:38:00     -159.492      -82.677      -13.856       47.570       55.632       25.712     2262.889     3094.922      661.089        1.924        0.301      179.647       23.678        0.017      338.022       10.390      858.925
11/19/2013  00:39:00     -126.270      -84.939       -4.065       50.842       37.076       24.108     2584.916     1374.629      581.185        1.386        0.227      152.180       22.100        0.021      337.987       10.331      858.918
11/19/2013  00:40:00      -98.688      -56.820      -12.762       41.763       36.734       19.271     1744.134     1349.371      371.371        0.830        0.173      113.876       24.102        0.045      337.938       10.250      858.941
11/19/2013  00:41:00      -59.906      -30.086        7.548       45.667       31.739       21.833     2085.517     1007.372      476.660        0.406        0.178       67.036       19.633        0.086      337.852       10.107      858.952
11/19/2013  00:42:00      -54.206      -56.096        3.494       30.046       41.463       19.004      902.747     1719.161      361.170        0.454        0.149       78.007       17.577        0.051      337.939       10.252      858.943
11/19/2013  00:43:00      -81.846      -23.553       -5.075       20.336       20.104       11.966      413.557      404.167      143.192        0.412        0.048       85.167        9.251        0.012      337.955       10.277      858.931
11/19/2013  00:44:00      -93.999      -12.647      -13.805       15.068       12.988       10.176      227.057      168.681      103.551        0.484        0.025       94.846        9.207        0.009      337.873       10.141      858.951
11/19/2013  00:45:00      -91.662      -21.377      -10.047       19.272       13.020       12.207      371.402      169.521      149.023        0.482        0.034       94.122       10.967        0.014      337.911       10.204      858.968
11/19/2013  00:46:00      -87.474      -14.573       -5.766       23.418       21.005       19.775      548.426      441.197      391.062        0.464        0.069       88.679       13.284        0.022      337.987       10.333      858.966
11/19/2013  00:47:00      -65.182      -18.918       -2.141       34.367       21.306       14.394     1181.072      453.946      207.193        0.323        0.092       67.871       15.950        0.055      337.933       10.241      858.987
11/19/2013  00:48:00      -44.033      -32.075       -3.636       22.644       16.961       12.184      512.771      287.680      148.455        0.196        0.047       54.477        7.843        0.021      337.932       10.240      859.013
11/19/2013  00:49:00      -42.515      -45.640       -2.722       10.785       17.813        9.011      116.312      317.303       81.201        0.221        0.026       62.374        7.909        0.016      338.046       10.434      859.020
11/19/2013  00:50:00      -27.725      -59.834       -3.023       17.858       17.569       12.035      318.895      308.655      144.846        0.256        0.039       65.945        5.592        0.007      338.062       10.460      859.026
11/19/2013  00:51:00      -64.064     -123.320       -4.650       19.621       36.636       17.300      384.993     1342.231      299.284        1.068        0.101      138.968       12.673        0.008      338.047       10.434      859.057
11/19/2013  00:52:00      -84.136      -88.967        1.605       35.563       46.499       22.453     1264.718     2162.189      504.142        0.946        0.197      122.450       22.146        0.033      337.967       10.299      859.047
11/19/2013  00:53:00     -104.702      -85.302       -5.007       44.640       32.673       24.241     1992.721     1067.543      587.627        1.096        0.182      135.052       25.980        0.037      337.954       10.277      859.010
11/19/2013  00:54:00      -75.619      -82.763       -6.450       40.610       30.217       19.310     1649.186      913.038      372.861        0.777        0.147      112.106       19.509        0.030      337.980       10.321      858.976
11/19/2013  00:55:00     -100.484      -39.240      -10.994       32.700       31.687       21.979     1069.304     1004.095      483.055        0.716        0.128      107.874       18.317        0.029      337.968       10.300      858.950
11/19/2013  00:56:00      -80.092        5.891        2.063       37.576       33.977       14.191     1411.986     1154.448      201.384        0.461        0.138       80.308        8.918        0.012      337.843       10.090      858.919
11/19/2013  00:57:00      -78.750      -24.108       -5.913       41.983       27.381       13.821     1762.573      749.706      191.019        0.476        0.135       82.357       12.580        0.023      337.860       10.120      858.900
11/19/2013  00:58:00     -100.377       45.039      -10.163       37.267       23.593       20.531     1388.822      556.632      421.533        0.729        0.118      110.019       15.127        0.019      337.706        9.862      858.904
11/19/2013  00:59:00     -126.530       46.691      -11.486       40.953       27.260       20.221     1677.146      743.133      408.873        1.057        0.141      134.870       12.020        0.008      337.794       10.009      858.899
11/19/2013  01:00:00      -80.972       30.080       -5.297       33.081       51.736       22.575     1094.331     2676.650      509.620        0.588        0.214       86.379       18.160        0.044      337.743        9.923      858.896
11/19/2013  01:01:00      -91.640      -38.433       -6.612       36.690       36.065       25.016     1346.153     1300.709      625.782        0.660        0.164       99.373       19.841        0.040      337.655        9.775      858.932
11/19/2013  01:02:00     -110.744      -36.320       -1.760       36.223       31.353       17.310     1312.119      982.987      299.630        0.809        0.130      116.548       17.484        0.023      337.640        9.750      858.956
11/19/2013  01:03:00     -101.508      -29.514        5.768       51.290       37.961       23.304     2630.619     1441.014      543.055        0.791        0.231      105.712       21.777        0.042      337.575        9.642      858.953
11/19/2013  01:04:00      -88.996      -28.453       -6.858       60.160       37.982       29.308     3619.275     1442.659      858.931        0.735        0.296       93.434       24.891        0.071      337.778        9.982      858.939
11/19/2013  01:05:00     -137.449      -17.045       -0.094       66.780       43.150       27.719     4459.622     1861.937      768.364        1.313        0.354      138.502       32.039        0.054      337.692        9.838      858.942
11/19/2013  01:06:00     -101.453      -35.077        1.067       75.436       53.617       31.913     5690.562     2874.806     1018.429        1.055        0.479      107.346       33.928        0.100      337.699        9.848      858.911
11/19/2013  01:07:00     -105.698       -7.877        2.313      101.028       78.172       37.960    10206.651     6110.935     1440.933        1.450        0.888      105.991       38.060        0.129      337.724        9.889      858.936
11/19/2013  01:08:00      -38.969       -2.362       16.489       74.256       41.283       30.238     5513.960     1704.294      914.345        0.496        0.407       39.040       37.402        0.918      337.617        9.711      858.950
11/19/2013  01:09:00     -248.972      -78.325      -16.742      108.389       68.130       40.859    11748.245     4641.636     1669.448        4.323        0.903      261.002       35.507        0.019      337.797       10.009      858.943
11/19/2013  01:10:00     -362.872      -44.489       -6.395      117.070       97.090       56.262    13705.499     9426.452     3165.399        7.999        1.315      365.589       47.739        0.017      337.976       10.311      858.905
11/19/2013  01:11:00     -139.656      -11.991       10.717      134.382       76.782       47.586    18058.410     5895.478     2264.416        2.299        1.311      140.170       53.314        0.145      337.898       10.181      858.886
11/19/2013  01:12:00     -143.843      -90.064       -9.466       93.526       66.196       47.244     8747.039     4381.889     2232.024        2.212        0.768      169.712       47.513        0.078      337.879       10.149      858.897
11/19/2013  01:13:00      -44.181      -38.057       10.682       51.687       38.081       31.557     2671.558     1450.189      995.819        0.431        0.256       58.312       33.992        0.340      337.819       10.052      858.877
11/19/2013  01:14:00     -146.707        6.710       -7.864       67.228       32.936       25.878     4519.540     1084.759      669.664        1.395        0.314      146.861       20.569        0.020      337.832       10.071      858.842
11/19/2013  01:15:00     -182.450       21.194      -17.117       74.243       59.660       27.754     5512.030     3559.311      770.261        2.193        0.492      183.676       26.366        0.021      337.858       10.115      858.825
11/19/2013  01:16:00     -164.698      -43.240       -4.002       75.780       73.307       31.297     5742.592     5373.849      979.511        2.055        0.605      170.280       26.679        0.025      337.799       10.015      858.801
11/19/2013  01:17:00     -295.415       52.102      -23.589      105.751       72.954       41.004    11183.298     5322.285     1681.326        5.436        0.909      299.974       43.135        0.021      337.880       10.149      858.757
11/19/2013  01:18:00     -257.088      -91.968      -12.554       74.714       75.976       39.196     5582.220     5772.328     1536.329        4.380        0.645      273.043       27.411        0.010      337.833       10.071      858.737
11/19/2013  01:19:00     -279.569      -56.580       -1.061      121.408       93.085       52.586    14739.906     8664.898     2765.245        5.376        1.309      285.237       50.031        0.031      337.899       10.181      858.734
11/19/2013  01:20:00     -274.494       35.511      -17.275       92.159       86.002       47.016     8493.286     7396.302     2210.534        4.750        0.905      276.781       40.968        0.022      337.855       10.107      858.734
11/19/2013  01:21:00     -324.721      -42.093      -32.203       90.940       93.590       55.859     8270.124     8759.045     3120.231        6.420        1.007      327.438       49.411        0.023      337.867       10.127      858.724
11/19/2013  01:22:00     -290.365      -40.449      -11.130       91.761       90.261       55.736     8420.093     8147.016     3106.531        5.287        0.984      293.169       54.049        0.034      337.855       10.107      858.717
11/19/2013  01:23:00     -324.097      -48.025      -19.935      104.989      102.897       56.358    11022.704    10587.877     3176.263        6.626        1.239      327.635       50.105        0.023      337.921       10.218      858.695
11/19/2013  01:24:00     -175.966      -23.918        4.192      116.536      103.549       55.570    13580.565    10722.315     3087.998        2.947        1.370      177.584       56.353        0.101      337.867       10.128      858.721
11/19/2013  01:25:00     -288.343      -78.378      -17.997      110.131       70.829       53.075    12128.921     5016.740     2816.969        5.478        0.998      298.805       54.274        0.033      337.922       10.219      858.742
11/19/2013  01:26:00     -282.375      -20.900      -12.866      126.918       99.511       47.260    16108.076     9902.511     2233.487        5.429        1.412      283.148       53.431        0.036      337.894       10.173      858.764
11/19/2013  01:27:00     -323.685     -106.547      -24.023      102.106       90.517       52.353    10425.616     8193.278     2740.822        6.903        1.068      340.770       51.418        0.023      337.908       10.195      858.766
11/19/2013  01:28:00     -408.322      -71.794      -28.455      101.456       93.998       54.266    10293.371     8835.554     2944.847        9.738        1.104      414.586       43.181        0.011      337.967       10.296      858.750
11/19/2013  01:29:00     -313.900      -49.170      -26.245      114.405       97.789       58.512    13088.563     9562.621     3423.675        6.385        1.304      317.728       62.961        0.039      337.919       10.214      858.787
11/19/2013  01:30:00     -277.663     -124.338       -5.667      104.661       72.427       51.881    10953.869     5245.636     2691.660        5.574        0.945      304.232       47.642        0.025      337.925       10.225      858.776
11/19/2013  01:31:00     -263.169      -55.174      -10.562       89.183       80.812       50.283     7953.628     6530.506     2528.335        4.471        0.851      268.890       51.458        0.037      337.942       10.253      858.774
11/19/2013  01:32:00     -245.749      -37.645       -5.965      104.902      107.146       55.857    11004.331    11480.160     3119.994        4.372        1.280      248.616       54.254        0.048      337.936       10.244      858.789
11/19/2013  01:33:00     -332.506      -82.677      -16.533      130.224       83.767       58.678    16958.399     7016.957     3443.166        7.254        1.371      342.630       62.840        0.034      337.974       10.307      858.803
11/19/2013  01:34:00     -172.664      -68.660      -10.523      138.686       97.537       44.980    19233.746     9513.414     2023.168        3.270        1.539      185.814       49.463        0.071      337.973       10.307      858.780
11/19/2013  01:35:00     -192.752       -8.921       -1.516      135.353       91.399       51.430    18320.360     8353.698     2645.076        3.327        1.466      192.958       53.945        0.078      337.988       10.332      858.787
11/19/2013  01:36:00     -280.653      -30.483      -30.636       99.600      102.455       47.971     9920.242    10496.929     2301.239        5.167        1.136      282.303       44.967        0.025      338.056       10.445      858.809
11/19/2013  01:37:00     -338.917     -118.023      -43.232       77.318       91.510       45.985     5978.006     8374.088     2114.601        7.356        0.823      358.879       35.882        0.010      338.050       10.434      858.840
11/19/2013  01:38:00     -268.444      -67.739       -0.458      112.005      126.622       53.648    12545.164    16033.119     2878.154        5.405        1.573      276.858       61.188        0.049      338.045       10.426      858.846
11/19/2013  01:39:00     -261.220      -40.790      -13.407      182.966      105.004       68.540    33476.390    11025.851     4697.757        5.963        2.460      264.386       90.384        0.117      338.091       10.505      858.832
11/19/2013  01:40:00     -226.009      -63.787        0.342      128.847      119.897       57.970    16601.582    14375.375     3360.557        4.474        1.717      234.838       62.882        0.072      338.054       10.443      858.838
11/19/2013  01:41:00     -305.006       13.058      -10.369      110.741      102.639       58.930    12263.533    10534.806     3472.705        5.978        1.314      305.285       44.653        0.021      338.096       10.513      858.878
11/19/2013  01:42:00     -272.973      -63.919      -12.519       97.218       82.822       56.934     9451.369     6859.556     3241.514        4.915        0.978      280.357       60.407        0.046      338.109       10.535      858.896
11/19/2013  01:43:00     -240.894      -25.729       -5.206      104.579       79.792       52.225    10936.868     6366.756     2727.433        3.937        1.002      242.264       54.588        0.051      338.121       10.553      858.884
11/19/2013  01:44:00     -233.598       -6.627        2.755      110.928       99.799       60.151    12305.008     9959.854     3618.103        4.025        1.294      233.692       57.991        0.062      338.114       10.541      858.841
11/19/2013  01:45:00     -334.229      -46.484      -33.662       90.468      104.610       53.137     8184.417    10943.347     2823.526        6.847        1.098      337.446       54.562        0.026      338.158       10.616      858.844
11/19/2013  01:46:00     -151.939      -52.873        4.064      101.072       68.855       40.414    10215.643     4740.970     1633.266        2.124        0.829      160.876       45.363        0.080      338.095       10.512      858.895
11/19/2013  01:47:00     -109.552      -43.547        3.142       86.795       57.424       34.955     7533.350     3297.554     1221.850        1.298        0.603      117.889       37.181        0.099      338.099       10.519      858.922
11/19/2013  01:48:00     -143.827      -78.833       -4.671       85.704       75.239       41.673     7345.221     5660.903     1736.617        2.083        0.737      164.015       39.801        0.059      338.098       10.516      858.925
11/19/2013  01:49:00     -193.575     -118.733       -4.412      102.718       98.538       43.640    10550.933     9709.736     1904.481        3.687        1.108      227.088       42.849        0.036      338.207       10.700      858.917
11/19/2013  01:50:00      -94.234      -45.922        8.657       85.663       59.574       42.745     7338.094     3549.048     1827.143        1.189        0.636      104.828       43.225        0.170      338.135       10.579      858.911
11/19/2013  01:51:00     -142.844      -61.952       -9.755       66.533       51.182       30.977     4426.607     2619.604      959.573        1.617        0.400      155.700       18.961        0.015      338.151       10.606      858.923
11/19/2013  01:52:00      -92.348      -33.083        7.043       61.783       55.094       34.398     3817.115     3035.365     1183.188        0.885        0.402       98.095       35.735        0.133      338.089       10.503      858.941
11/19/2013  01:53:00     -268.171      -21.851      -18.128      126.593       75.123       54.132    16025.816     5643.403     2930.219        4.866        1.230      269.060       51.557        0.037      338.119       10.550      858.927
11/19/2013  01:54:00     -208.216      -89.632       -2.662      141.816      124.001       68.920    20111.747    15376.318     4750.004        4.581        2.012      226.688       70.236        0.096      338.141       10.588      858.912
11/19/2013  01:55:00     -220.762      -56.663      -14.309       94.093       72.053       46.096     8853.450     5191.625     2124.817        3.416        0.808      227.918       33.183        0.021      338.154       10.611      858.936
11/19/2013  01:56:00     -286.281      -20.237      -15.069      159.594      107.677       59.988    25470.192    11594.236     3598.532        6.162        2.033      286.995       76.549        0.071      338.225       10.729      858.917
11/19/2013  01:57:00     -273.196     -115.942       -1.952      143.819      116.196       69.665    20684.022    13501.510     4853.211        6.355        1.952      296.781       60.443        0.041      338.284       10.827      858.918
11/19/2013  01:58:00     -296.188      -80.600      -27.281       89.175       84.689       42.233     7952.167     7172.286     1783.651        5.593        0.845      306.959       34.540        0.013      338.264       10.795      858.947
11/19/2013  01:59:00     -271.741      -13.740      -18.916       98.626      100.108       56.820     9727.149    10021.575     3228.548        4.868        1.149      272.088       58.322        0.046      338.263       10.793      858.951
11/19/2013  02:00:00     -299.916      -20.714      -25.481      147.988      100.584       51.099    21900.448    10117.197     2611.155        6.282        1.731      300.630       57.502        0.037      338.247       10.766      858.964
11/19/2013  02:01:00     -343.199      -50.422      -17.381      143.970      108.424       64.662    20727.305    11755.776     4181.149        7.864        1.833      346.883       65.488        0.036      338.247       10.765      858.989
11/19/2013  02:02:00     -233.476      -64.922       -7.611      125.170      112.940       61.428    15667.440    12755.388     3773.392        4.548        1.610      242.334       60.034        0.061      338.231       10.738      859.009
11/19/2013  02:03:00     -247.847     -124.706       -5.379      127.265       75.086       47.932    16196.391     5637.954     2297.479        5.057        1.207      277.452       58.898        0.045      338.287       10.834      859.027
11/19/2013  02:04:00     -259.540     -117.334       -5.909      138.431       90.174       53.003    19163.201     8131.354     2809.299        5.563        1.505      284.830       61.386        0.046      338.308       10.869      859.050
11/19/2013  02:05:00     -228.608      -46.347       -5.817      120.252       99.262       64.136    14460.513     9852.905     4113.467        4.143        1.421      233.259       59.928        0.066      338.280       10.822      859.068
11/19/2013  02:06:00     -269.594      -23.988       -0.118      122.041       99.508       63.799    14894.038     9901.750     4070.307        5.106        1.443      270.659       63.390        0.055      338.298       10.851      859.071
11/19/2013  02:07:00     -276.257     -130.777       -5.949      127.094       82.897       65.419    16152.945     6871.847     4279.700        6.037        1.365      305.648       73.347        0.058      338.326       10.897      859.058
11/19/2013  02:08:00     -179.265       14.515       -8.339       66.123       46.247       36.055     4372.268     2138.830     1299.982        2.011        0.391      179.852       31.692        0.031      338.315       10.882      859.027
11/19/2013  02:09:00     -194.594      -23.636       -5.539       60.590       73.726       42.695     3671.088     5435.514     1822.879        2.469        0.546      196.025       31.023        0.025      338.251       10.773      859.036
11/19/2013  02:10:00     -293.970      -59.012      -25.027       95.751       79.190       46.619     9168.262     6271.115     2173.353        5.407        0.881      299.834       37.277        0.015      338.241       10.756      859.019
11/19/2013  02:11:00     -300.987      -33.972      -25.342      127.411       90.961       54.192    16233.489     8273.966     2936.808        5.991        1.372      302.898       50.842        0.028      338.218       10.718      859.007
11/19/2013  02:12:00     -160.500      -17.417        5.608       93.742       69.546       51.593     8787.589     4836.668     2661.887        2.119        0.814      161.442       55.088        0.116      338.176       10.647      859.004
11/19/2013  02:13:00     -293.530      -38.804      -16.023      117.126      102.372       62.231    13718.440    10479.978     3872.758        5.799        1.404      296.083       68.659        0.054      338.216       10.714      858.996
11/19/2013  02:14:00     -268.332      -14.618      -16.342      124.310       80.994       50.285    15453.007     6560.019     2528.600        4.851        1.227      268.730       56.930        0.045      338.217       10.715      858.978
11/19/2013  02:15:00     -233.381      -59.546       -1.550      107.242       71.355       50.795    11500.803     5091.488     2580.148        3.859        0.959      240.858       60.139        0.062      338.234       10.745      858.996
11/19/2013  02:16:00     -219.729      -45.359       -6.664       91.069       73.196       45.337     8293.479     5357.641     2055.489        3.304        0.785      224.362       39.840        0.032      338.236       10.747      859.001
11/19/2013  02:17:00     -362.605      -80.513      -35.227      112.977      144.430       58.255    12763.770    20860.166     3393.626        8.810        1.851      371.436       59.117        0.025      338.259       10.786      858.990
11/19/2013  02:18:00     -249.497     -111.189       -8.602      150.600      100.395       65.143    22680.494    10079.153     4243.661        5.584        1.850      273.151       62.152        0.052      338.223       10.728      859.004
11/19/2013  02:19:00     -256.936      -79.564       -9.759      111.854       92.093       44.804    12511.425     8481.146     2007.426        4.772        1.150      268.973       46.040        0.029      338.216       10.712      859.033
11/19/2013  02:20:00     -151.533        3.656       -6.947       58.047       33.704       24.175     3369.400     1135.935      584.454        1.406        0.254      151.577       15.338        0.010      338.183       10.659      859.013
11/19/2013  02:21:00     -170.175        2.652      -22.167       83.637       69.655       31.605     6995.112     4851.786      998.895        2.115        0.642      170.196       30.965        0.033      338.146       10.596      859.002
11/19/2013  02:22:00     -311.762      -91.074      -31.299      143.965      110.164       58.324    20725.905    12136.098     3401.691        7.136        1.813      324.792       56.352        0.030      338.139       10.584      858.969
11/19/2013  02:23:00     -375.512      -48.486       -6.663      162.561      166.221       76.878    26426.156    27629.281     5910.288       10.167        2.998      378.629       85.136        0.051      338.213       10.709      858.932
11/19/2013  02:24:00     -254.585     -122.987        2.277      136.144       98.153       63.907    18535.164     9633.952     4084.157        5.609        1.613      282.736       71.330        0.064      338.167       10.632      858.948
11/19/2013  02:25:00     -424.492      -95.801      -21.993      153.499      147.522       68.743    23562.095    21762.864     4725.598       11.994        2.503      435.168       77.916        0.032      338.238       10.751      858.946
11/19/2013  02:26:00     -276.910      -68.748      -10.009       90.221       84.431       50.177     8139.780     7128.628     2517.731        4.964        0.889      285.316       41.152        0.021      338.228       10.734      858.963
11/19/2013  02:27:00     -217.259        4.848       -8.977       70.067       87.034       40.482     4909.323     7574.873     1638.774        3.071        0.706      217.313       26.435        0.015      338.126       10.561      858.975
11/19/2013  02:28:00      -75.675      -43.478        8.389      124.321       66.480       44.320    15455.763     4419.527     1964.292        1.476        1.092       87.276       45.405        0.271      338.133       10.576      858.971
11/19/2013  02:29:00     -144.046        6.627       19.010      120.606      108.427       65.322    14545.833    11756.423     4266.963        2.586        1.528      144.198       53.772        0.139      338.108       10.534      858.909
11/19/2013  02:30:00     -231.160      -34.847       -9.122      138.926      117.924       62.118    19300.504    13906.047     3858.662        4.589        1.853      233.772       53.731        0.053      338.156       10.614      858.882
11/19/2013  02:31:00     -311.020      -41.957      -12.967      142.568      104.606       64.782    20325.493    10942.389     4196.685        6.706        1.773      313.838       67.707        0.047      338.172       10.639      858.867
11/19/2013  02:32:00     -328.108      -77.333       -0.463      132.244       99.206       56.777    17488.435     9841.781     3223.620        7.209        1.528      337.098       49.619        0.022      338.143       10.590      858.853
11/19/2013  02:33:00     -429.695     -153.859        4.696      161.859      101.165       68.131    26198.304    10234.372     4641.789       12.470        2.054      456.411       70.182        0.024      338.270       10.804      858.831
11/19/2013  02:34:00     -230.524      -67.227        1.948      116.920       93.054       59.313    13670.280     8659.140     3518.041        4.175        1.292      240.127       43.118        0.032      338.179       10.652      858.832
11/19/2013  02:35:00     -306.987      -80.273       -1.325      122.387      100.489       54.198    14978.558    10098.072     2937.442        6.434        1.401      317.309       60.727        0.037      338.215       10.713      858.839
11/19/2013  02:36:00     -110.656      -46.843       12.287      127.859       89.954       48.017    16347.990     8091.768     2305.628        2.066        1.337      120.163       63.605        0.280      338.219       10.721      858.823
11/19/2013  02:37:00      -99.563        2.415        5.348       88.887       45.070       36.726     7900.971     2031.331     1348.767        1.061        0.564       99.593       42.142        0.179      338.155       10.615      858.819
11/19/2013  02:38:00     -320.713      -71.313       -8.906      104.465      112.941       53.147    10912.933    12755.774     2824.605        6.725        1.325      328.546       43.018        0.017      338.130       10.569      858.808
11/19/2013  02:39:00     -388.886     -159.607       -3.908      170.938      140.696       80.687    29219.715    19795.418     6510.322       11.611        2.776      420.365       88.884        0.045      338.144       10.591      858.763
11/19/2013  02:40:00     -360.255      -91.876      -12.546      112.844       96.849       63.382    12733.772     9379.691     4017.262        8.225        1.307      371.786       59.467        0.026      338.077       10.480      858.767
11/19/2013  02:41:00     -265.250      -47.150       -8.711      120.989      115.079       58.278    14638.296    13243.139     3396.286        5.196        1.564      269.408       53.430        0.039      338.016       10.379      858.766
11/19/2013  02:42:00     -342.799      -89.815      -19.332       90.602       72.068       38.814     8208.753     5193.862     1506.516        7.043        0.745      354.369       30.271        0.007      338.008       10.364      858.773
11/19/2013  02:43:00     -220.017      -33.286        8.849      116.574      112.464       49.155    13589.497    12648.055     2416.212        3.912        1.433      222.520       38.469        0.030      338.082       10.489      858.759
11/19/2013  02:44:00     -280.011      -63.195       -7.625      112.400       81.132       45.093    12633.718     6582.379     2033.346        5.185        1.062      287.053       41.507        0.021      338.126       10.562      858.727
11/19/2013  02:45:00     -309.926     -121.865      -11.133       96.291       78.481       42.656     9271.869     6159.307     1819.530        6.414        0.863      333.025       37.516        0.013      338.110       10.535      858.734
11/19/2013  02:46:00     -198.076     -145.847        5.752      192.575      151.854       90.221    37085.069    23059.673     8139.845        6.440        3.414      245.979      104.989        0.182      338.083       10.491      858.699
11/19/2013  02:47:00     -244.250     -151.628      -21.165      137.881      113.654       71.650    19011.218    12917.219     5133.664        6.007        1.853      287.487       68.378        0.057      338.065       10.460      858.708
11/19/2013  02:48:00     -233.189      -92.273      -15.832       82.768       82.384       44.317     6850.590     6787.104     1964.028        3.937        0.780      250.781       35.841        0.020      338.042       10.422      858.700
11/19/2013  02:49:00     -185.702      -78.119        6.012      112.092      101.732       46.724    12564.711    10349.431     2183.106        3.286        1.255      201.464       33.737        0.028      338.018       10.384      858.702
11/19/2013  02:50:00     -259.489     -111.721       -4.211      100.016       78.070       47.892    10003.141     6094.954     2293.652        4.911        0.920      282.518       48.468        0.029      338.006       10.361      858.731
11/19/2013  02:51:00     -241.674      -99.358       -7.850       87.363       71.810       48.758     7632.323     5156.699     2377.326        4.175        0.758      261.302       48.698        0.035      338.037       10.414      858.741
11/19/2013  02:52:00     -311.341      -46.781       -5.231      138.480       90.635       55.799    19176.588     8214.622     3113.534        6.482        1.525      314.836       52.819        0.028      338.104       10.526      858.737
11/19/2013  02:53:00     -372.176      -31.292       -7.162      156.827       99.638       57.882    24594.738     9927.785     3350.321        8.870        1.894      373.489       72.919        0.038      338.106       10.528      858.754
11/19/2013  02:54:00     -258.609        5.820        8.638      147.012       98.914       63.109    21612.669     9784.054     3982.795        5.118        1.769      258.674       69.975        0.073      338.094       10.510      858.769
11/19/2013  02:55:00     -255.278     -110.427        2.684      115.370      110.206       52.243    13310.208    12145.438     2729.355        5.277        1.409      278.139       55.144        0.039      338.078       10.482      858.769
11/19/2013  02:56:00     -322.060      -57.178       -4.856      171.035      104.214       79.623    29252.930    10860.485     6339.851        7.673        2.323      327.096       98.899        0.091      338.065       10.461      858.762
11/19/2013  02:57:00     -312.822      -88.075       -1.933      163.890      144.565       62.334    26859.892    20899.173     3885.490        7.862        2.582      324.984       68.702        0.045      338.045       10.427      858.760
11/19/2013  02:58:00     -260.265      -15.884       -3.734      197.593      130.317       80.044    39042.972    16982.651     6407.003        6.521        3.122      260.749       95.374        0.134      338.056       10.446      858.758
11/19/2013  02:59:00     -343.112      -61.885      -14.263      181.006      132.179       70.172    32763.334    17471.417     4924.119        8.845        2.758      348.648       83.277        0.057      338.069       10.468      858.763
11/19/2013  03:00:00     -446.881     -127.683      -17.032      162.267      107.550       66.042    26330.514    11566.915     4361.512       12.927        2.113      464.764       58.523        0.016      338.072       10.473      858.775
11/19/2013  03:01:00     -380.957     -117.440      -23.390      152.246      131.907       60.480    23178.940    17399.373     3657.793       10.184        2.212      398.648       55.501        0.019      338.076       10.478      858.768
11/19/2013  03:02:00     -388.816      -69.144      -21.529      101.956       95.143       63.379    10395.113     9052.258     4016.839        8.994        1.173      394.916       57.555        0.021      338.049       10.433      858.796
11/19/2013  03:03:00     -443.184      -22.558      -32.715      172.451      122.006       78.031    29739.370    14885.376     6088.774       12.434        2.536      443.758       78.013        0.031      338.040       10.418      858.802
11/19/2013  03:04:00     -402.347      -78.556      -28.251      190.785      146.939       70.878    36398.818    21590.997     5023.651       11.592        3.151      409.944       74.009        0.033      338.051       10.437      858.799
11/19/2013  03:05:00     -278.134     -178.192       -2.998      169.364      114.432       74.689    28684.277    13094.698     5578.468        7.823        2.368      330.319       83.838        0.064      338.043       10.424      858.800
11/19/2013  03:06:00     -314.421      -84.263      -14.189      118.099       96.533       55.183    13947.338     9318.541     3045.112        6.623        1.316      325.516       57.850        0.032      337.997       10.348      858.789
11/19/2013  03:07:00     -207.076      -49.084        2.132      119.083      101.703       54.595    14180.748    10343.417     2980.576        3.639        1.375      212.814       51.944        0.060      337.950       10.268      858.774
11/19/2013  03:08:00     -479.285     -202.539      -18.980      143.564      111.687       62.439    20610.525    12473.902     3898.665       15.403        1.849      520.323       53.548        0.011      338.116       10.545      858.790
11/19/2013  03:09:00     -233.171      -70.782       -6.132      172.487      100.501       57.544    29751.777    10100.414     3311.351        5.128        2.158      243.678       68.170        0.078      338.050       10.436      858.792
11/19/2013  03:10:00     -183.236      -85.195       -1.360      109.997      100.611       58.181    12099.273    10122.619     3385.016        3.322        1.280      202.074       62.705        0.096      338.024       10.392      858.772
11/19/2013  03:11:00     -299.622     -108.058      -14.434      125.149       87.994       51.322    15662.209     7742.934     2633.916        6.384        1.302      318.512       56.074        0.031      337.969       10.299      858.778
11/19/2013  03:12:00     -335.308        0.485      -16.441      144.508       94.989       63.299    20882.519     9022.980     4006.789        7.330        1.696      335.309       58.429        0.030      337.953       10.273      858.808
11/19/2013  03:13:00     -342.773     -127.964      -24.293      165.744      146.400       73.465    27471.138    21432.955     5397.127        9.437        2.715      365.880       51.187        0.020      337.977       10.314      858.800
11/19/2013  03:14:00     -277.322      -28.139       12.928      149.047      115.763       69.019    22215.133    13401.018     4763.622        5.912        2.019      278.746       75.195        0.073      337.968       10.298      858.813
11/19/2013  03:15:00     -336.394     -157.630       -0.927      172.054      164.174       84.602    29602.476    26953.139     7157.470       10.085        3.186      371.495       91.796        0.061      337.965       10.293      858.844
11/19/2013  03:16:00     -433.061     -202.617      -13.072      206.034      149.159       77.521    42450.109    22248.509     6009.444       14.972        3.535      478.116       79.006        0.027      338.001       10.352      858.850
11/19/2013  03:17:00     -301.373     -166.250       -2.020      197.630      163.561       95.714    39057.666    26752.135     9161.094        9.671        3.749      344.187       99.707        0.084      337.998       10.348      858.816
11/19/2013  03:18:00     -298.509     -104.959        1.710      186.573      104.529       69.769    34809.444    10926.344     4867.697        7.535        2.530      316.424       84.264        0.071      337.956       10.277      858.827
11/19/2013  03:19:00     -194.723      -67.816       -1.751       97.150       99.462       51.450     9438.100     9892.751     2647.090        3.224        1.099      206.194       54.178        0.069      337.951       10.270      858.833
11/19/2013  03:20:00     -137.839      -64.684       18.388      109.710       92.717       64.435    12036.351     8596.533     4151.817        2.415        1.239      152.261       60.104        0.156      337.912       10.205      858.821
11/19/2013  03:21:00     -294.694     -168.331      -22.526      148.700      142.790       69.175    22111.815    20388.879     4785.148        8.148        2.364      339.382       75.806        0.050      337.915       10.208      858.844
11/19/2013  03:22:00     -209.291      -79.478        7.564      187.080      134.603       74.983    34998.765    18118.099     5622.465        5.445        2.937      223.874       97.151        0.188      337.907       10.195      858.866
11/19/2013  03:23:00     -179.061      -87.585        7.121      170.243      166.239       78.815    28982.831    27635.471     6211.815        5.129        3.142      199.334       84.439        0.179      337.940       10.250      858.854
11/19/2013  03:24:00     -266.174     -102.193        4.528      170.029      117.775       77.028    28909.920    13870.985     5933.347        6.500        2.436      285.118       79.161        0.077      337.918       10.214      858.819
11/19/2013  03:25:00     -202.599      -61.546        3.176      138.577      106.664       64.730    19203.448    11377.215     4189.921        3.980        1.739      211.741       71.110        0.113      337.905       10.189      858.844
11/19/2013  03:26:00     -420.570      -27.508      -25.816      160.364      133.706       86.456    25716.687    17877.220     7474.600       11.468        2.553      421.469       83.047        0.039      337.943       10.255      858.849
11/19/2013  03:27:00     -289.653      -38.166       -7.371      166.856      108.206       66.384    27841.070    11708.595     4406.885        6.467        2.198      292.157       75.484        0.067      337.932       10.237      858.869
11/19/2013  03:28:00     -304.234     -112.297       -7.982      193.615      177.790       86.679    37486.906    31609.212     7513.318        9.091        3.830      324.298       85.495        0.070      337.913       10.205      858.852
11/19/2013  03:29:00     -402.094      -42.478      -19.157      152.098      138.468       77.427    23133.804    19173.421     5994.875       10.607        2.415      404.331       75.049        0.034      337.882       10.152      858.857
11/19/2013  03:30:00     -384.695      -90.502      -16.512      158.203      153.027       79.498    25028.332    23417.177     6319.853       10.560        2.738      395.197       84.425        0.046      337.865       10.123      858.876
11/19/2013  03:31:00     -365.838      -35.059      -12.261      299.220      115.623       96.343    89532.413    13368.667     9282.019       12.368        5.609      367.514      129.325        0.124      337.839       10.081      858.857
11/19/2013  03:32:00     -338.962      -96.688       -5.279      222.550      146.568       84.846    49528.417    21482.143     7198.807       10.122        3.910      352.482      101.705        0.083      337.823       10.053      858.875
11/19/2013  03:33:00     -460.640     -143.245       -9.126      208.743      156.108       87.517    43573.556    24369.826     7659.199       15.418        3.780      482.398       90.527        0.035      337.827       10.059      858.873
11/19/2013  03:34:00     -369.051      -94.429      -11.413      213.221      146.621       80.423    45463.051    21497.675     6467.868       10.932        3.671      380.940       90.956        0.057      337.827       10.060      858.882
11/19/2013  03:35:00     -530.833     -142.584       -3.951      240.793      144.600      101.043    57981.161    20909.073    10209.730       19.560        4.455      549.649      127.907        0.054      337.803       10.020      858.914
11/19/2013  03:36:00     -456.141     -132.162      -32.850      179.844      117.389       76.295    32344.016    13780.172     5820.915       13.927        2.597      474.901       78.682        0.027      337.816       10.042      858.913
11/19/2013  03:37:00     -350.070      -97.307       -2.751      135.485      102.046       64.211    18356.050    10413.311     4123.087        8.245        1.645      363.342       69.732        0.037      337.807       10.027      858.935
11/19/2013  03:38:00     -240.620       23.407        2.280      207.610       93.082       66.415    43101.770     8664.177     4410.967        5.730        2.809      241.756       81.596        0.114      337.798       10.014      858.906
11/19/2013  03:39:00     -538.493      -52.468      -28.458      265.714      162.184       97.334    70603.947    26303.812     9473.977       19.994        5.319      541.043      128.124        0.056      337.794       10.006      858.875
11/19/2013  03:40:00     -376.816     -121.226      -21.600      210.203      167.632       81.053    44185.262    28100.386     6569.582       11.799        3.943      395.836       93.251        0.055      337.789        9.998      858.891
11/19/2013  03:41:00     -369.544       21.988      -14.458      189.498      153.199       77.635    35909.495    23469.866     6027.154       10.132        3.270      370.198       85.200        0.053      337.775        9.973      858.900
11/19/2013  03:42:00     -440.476      -26.621       -7.068      266.516      158.900       93.311    71030.901    25249.163     8706.980       14.986        5.249      441.279      106.010        0.058      337.784        9.988      858.895
11/19/2013  03:43:00     -593.591      -92.051      -37.281      165.461      125.983       79.796    27377.477    15871.790     6367.440       20.591        2.481      600.686       79.396        0.017      337.788        9.995      858.904
11/19/2013  03:44:00     -491.950      -90.104      -29.344      180.666      110.754       76.654    32640.159    12266.458     5875.789       15.088        2.539      500.133       82.898        0.027      337.798       10.013      858.937
11/19/2013  03:45:00     -393.380     -111.293       -4.425      183.426      158.246       95.347    33645.030    25041.671     9091.094       11.745        3.389      408.820      106.615        0.068      337.778        9.978      858.908
11/19/2013  03:46:00     -465.603      -69.390      -23.468      220.385      147.380       82.316    48569.636    21720.940     6775.913       14.959        3.853      470.745      102.770        0.048      337.762        9.952      858.902
11/19/2013  03:47:00     -450.489     -126.619      -13.937      179.811      174.061       99.064    32331.880    30297.062     9813.741       14.579        3.622      467.945       98.717        0.045      337.800       10.014      858.896
11/19/2013  03:48:00     -304.722     -104.976       -5.126      194.211      134.877       74.557    37718.013    18191.804     5558.759        8.267        3.073      322.297       65.074        0.041      337.787        9.995      858.875
11/19/2013  03:49:00     -469.991     -181.025      -41.220      201.449      225.731      106.272    40581.715    50954.275    11293.836       17.907        5.141      503.648       88.067        0.031      337.768        9.962      858.855
11/19/2013  03:50:00     -336.323     -247.515       -0.792      244.303      210.310      127.021    59684.033    44230.241    16134.253       14.719        6.002      417.585      138.665        0.110      337.753        9.936      858.782
11/19/2013  03:51:00     -253.815     -121.208       -7.257      181.283      119.025       81.281    32863.502    14167.056     6606.673        6.639        2.682      281.271       62.851        0.050      337.751        9.935      858.794
11/19/2013  03:52:00     -384.747     -229.180       -7.068      186.887      158.148       93.535    34926.899    25010.740     8748.886       13.463        3.434      447.832      102.627        0.053      337.751        9.934      858.814
11/19/2013  03:53:00     -314.637      -60.167        0.713      228.069      109.432       73.297    52015.529    11975.289     5372.448        8.598        3.468      320.338       77.821        0.059      337.759        9.947      858.837
11/19/2013  03:54:00     -376.738      -47.246      -13.071      158.144      148.673       75.432    25009.642    22103.559     5689.994        9.856        2.640      379.689       73.284        0.037      337.778        9.978      858.834
11/19/2013  03:55:00     -488.304       12.958      -29.279      201.598      161.687       99.804    40641.848    26142.776     9960.773       15.809        3.837      488.476      112.888        0.053      337.767        9.961      858.852
11/19/2013  03:56:00     -333.261     -104.710      -10.517      203.374      151.844       81.440    41360.874    23056.604     6632.505        9.658        3.552      349.324       75.557        0.047      337.756        9.943      858.845
11/19/2013  03:57:00     -500.581     -150.302      -20.879      195.308      194.045       95.975    38145.107    37653.532     9211.239       17.929        4.250      522.658       86.492        0.027      337.732        9.903      858.827
11/19/2013  03:58:00     -478.131     -111.529      -22.076      222.264      155.159       97.684    49401.188    24074.304     9542.082       16.226        4.151      490.966      113.448        0.053      337.730        9.897      858.818
11/19/2013  03:59:00     -349.615      -90.827       -7.514      280.393      171.174      101.700    78620.151    29300.540    10342.847       12.438        5.913      361.220      132.859        0.135      337.720        9.881      858.825
11/19/2013  04:00:00     -390.382      -63.729       -2.612      224.019      183.688       88.587    50184.486    33741.171     7847.605       12.410        4.589      395.550       84.930        0.046      337.687        9.828      858.840
11/19/2013  04:01:00     -331.019      -25.517       -2.207      193.508      131.206       78.438    37445.378    17215.047     6152.450        8.551        3.041      332.001       83.307        0.063      337.690        9.832      858.871
11/19/2013  04:02:00     -379.623      -42.024      -17.284      243.834      152.918       71.968    59455.141    23383.837     5179.456       11.708        4.401      381.942       88.814        0.054      337.706        9.858      858.868
11/19/2013  04:03:00     -447.608      -74.452      -18.106      203.237      206.476       84.996    41305.417    42632.320     7224.240       14.867        4.558      453.758       98.810        0.047      337.713        9.869      858.848
11/19/2013  04:04:00     -358.281      -56.781      -24.151      201.384      167.964       71.447    40555.388    28211.970     5104.668       10.301        3.694      362.753       83.512        0.053      337.715        9.873      858.874
11/19/2013  04:05:00     -381.250        4.443        2.338      228.844      145.466       86.320    52369.443    21160.484     7451.060       11.316        4.049      381.276      102.201        0.072      337.738        9.912      858.899
11/19/2013  04:06:00     -421.204      -66.768       -8.432      171.372      154.022       89.629    29368.326    23722.924     8033.389       12.152        3.056      426.463       91.389        0.046      337.726        9.892      858.874
11/19/2013  04:07:00     -470.170      -57.650       -3.193      229.757      184.268       91.902    52788.232    33954.730     8445.918       15.977        4.759      473.691      109.551        0.053      337.698        9.847      858.884
11/19/2013  04:08:00     -549.673     -182.227      -32.499      264.681      168.540      105.380    70056.040    28405.817    11104.928       22.296        5.478      579.091      113.908        0.039      337.686        9.825      858.904
11/19/2013  04:09:00     -469.520      -34.130      -28.779      239.262      159.711       93.368    57246.398    25507.681     8717.609       15.694        4.574      470.759      118.481        0.063      337.675        9.808      858.913
11/19/2013  04:10:00     -348.691       -0.566      -20.112      169.080      140.123       79.462    28587.988    19634.426     6314.214        8.825        2.727      348.692       77.780        0.050      337.673        9.804      858.929
11/19/2013  04:11:00     -341.575      -97.764       -5.022      231.471      152.951       83.197    53578.767    23394.142     6921.765       10.506        4.195      355.291      106.022        0.089      337.655        9.773      858.939
11/19/2013  04:12:00     -346.497      -27.022      -14.146      142.852      110.086       68.964    20406.638    12118.925     4756.002        7.913        1.864      347.549       62.526        0.032      337.642        9.750      858.921
11/19/2013  04:13:00     -387.529      -63.332       -5.570      181.899      149.157       78.903    33087.181    22247.958     6225.740       10.788        3.078      392.670       82.791        0.044      337.663        9.786      858.911
11/19/2013  04:14:00     -397.842     -101.806       -0.202      275.478      193.668      116.299    75888.381    37507.280    13525.389       14.776        6.346      410.661      140.595        0.117      337.760        9.950      858.903
11/19/2013  04:15:00     -425.620     -103.668      -17.523      211.379      175.647       76.551    44680.913    30851.915     5860.110       13.678        4.070      438.064       86.592        0.039      337.715        9.874      858.972
11/19/2013  04:16:00     -431.022       -4.367      -21.193      177.065      172.014       82.656    31351.906    29588.729     6832.065       12.700        3.389      431.044       68.163        0.025      337.688        9.829      858.991
11/19/2013  04:17:00     -425.080     -112.254       -3.104      186.256      148.336       76.005    34691.483    22003.633     5776.716       12.788        3.124      439.652       74.242        0.029      337.674        9.804      858.963
11/19/2013  04:18:00     -204.823      -80.109       -3.997      180.185      123.519       70.323    32466.568    15256.838     4945.288        5.052        2.633      219.931       79.016        0.129      337.672        9.802      858.979
11/19/2013  04:19:00     -330.033       48.306       -6.812      170.572      150.861       74.207    29094.866    22759.085     5506.695        8.432        2.868      333.550       70.835        0.045      337.668        9.795      859.013
11/19/2013  04:20:00     -298.271      -96.071        7.532      202.122      202.847       90.920    40853.274    41146.944     8266.410        9.424        4.513      313.361       99.921        0.102      337.693        9.837      859.002
11/19/2013  04:21:00     -352.439      -65.815        5.843      226.124      157.307       86.595    51132.227    24745.413     7498.715       10.596        4.169      358.531      107.639        0.090      337.682        9.819      859.011
11/19/2013  04:22:00     -445.144     -220.838      -24.482      201.819      158.979       91.927    40730.896    25274.388     8450.527       16.097        3.723      496.913       80.841        0.026      337.695        9.840      859.052
11/19/2013  04:23:00     -328.153     -184.511       -7.965      186.970      167.471      101.611    34957.922    28046.477    10324.761       10.755        3.666      376.469      107.068        0.081      337.701        9.851      859.024
11/19/2013  04:24:00     -313.570     -101.282       -3.199      230.102      169.723       94.035    52947.037    28805.918     8842.666        9.958        4.530      329.521      112.912        0.117      337.707        9.861      859.044
11/19/2013  04:25:00     -264.776      -89.283       -0.548      149.071      125.880       70.122    22222.254    15845.736     4917.069        6.052        2.149      279.424       66.650        0.057      337.708        9.861      859.056
11/19/2013  04:26:00     -495.191      -57.897      -29.893      251.098      208.554       93.358    63050.043    43494.850     8715.753       18.234        5.763      498.564      100.654        0.041      337.700        9.849      859.055
11/19/2013  04:27:00     -406.422      -57.606      -20.311      149.547      162.243       81.350    22364.410    26322.737     6617.880       11.210        2.765      410.484       80.659        0.039      337.707        9.860      859.096
11/19/2013  04:28:00     -461.766        3.398      -27.341      203.327      148.447       69.257    41341.886    22036.495     4796.503       14.107        3.409      461.778       82.244        0.032      337.712        9.868      859.122
11/19/2013  04:29:00     -399.716      -63.421      -17.935      230.893      141.245       94.151    53311.694    19950.097     8864.424       12.311        4.106      404.716      103.764        0.066      337.711        9.866      859.121
11/19/2013  04:30:00     -322.250     -100.299       -7.072      140.277      115.687       55.467    19677.699    13383.559     3076.535        7.504        1.807      337.498       61.971        0.034      337.699        9.847      859.111
11/19/2013  04:31:00     -356.231      -75.010      -25.096      316.245      188.569      127.040   100011.074    35558.246    16139.131       14.240        7.585      364.043      163.080        0.201      337.680        9.815      859.108
11/19/2013  04:32:00     -640.281      -37.731      -16.557      265.262      206.737      112.179    70363.869    42740.280    12584.181       26.865        6.284      641.392      125.512        0.038      337.653        9.769      859.120
11/19/2013  04:33:00     -474.901     -174.988       -9.126      303.831      228.223       97.186    92313.485    52085.889     9445.211       20.501        7.692      506.114      105.826        0.044      337.669        9.797      859.108
11/19/2013  04:34:00     -412.085      -86.106      -10.731      200.206      186.749       92.170    40082.407    34875.326     8495.337       13.038        4.173      420.985       98.509        0.055      337.675        9.807      859.138
11/19/2013  04:35:00     -448.561     -137.672      -34.748      213.344      157.702       83.776    45515.797    24869.772     7018.442       14.937        3.870      469.213       90.167        0.037      337.672        9.802      859.142
11/19/2013  04:36:00     -617.050     -169.663      -36.370      288.640      187.726      110.700    83312.808    35241.190    12254.561       27.081        6.540      639.950      118.129        0.034      337.623        9.722      859.136
11/19/2013  04:37:00     -526.925     -130.163      -32.864      199.115      185.048       92.252    39646.651    34242.762     8510.354       18.902        4.120      542.763       90.720        0.028      337.629        9.729      859.149
11/19/2013  04:38:00     -330.088      -24.575        9.372      232.090      149.376       96.912    53865.644    22313.059     9391.882        9.759        4.279      331.002      117.360        0.126      337.644        9.756      859.132
11/19/2013  04:39:00     -235.165      -52.809       -5.654      150.111      149.987       71.005    22533.302    22496.177     5041.755        5.409        2.504      241.022       71.304        0.088      337.635        9.741      859.115
11/19/2013  04:40:00     -485.658      -12.582      -48.451      187.309      126.616       72.448    35084.585    16031.596     5248.711       14.736        2.818      485.821       80.900        0.028      337.603        9.684      859.075
11/19/2013  04:41:00     -339.754     -144.866      -10.774      224.598      164.956       88.933    50444.417    27210.490     7909.145       11.103        4.278      369.349      108.342        0.086      337.607        9.691      859.059
11/19/2013  04:42:00     -423.648     -100.461        8.164      329.272      177.686      109.887   108420.277    31572.432    12075.061       17.082        7.603      435.396      136.708        0.099      337.604        9.687      859.008
11/19/2013  04:43:00     -627.264     -142.456      -24.264      238.856      189.369      111.372    57052.377    35860.460    12403.759       25.981        5.266      643.237      112.612        0.031      337.580        9.646      858.996
11/19/2013  04:44:00     -419.959     -169.775       -5.593      218.349      165.006       91.919    47676.179    27227.002     8449.132       14.427        4.168      452.978       90.389        0.040      337.593        9.668      859.019
11/19/2013  04:45:00     -329.029      -88.245       12.516      214.658      183.558       97.895    46078.049    33693.584     9583.454       10.276        4.468      340.657      114.696        0.113      337.593        9.669      858.997
11/19/2013  04:46:00     -508.203      -68.453       -8.776      258.894      172.682      106.306    67026.128    29819.079    11300.869       18.557        5.407      512.792      118.000        0.053      337.585        9.656      858.995
11/19/2013  04:47:00     -402.034      -18.875      -19.905      231.937      168.684       84.262    53794.869    28454.179     7100.077       12.585        4.467      402.477       98.633        0.060      337.610        9.697      858.988
11/19/2013  04:48:00     -304.923     -200.672       -4.164      265.289      204.448       99.099    70378.324    41798.952     9820.560       12.761        6.100      365.031      126.889        0.121      337.616        9.708      858.986
11/19/2013  04:49:00     -227.233     -146.927       -6.889      178.705      159.525       95.238    31935.330    25448.232     9070.271        6.985        3.323      270.597       93.450        0.119      337.622        9.718      859.009
11/19/2013  04:50:00     -143.072      -67.584       13.531      209.625      113.674       82.949    43942.755    12921.773     6880.580        4.447        3.187      158.231      100.207        0.401      337.618        9.713      858.980
11/19/2013  04:51:00     -307.069     -120.967       12.000      228.886      187.566      108.598    52388.581    35180.844    11793.431       10.420        4.968      330.038      121.724        0.136      337.629        9.729      858.952
11/19/2013  04:52:00     -484.419     -148.246       -2.781      292.793      152.207      104.381    85727.709    23167.007    10895.336       18.819        5.990      506.595      130.084        0.066      337.612        9.700      858.993
11/19/2013  04:53:00     -413.836     -128.240      -12.112      160.501      144.752       85.146    25760.633    20953.239     7249.873       12.090        2.698      433.250       85.243        0.039      337.574        9.636      858.991
11/19/2013  04:54:00     -299.865     -145.905       24.851      264.510      182.783      113.231    69965.294    33409.793    12821.266       11.399        5.810      333.478      130.153        0.152      337.557        9.606      858.903
11/19/2013  04:55:00     -353.123      -59.256       -6.986      193.729      159.260       85.773    37530.851    25363.602     7357.033        9.924        3.513      358.060       87.768        0.060      337.543        9.585      858.918
11/19/2013  04:56:00     -344.921     -213.229       -7.172      247.195      161.880      101.382    61105.514    26204.987    10278.314       13.102        4.879      405.509      126.406        0.097      337.546        9.589      858.874
11/19/2013  04:57:00     -251.404     -127.661       -5.656      209.178      191.108      102.299    43755.287    36522.383    10465.066        8.512        4.537      281.960      105.333        0.140      337.520        9.546      858.837
11/19/2013  04:58:00     -334.683     -141.419        6.009      241.947      223.842      104.967    58538.125    50105.022    11018.149       12.583        5.983      363.335      132.618        0.133      337.470        9.461      858.811
11/19/2013  04:59:00     -307.966     -224.163        2.750      244.376      178.485      104.712    59719.672    31856.761    10964.524       12.380        5.127      380.910      119.642        0.099      337.460        9.445      858.817
11/19/2013  05:00:00     -369.650     -183.786      -16.348      188.942      135.044       84.458    35699.046    18236.819     7133.161       11.587        3.053      412.818       84.627        0.042      337.455        9.438      858.797
11/19/2013  05:01:00     -199.215     -176.169       16.501      222.569      155.562      109.150    49536.793    24199.390    11913.745        7.830        4.282      265.936      130.648        0.241      337.482        9.482      858.790
11/19/2013  05:02:00     -311.417     -117.797       -9.743      173.484      155.508       89.323    30096.741    24182.779     7978.670        8.659        3.113      332.952       86.216        0.067      337.480        9.478      858.819
11/19/2013  05:03:00     -389.406     -101.031      -10.634      179.626      201.780      103.912    32265.423    40715.039    10797.623       12.285        4.189      402.299       91.861        0.052      337.447        9.423      858.808
11/19/2013  05:04:00     -393.209      -49.268       -4.298      209.231      149.972      104.626    43777.695    22491.602    10946.519       11.712        3.861      396.284       93.637        0.056      337.433        9.401      858.808
11/19/2013  05:05:00     -478.694      -38.742      -41.654      219.965      130.918       83.243    48384.522    17139.522     6929.440       15.240        3.623      480.259       89.286        0.035      337.447        9.423      858.846
11/19/2013  05:06:00     -448.774     -183.586      -22.742      256.605      240.229       96.798    65846.355    57710.136     9369.806       18.425        6.646      484.873      109.548        0.051      337.438        9.410      858.881
11/19/2013  05:07:00     -453.120     -108.141      -17.250      208.911      179.998       91.460    43643.632    32399.410     8364.887       15.084        4.220      465.846      102.212        0.048      337.416        9.371      858.866
11/19/2013  05:08:00     -347.089     -194.691       -2.685      213.701      162.039      100.026    45667.950    26256.703    10005.265       12.014        4.096      397.964       98.407        0.061      337.407        9.357      858.844
11/19/2013  05:09:00     -389.769     -290.459      -23.508      286.965      203.730      107.076    82348.883    41505.927    11465.307       18.605        6.766      486.093      135.871        0.078      337.406        9.357      858.881
11/19/2013  05:10:00     -484.937     -143.525      -39.560      282.284      190.148       98.624    79684.135    36156.258     9726.695       19.142        6.278      505.730      108.489        0.046      337.419        9.378      858.872
11/19/2013  05:11:00     -292.912        3.535      -11.217      189.603      178.301       85.129    35949.114    31791.334     7246.963        8.045        3.749      292.933       94.110        0.103      337.426        9.388      858.948
11/19/2013  05:12:00     -665.965     -113.174      -43.973      223.347      234.840      100.937    49883.707    55149.993    10188.338       28.671        5.761      675.513      103.369        0.023      337.385        9.320      858.948
11/19/2013  05:13:00     -392.690       35.675      -13.730      183.612      157.456       86.336    33713.547    24792.478     7453.875       11.080        3.298      394.308       86.845        0.049      337.382        9.314      858.971
11/19/2013  05:14:00     -327.446     -108.745       -3.008      218.844      192.737       95.755    47892.756    37147.458     9168.939       10.661        4.710      345.031       92.060        0.071      337.385        9.320      858.957
11/19/2013  05:15:00     -332.919      -95.365       -1.866      201.968      157.165       83.558    40791.147    24700.862     6981.908        9.619        3.624      346.309       80.607        0.054      337.376        9.305      858.972
11/19/2013  05:16:00     -461.595      -74.270      -28.127      208.394      130.919       82.831    43428.093    17139.750     6860.959       14.339        3.371      467.532      106.877        0.052      337.351        9.264      858.994
11/19/2013  05:17:00     -249.883      -82.842       10.717      175.993      147.608       77.427    30973.591    21788.165     5994.863        6.408        2.938      263.257       76.992        0.086      337.387        9.324      859.010
11/19/2013  05:18:00     -248.516      -67.262       -2.847      170.000      138.055       77.112    28899.935    19059.197     5946.205        6.009        2.695      257.458       77.536        0.091      337.374        9.301      859.013
11/19/2013  05:19:00     -250.300     -101.445       13.384      158.706      167.322       87.136    25187.492    27996.618     7592.758        6.694        3.039      270.076       73.880        0.075      337.387        9.324      859.032
11/19/2013  05:20:00     -408.720     -148.405      -24.121      217.497      224.815       93.519    47305.151    50541.997     8745.819       14.810        5.330      434.829       93.302        0.046      337.390        9.329      859.064
11/19/2013  05:21:00     -406.767     -124.652      -19.400      290.725      177.184       84.384    84521.273    31394.159     7120.651       15.218        6.152      425.438      107.795        0.064      337.394        9.335      859.060
11/19/2013  05:22:00     -503.963      -44.916      -20.639      252.193      171.773       92.872    63601.218    29505.821     8625.195       17.906        5.087      505.960      115.806        0.052      337.376        9.306      859.089
11/19/2013  05:23:00     -363.673     -228.816      -33.753      183.459      209.501       96.701    33657.030    43890.845     9351.164       13.631        4.345      429.668       95.698        0.050      337.391        9.330      859.104
11/19/2013  05:24:00     -443.069     -143.005      -17.426      223.204      166.276       93.831    49820.189    27647.764     8804.299       15.165        4.314      465.575      100.628        0.047      337.376        9.305      859.087
11/19/2013  05:25:00     -257.402     -163.687      -23.832      175.999      139.109       80.696    30975.666    19351.348     6511.866        7.522        2.842      305.040       85.871        0.079      337.425        9.387      859.091
11/19/2013  05:26:00     -330.383       18.593        4.041      167.716      145.371       73.144    28128.495    21132.779     5350.025        8.205        2.731      330.905       82.219        0.062      337.396        9.337      859.083
11/19/2013  05:27:00     -232.573      -76.566        9.058      149.994      130.291       68.833    22498.106    16975.699     4737.961        5.211        2.211      244.853       64.676        0.070      337.383        9.319      859.056
11/19/2013  05:28:00     -182.450      -58.582       -0.150      114.039      114.510       61.744    13004.785    13112.631     3812.372        3.332        1.496      191.625       56.739        0.088      337.389        9.328      859.094
11/19/2013  05:29:00     -356.446     -154.714        4.243      276.528      185.253      101.351    76467.575    34318.848    10272.116       13.601        6.053      388.574      130.595        0.113      337.360        9.279      859.091
11/19/2013  05:30:00     -318.473      -43.144       -4.943      192.864      129.849       66.775    37196.511    16860.743     4458.900        8.090        2.926      321.382       82.277        0.066      337.355        9.271      859.128
11/19/2013  05:31:00     -180.858     -124.409        7.689      138.283       91.642       67.259    19122.245     8398.342     4523.763        4.014        1.602      219.516       60.619        0.076      337.365        9.287      859.128
11/19/2013  05:32:00     -280.267     -204.892       15.865      225.696      181.038       96.391    50938.795    32774.741     9291.228       10.687        4.650      347.175       98.362        0.080      337.349        9.262      859.128
11/19/2013  05:33:00     -172.651      -61.782        2.605      146.464      127.237       78.383    21451.836    16189.213     6143.881        3.870        2.189      183.372       86.909        0.225      337.366        9.289      859.160
11/19/2013  05:34:00     -222.577     -175.384        5.081      149.174      128.710       77.852    22252.994    16566.285     6060.978        6.259        2.244      283.373       84.986        0.090      337.353        9.267      859.132
11/19/2013  05:35:00     -292.102     -169.882       -2.346      237.918      141.012       87.848    56604.791    19884.280     7717.228        9.918        4.210      337.911      103.492        0.094      337.348        9.259      859.140
11/19/2013  05:36:00     -393.132     -209.843      -14.532      205.206      151.435      103.207    42109.629    22932.482    10651.674       13.723        3.785      445.630       99.996        0.050      337.342        9.249      859.107
11/19/2013  05:37:00     -336.521      -80.409      -16.734      229.205      199.917       93.115    52534.837    39966.783     8670.411       11.056        5.059      345.994      103.997        0.090      337.348        9.259      859.120
11/19/2013  05:38:00     -182.593       -1.038       20.354      166.550      123.200       76.911    27739.017    15178.301     5915.291        4.128        2.442      182.596       79.981        0.192      337.367        9.292      859.143
11/19/2013  05:39:00     -285.437     -124.647        1.454      224.744      193.030       84.944    50509.766    37260.715     7215.492        9.598        4.749      311.466       98.173        0.099      337.365        9.287      859.125
11/19/2013  05:40:00     -377.272     -234.450      -19.973      252.975      210.547      117.802    63996.184    44330.041    13877.331       15.993        6.110      444.186      128.736        0.084      337.360        9.279      859.067
11/19/2013  05:41:00     -583.267      -45.803      -30.545      211.319      168.109       91.494    44655.871    28260.765     8371.155       21.224        4.064      585.062      100.779        0.030      337.341        9.248      859.088
11/19/2013  05:42:00     -511.384     -134.127      -16.510      226.731      196.544       98.507    51407.065    38629.495     9703.727       18.974        4.987      528.681      104.986        0.039      337.333        9.234      859.082
11/19/2013  05:43:00     -314.821      -56.539      -10.286      176.253      107.314       66.544    31065.124    11516.345     4428.043        7.470        2.350      319.857       70.149        0.048      337.354        9.269      859.067
11/19/2013  05:44:00     -166.994      -84.382      -12.572      131.754      112.093       62.317    17359.237    12564.767     3883.371        3.448        1.690      187.103       73.690        0.155      337.358        9.276      859.028
11/19/2013  05:45:00     -244.509     -119.574       22.392      206.755      128.574       96.273    42747.659    16531.351     9268.548        7.155        3.427      272.181      109.188        0.161      337.351        9.265      858.977
11/19/2013  05:46:00     -428.590      -66.893      -23.667      173.951      161.103       82.268    30259.102    25954.252     6767.978       12.584        3.149      433.779       79.560        0.034      337.340        9.245      858.990
11/19/2013  05:47:00     -308.009     -137.423       -8.579      206.418      133.880       80.258    42608.229    17923.961     6441.306        9.039        3.349      337.275       94.624        0.079      337.345        9.255      858.967
11/19/2013  05:48:00     -192.175      -99.347        9.761      231.090      187.594       98.550    53402.374    35191.500     9712.127        7.258        4.915      216.336      109.297        0.255      337.377        9.307      858.942
11/19/2013  05:49:00     -245.563      -59.559       -0.244      181.256      185.726       94.553    32853.656    34494.176     8940.248        7.005        3.814      252.683       95.414        0.143      337.366        9.289      858.951
11/19/2013  05:50:00     -483.601      -76.676      -38.498      270.211      125.022       91.952    73013.963    15630.500     8455.101       16.915        4.855      489.642      119.067        0.059      337.342        9.249      858.987
11/19/2013  05:51:00     -427.267      -26.540      -30.309      151.451      136.357       78.063    22937.415    18593.292     6093.869       11.589        2.381      428.091       72.594        0.029      337.339        9.244      859.009
11/19/2013  05:52:00     -474.767     -137.546      -13.432      272.904      196.507       81.950    74476.515    38615.138     6715.867       18.213        5.990      494.290       96.614        0.038      337.341        9.247      859.023
11/19/2013  05:53:00     -470.066     -215.689      -30.806      186.461      183.329       82.597    34767.653    33609.548     6822.249       17.180        3.760      517.189       75.726        0.021      337.323        9.217      858.989
11/19/2013  05:54:00     -252.340     -138.957       -6.868      205.868      157.315       81.267    42381.444    24748.082     6604.299        7.837        3.687      288.071       97.922        0.116      337.346        9.255      859.000
11/19/2013  05:55:00     -455.687      -53.465      -28.896      192.620      160.167       77.134    37102.632    25653.487     5949.705       14.001        3.435      458.812       84.829        0.034      337.339        9.244      859.048
11/19/2013  05:56:00     -487.741     -265.421      -12.525      248.906      175.506       91.648    61954.344    30802.194     8399.380       20.481        5.058      555.283      108.013        0.038      337.337        9.240      859.006
11/19/2013  05:57:00     -383.433     -170.946      -13.111      196.707      134.018       73.621    38693.580    17960.722     5420.110       11.923        3.104      419.814       69.903        0.028      337.344        9.251      858.973
11/19/2013  05:58:00     -251.093     -161.017        9.629      223.311      145.661       93.178    49867.809    21217.248     8682.208        8.440        3.988      298.285      118.037        0.157      337.356        9.272      859.017
11/19/2013  05:59:00     -272.622      -59.672      -13.044      139.710      114.317       67.332    19518.926    13068.445     4533.578        5.758        1.856      279.076       67.697        0.059      337.357        9.274      859.027
11/19/2013  06:00:00     -294.734      -53.109      -10.185      183.133      122.734       71.573    33537.796    15063.546     5122.625        7.175        2.686      299.481       87.718        0.086      337.380        9.313      859.039
11/19/2013  06:01:00     -315.996      -48.875      -22.725      164.547      139.119       67.769    27075.721    19353.991     4592.576        7.688        2.551      319.753       65.440        0.042      337.373        9.300      859.050
11/19/2013  06:02:00     -286.073      -51.614       -5.622      157.627       98.023       55.020    24846.387     9608.559     3027.163        6.100        1.874      290.692       70.228        0.058      337.364        9.287      859.054
11/19/2013  06:03:00     -222.774       27.519        9.759      200.776      112.010       69.892    40311.132    12546.225     4884.901        5.410        2.887      224.467       89.150        0.158      337.378        9.309      859.050
11/19/2013  06:04:00     -402.735      -47.527      -20.272      190.026      191.491       89.917    36109.794    36668.758     8085.055       12.285        4.043      405.529       65.678        0.026      337.383        9.317      859.008
11/19/2013  06:05:00     -434.458      -38.499      -15.234      223.210      158.204       82.475    49822.491    25028.387     6802.101       13.604        4.083      436.161       91.092        0.044      337.379        9.310      858.980
11/19/2013  06:06:00     -335.930      -62.645      -10.343      163.384      136.100       73.200    26694.287    18523.211     5358.252        8.372        2.529      341.721       73.928        0.047      337.386        9.323      858.996
11/19/2013  06:07:00     -385.814     -194.341      -12.483      178.967      159.956       95.133    32029.213    25585.990     9050.203       12.671        3.333      431.997       96.814        0.050      337.395        9.337      859.001
11/19/2013  06:08:00     -172.349        0.900        9.645      151.897      163.069       88.579    23072.734    26591.551     7846.242        4.364        2.876      172.352       60.090        0.122      337.417        9.375      858.980
11/19/2013  06:09:00     -446.592     -137.117      -14.209      197.466      172.106       90.242    38992.684    29620.476     8143.605       14.759        3.838      467.168       84.609        0.033      337.384        9.320      859.008
11/19/2013  06:10:00     -290.719     -109.172      -23.415      198.854       93.786       73.194    39543.023     8795.766     5357.395        7.533        2.685      310.541       89.380        0.083      337.407        9.356      859.021
11/19/2013  06:11:00     -142.280      -32.235        5.589      151.993      132.288       75.663    23101.921    17500.135     5724.862        3.381        2.316      145.886       80.316        0.303      337.422        9.381      859.039
11/19/2013  06:12:00     -283.627      -32.691      -10.380      246.975      151.265       82.443    60996.784    22881.082     6796.904        8.613        4.534      285.504       84.982        0.089      337.420        9.378      859.065
11/19/2013  06:13:00     -178.030      -23.902        5.242      172.874       83.723       61.996    29885.560     7009.622     3843.472        3.651        2.037      179.627       84.440        0.221      337.418        9.375      859.037
11/19/2013  06:14:00     -137.688       -6.655       24.421      151.012      135.892       61.553    22804.735    18466.699     3788.729        3.232        2.253      137.849       59.969        0.189      337.426        9.389      859.045
11/19/2013  06:15:00     -359.760      -14.299        3.106      232.287      122.142       81.661    53957.274    14918.726     6668.489       10.258        3.777      360.044      103.054        0.082      337.438        9.408      859.061
11/19/2013  06:16:00     -387.460      -74.537      -15.399      183.987      149.954       77.004    33851.286    22486.154     5929.582       10.908        3.113      394.565       97.037        0.060      337.453        9.435      859.054
11/19/2013  06:17:00     -316.587      -41.262      -12.512      126.150      135.554       79.457    15913.890    18374.962     6313.461        7.134        2.030      319.264       72.192        0.051      337.456        9.438      859.042
11/19/2013  06:18:00     -239.168      -77.272        2.528      152.507      119.533       76.325    23258.400    14288.131     5825.460        5.327        2.169      251.341       78.547        0.098      337.459        9.442      859.037
11/19/2013  06:19:00     -292.574     -139.767      -17.467      168.945      119.558       83.116    28542.497    14294.225     6908.348        7.758        2.487      324.245       92.444        0.081      337.453        9.434      859.036
11/19/2013  06:20:00     -283.695      -61.651        0.664      164.914      140.040       85.121    27196.672    19611.270     7245.662        6.916        2.703      290.317       95.112        0.107      337.459        9.444      859.065
11/19/2013  06:21:00     -295.738      -90.976      -13.475      240.349      193.630       83.299    57767.671    37492.448     6938.749        9.904        5.110      309.415       89.601        0.084      337.470        9.462      859.101
11/19/2013  06:22:00     -225.514       30.247        9.254      187.893      118.464       69.515    35303.848    14033.786     4832.385        5.300        2.709      227.533       83.042        0.133      337.464        9.453      859.121
11/19/2013  06:23:00     -301.735      -17.343      -32.732      236.696      100.940       55.594    56025.230    10188.802     3090.712        8.085        3.465      302.233       77.798        0.066      337.463        9.452      859.129
11/19/2013  06:24:00     -215.183      -88.886       -8.979      160.169      135.599       79.752    25653.977    18386.981     6360.321        5.233        2.520      232.818       78.982        0.115      337.455        9.438      859.158
11/19/2013  06:25:00     -460.512      -81.204      -39.586      183.967      111.574       70.925    33844.035    12448.669     5030.421       13.577        2.566      467.617       86.003        0.034      337.441        9.414      859.207
11/19/2013  06:26:00     -299.030      -95.374      -14.377      142.528      130.057       70.686    20314.281    16914.892     4996.554        7.047        2.111      313.871       58.178        0.034      337.443        9.418      859.227
11/19/2013  06:27:00     -434.042     -207.874      -13.893      243.147      142.035       87.750    59120.670    20173.801     7700.024       15.938        4.350      481.252      105.110        0.048      337.463        9.451      859.263
11/19/2013  06:28:00     -477.282     -141.179      -25.718      184.151      152.623       76.702    33911.762    23293.871     5883.245       15.573        3.154      497.724       76.122        0.023      337.476        9.472      859.291
11/19/2013  06:29:00     -231.052     -124.700        2.071      173.768      118.831       71.954    30195.323    14120.822     5177.449        5.921        2.475      262.555       84.038        0.102      337.498        9.508      859.258
11/19/2013  06:30:00      -90.031      -32.586       -5.705      101.003       80.969       53.854    10201.632     6556.010     2900.204        1.442        0.983       95.747       45.275        0.224      337.517        9.542      859.245
11/19/2013  06:31:00     -196.804      -76.778        1.471      174.372      129.132       90.121    30405.474    16675.056     8121.742        4.990        2.760      211.250       87.201        0.170      337.506        9.522      859.245
11/19/2013  06:32:00     -283.528      -53.401       -3.240      284.578      143.009       90.636    80984.648    20451.651     8214.904        9.643        5.483      288.514      125.529        0.189      337.502        9.517      859.230
11/19/2013  06:33:00     -265.174      -53.223       12.271      179.013      133.762       72.889    32045.761    17892.305     5312.740        6.426        2.763      270.462       83.866        0.096      337.498        9.509      859.237
11/19/2013  06:34:00     -347.675       27.810      -16.593      173.340      109.691       76.829    30046.795    12032.008     5902.699        8.494        2.399      348.785       83.741        0.058      337.509        9.527      859.282
11/19/2013  06:35:00     -286.811     -174.521       -8.783      193.262      134.359       90.175    37350.047    18052.242     8131.554        8.815        3.177      335.735       99.823        0.088      337.527        9.558      859.293
11/19/2013  06:36:00     -423.355     -207.967       -8.244      222.780      183.651       87.300    49631.076    33727.836     7621.375       15.675        4.549      471.678      100.682        0.046      337.513        9.534      859.290
11/19/2013  06:37:00     -296.191     -184.486      -14.382      159.840      116.731       79.953    25548.972    13626.100     6392.484        8.376        2.278      348.947       73.174        0.044      337.511        9.529      859.326
11/19/2013  06:38:00     -119.102      -94.662        1.537      125.891      110.884       74.128    15848.517    12295.293     5495.011        2.839        1.682      152.139       81.993        0.290      337.518        9.544      859.361
11/19/2013  06:39:00     -154.001     -132.460       18.330      128.130      129.768       59.887    16417.320    16839.713     3586.443        3.921        1.842      203.131       61.237        0.091      337.524        9.554      859.395
11/19/2013  06:40:00     -150.321     -153.478       13.673      145.049      132.567       77.665    21039.203    17573.955     6031.899        4.548        2.232      214.829       77.243        0.129      337.540        9.579      859.410
11/19/2013  06:41:00     -340.585     -242.735       12.709      184.707      151.819       89.268    34116.830    23048.881     7968.821       12.009        3.257      418.233       98.452        0.055      337.519        9.544      859.411
11/19/2013  06:42:00     -443.570     -247.934      -27.507      213.797      147.950       92.461    45709.013    21889.211     8549.025       16.755        3.807      508.159       87.767        0.030      337.521        9.546      859.423
11/19/2013  06:43:00     -352.666     -228.020      -16.309      164.353      128.792       74.074    27012.020    16587.347     5486.984       11.285        2.454      419.961       92.312        0.048      337.531        9.564      859.453
11/19/2013  06:44:00     -409.025     -236.729      -14.810      187.029      144.630       82.186    34979.945    20917.770     6754.601       14.309        3.133      472.591       89.849        0.036      337.544        9.585      859.458
11/19/2013  06:45:00     -243.713     -226.210        4.178      129.548      112.897       76.513    16782.623    12745.701     5854.197        7.298        1.769      332.516       62.552        0.035      337.509        9.528      859.454
11/19/2013  06:46:00     -267.288     -168.147      -14.143      158.243      130.394       73.691    25040.923    17002.709     5430.343        7.369        2.374      315.779       79.335        0.063      337.542        9.584      859.460
11/19/2013  06:47:00     -356.574     -343.076       16.373      207.058      179.944      118.026    42873.190    32379.912    13930.199       16.713        4.459      494.820      119.288        0.058      337.660        9.782      859.486
11/19/2013  06:48:00     -243.278     -241.337        0.995      181.072      168.701      102.219    32787.084    28460.143    10448.724        9.455        3.585      342.677       87.717        0.066      337.612        9.701      859.455
11/19/2013  06:49:00     -162.987     -302.485       -7.816      129.551      165.753       80.479    16783.478    27474.042     6476.906        8.442        2.537      343.601       61.396        0.032      337.584        9.653      859.503
11/19/2013  06:50:00     -106.080     -126.162       12.762      123.005       98.174       63.333    15130.347     9638.075     4011.125        2.805        1.439      164.833       60.757        0.136      337.566        9.626      859.525
11/19/2013  06:51:00     -144.596     -137.209        4.878      107.404      150.130       52.582    11535.529    22539.163     2764.845        3.829        1.842      199.335       57.533        0.083      337.571        9.631      859.544
11/19/2013  06:52:00     -168.006     -229.778      -10.022      133.582      158.616       55.070    17844.277    25159.192     3032.736        6.357        2.302      284.647       75.991        0.071      337.562        9.616      859.554
11/19/2013  06:53:00     -151.984     -295.941      -11.571       89.909       97.638       54.480     8083.569     9533.187     2968.032        6.570        1.029      332.686       46.531        0.020      337.542        9.581      859.542
11/19/2013  06:54:00     -188.167     -150.243      -14.008      112.398      113.041       60.086    12633.348    12778.223     3610.376        4.359        1.451      240.790       62.364        0.067      337.575        9.638      859.573
11/19/2013  06:55:00     -135.526     -231.322        0.702       95.312      111.697       59.810     9084.378    12476.294     3577.284        4.850        1.257      268.099       42.027        0.025      337.607        9.693      859.593
11/19/2013  06:56:00      -68.065     -196.776        7.555       71.004       81.776       44.800     5041.578     6687.381     2007.080        2.857        0.687      208.215       32.312        0.024      337.625        9.724      859.629
11/19/2013  06:57:00     -169.404     -245.829       -5.732       96.952      152.062       52.202     9399.775    23122.906     2724.999        6.220        1.762      298.546       62.235        0.043      337.593        9.670      859.638
11/19/2013  06:58:00     -124.582     -231.616        2.396      105.230      165.598       48.928    11073.263    27422.564     2393.996        5.502        2.044      262.995       48.311        0.034      337.618        9.712      859.646
11/19/2013  06:59:00     -301.479     -209.178      -18.182      160.969      159.576       71.296    25910.885    25464.478     5083.058        9.571        2.823      366.940       48.345        0.017      337.640        9.748      859.662
11/19/2013  07:00:00     -224.191     -249.500       12.435      173.738      146.094       85.298    30184.804    21343.558     7275.667        8.572        2.940      335.428       97.001        0.084      337.633        9.738      859.669
11/19/2013  07:01:00     -156.380     -180.906        9.556      127.600       92.596       59.253    16281.803     8573.967     3510.901        4.281        1.418      239.127       49.861        0.043      337.642        9.750      859.675
11/19/2013  07:02:00     -163.995     -179.391       -5.123       91.702       92.985       47.959     8409.226     8646.224     2300.056        3.922        0.968      243.054       46.055        0.036      337.629        9.730      859.695
11/19/2013  07:03:00     -151.383     -240.850       -5.090       95.485      104.556       56.787     9117.351    10931.867     3224.765        5.211        1.164      284.474       54.295        0.036      337.628        9.726      859.728
11/19/2013  07:04:00     -181.791     -199.348        4.538      144.756      162.777       75.460    20954.319    26496.440     5694.269        6.297        2.657      269.792       91.925        0.116      337.593        9.670      859.739
11/19/2013  07:05:00     -193.497     -171.957       -1.446      128.087       91.957       66.716    16406.395     8456.175     4451.047        4.816        1.466      258.864       52.434        0.041      337.590        9.665      859.733
11/19/2013  07:06:00      -49.517      -48.764        6.754       81.093       80.398       46.911     6576.027     6463.804     2200.683        1.005        0.762       69.497       41.412        0.355      337.678        9.813      859.730
11/19/2013  07:07:00     -195.840      -39.831      -12.724      109.860       81.626       37.358    12069.144     6662.831     1395.625        3.011        1.006      199.850       34.082        0.029      337.587        9.659      859.741
11/19/2013  07:08:00     -265.953     -167.617       -6.723      112.757      117.161       57.642    12714.159    13726.688     3322.546        6.431        1.488      314.367       55.312        0.031      337.599        9.679      859.776
11/19/2013  07:09:00     -295.273     -231.613      -19.527      110.242       88.641       65.863    12153.403     7857.160     4337.989        8.278        1.217      375.275       49.107        0.017      337.595        9.671      859.776
11/19/2013  07:10:00     -121.213     -118.457       -7.620      116.802       71.050       40.965    13642.758     5048.048     1678.126        2.457        1.018      169.483       20.864        0.015      337.622        9.718      859.773
11/19/2013  07:11:00      -95.860     -164.222      -11.116      144.870       89.441       57.646    20987.440     7999.611     3323.114        3.429        1.616      190.153       45.086        0.056      337.716        9.875      859.764
11/19/2013  07:12:00     -250.121     -126.910       -3.506      109.483       94.991       59.064    11986.600     9023.336     3488.554        5.158        1.225      280.476       57.946        0.043      337.632        9.734      859.781
11/19/2013  07:13:00     -180.652     -123.073        6.879      100.674       81.596       48.819    10135.312     6657.886     2383.337        3.350        0.959      218.592       36.123        0.027      337.616        9.707      859.812
11/19/2013  07:14:00     -215.183     -129.975       -3.462      127.860      122.643       45.864    16348.253    15041.310     2103.535        4.834        1.675      251.391       49.430        0.039      337.609        9.694      859.827
11/19/2013  07:15:00     -215.279      -73.497       -7.660      100.110       82.092       48.483    10022.025     6739.171     2350.613        3.545        0.956      227.479       53.763        0.056      337.598        9.678      859.787
11/19/2013  07:16:00     -162.749     -175.922       -5.537       89.103       72.647       51.960     7939.325     5277.571     2699.812        3.669        0.796      239.657       49.159        0.042      337.601        9.680      859.858
11/19/2013  07:17:00     -197.723     -154.967      -11.555       78.282       66.754       39.484     6128.026     4456.037     1558.966        3.769        0.607      251.215       31.881        0.016      337.580        9.644      859.898
11/19/2013  07:18:00     -149.968     -210.918       -1.757      126.956       99.029       54.442    16117.828     9806.782     2963.927        4.793        1.444      258.799       55.607        0.046      337.595        9.672      859.927
11/19/2013  07:19:00     -322.586     -216.488       -6.527      159.920      122.912       66.050    25574.284    15107.481     4362.550        9.800        2.252      388.496       66.673        0.029      337.588        9.660      859.931
11/19/2013  07:20:00     -232.989     -161.781       -2.595      165.853      131.289       68.386    27507.200    17236.791     4676.674        6.493        2.471      283.650       57.542        0.041      337.577        9.641      859.888
11/19/2013  07:21:00     -265.393     -252.964       18.531      161.922      126.970       84.635    26218.591    16121.334     7163.073        9.213        2.475      366.639       78.983        0.046      337.576        9.638      859.873
11/19/2013  07:22:00     -157.004     -131.216       -1.390       81.499       83.439       43.602     6642.051     6962.106     1901.162        2.868        0.775      204.616       37.490        0.034      337.593        9.669      859.850
11/19/2013  07:23:00     -115.166      -77.366       11.344      152.426       90.033       59.710    23233.786     8105.939     3565.294        2.713        1.745      138.740       82.836        0.356      337.594        9.673      859.867
11/19/2013  07:24:00     -159.368     -164.210        6.857      114.899      104.360       51.321    13201.815    10891.021     2633.808        3.956        1.336      228.830       65.793        0.083      337.592        9.667      859.874
11/19/2013  07:25:00     -224.382     -259.903        1.433      139.409      139.728       63.944    19434.938    19523.858     4088.899        8.046        2.152      343.361       66.090        0.037      337.567        9.624      859.881
11/19/2013  07:26:00     -231.913     -173.224      -21.099       99.070       72.436       48.898     9814.907     5246.969     2391.051        5.084        0.873      289.466       31.083        0.012      337.545        9.586      859.858
11/19/2013  07:27:00      -99.413     -196.699       10.057       94.223       83.497       52.677     8878.007     6971.806     2774.888        3.365        0.931      220.393       34.129        0.024      337.609        9.694      859.842
11/19/2013  07:28:00     -115.501     -114.095        2.068       84.727       73.337       39.346     7178.665     5378.257     1548.145        2.023        0.705      162.352       41.769        0.066      337.610        9.700      859.803
11/19/2013  07:29:00     -117.873     -167.927       10.401      130.945      100.555       55.227    17146.572    10111.230     3050.006        3.625        1.515      205.167       53.036        0.067      337.608        9.695      859.761
11/19/2013  07:30:00     -157.265     -112.960       -2.150       88.211       84.296       60.004     7781.210     7105.870     3600.506        2.799        0.924      193.630       34.800        0.032      337.575        9.639      859.742
11/19/2013  07:31:00     -177.911     -176.277       -9.127      129.238      120.909       61.372    16702.584    14619.063     3766.582        4.894        1.754      250.451       67.324        0.072      337.562        9.615      859.711
11/19/2013  07:32:00     -203.627     -147.189       -1.922      116.786       89.297       58.974    13639.026     7973.999     3477.900        4.411        1.255      251.253       61.753        0.060      337.548        9.592      859.719
11/19/2013  07:33:00     -142.750      -99.434        9.274       84.997       85.766       52.003     7224.445     7355.723     2704.308        2.381        0.864      173.967       50.734        0.085      337.535        9.572      859.663
11/19/2013  07:34:00     -252.304     -171.952      -28.487      109.934      109.214       51.464    12085.476    11927.610     2648.562        6.034        1.333      305.327       34.708        0.013      337.522        9.551      859.632
11/19/2013  07:35:00     -270.929     -211.257       -8.042      131.083       98.273       58.921    17182.875     9657.623     3471.634        7.420        1.516      343.558       58.762        0.029      337.516        9.539      859.651
11/19/2013  07:36:00     -420.233     -283.163       -9.695      172.698      111.466       86.689    29824.730    12424.700     7514.932       15.331        2.488      506.732       83.264        0.027      337.479        9.478      859.644
11/19/2013  07:37:00     -339.570     -207.244       -3.735      149.936      137.569       68.039    22480.771    18925.258     4629.279       10.214        2.302      397.817       68.273        0.029      337.464        9.452      859.616
11/19/2013  07:38:00     -158.650     -193.544       -2.567      116.057       65.116       45.865    13469.250     4240.131     2103.561        4.122        0.991      250.258       43.265        0.030      337.493        9.500      859.584
11/19/2013  07:39:00     -157.978     -184.046      -19.473       67.916      107.675       53.415     4612.594    11593.997     2853.173        3.913        0.953      242.548       21.011        0.008      337.492        9.499      859.546
11/19/2013  07:40:00      -96.021     -247.401        0.512      118.572      143.395       58.747    14059.380    20561.987     3451.206        5.424        1.904      265.381       42.306        0.025      337.522        9.550      859.504
11/19/2013  07:41:00     -351.457     -220.799       -4.119      140.928      113.927       74.717    19860.616    12979.342     5582.572       10.535        1.921      415.059       53.849        0.017      337.496        9.505      859.463
11/19/2013  07:42:00     -169.190      -77.941       14.791      138.615       78.857       52.910    19214.222     6218.422     2799.494        3.157        1.412      186.279       58.364        0.098      337.503        9.519      859.449
11/19/2013  07:43:00     -218.506     -266.343       -7.640      160.364      219.024       69.539    25716.671    47971.645     4835.636        9.862        3.926      344.505       86.166        0.063      337.524        9.553      859.448
11/19/2013  07:44:00     -311.483      -88.863      -27.188      168.148      151.247       62.901    28273.779    22875.559     3956.575        8.037        2.755      323.911       40.314        0.015      337.519        9.543      859.433
11/19/2013  07:45:00     -167.687      -73.200        6.762      148.759      103.677       59.416    22129.364    10748.895     3530.282        3.496        1.820      182.967       53.318        0.085      337.528        9.559      859.442
11/19/2013  07:46:00     -252.732     -155.057        2.652      147.635      116.086       62.538    21796.001    13476.062     3911.043        6.355        1.959      296.507       70.542        0.057      337.528        9.559      859.476
11/19/2013  07:47:00     -213.674     -171.011       -1.554      155.474      156.530       89.640    24172.213    24501.539     8035.340        6.580        2.835      273.681       92.387        0.114      337.531        9.565      859.509
11/19/2013  07:48:00     -304.079     -149.736       -9.883      178.902      132.111       77.355    32005.867    17453.420     5983.762        8.520        2.772      338.947       87.788        0.067      337.520        9.545      859.565
11/19/2013  07:49:00     -255.934     -183.964       -6.103      177.940      131.163       79.675    31662.545    17203.820     6348.159        7.729        2.761      315.190       93.347        0.088      337.505        9.521      859.544
11/19/2013  07:50:00     -165.424      -80.277      -15.437      109.478      142.058       70.185    11985.372    20180.385     4925.879        3.556        1.855      183.874       64.394        0.123      337.529        9.562      859.560
11/19/2013  07:51:00     -250.671     -135.569        1.226      143.131      101.259       78.743    20486.514    10253.352     6200.413        5.907        1.847      284.983       66.186        0.054      337.504        9.519      859.598
11/19/2013  07:52:00     -360.798     -171.432      -19.813      191.369      143.179       81.261    36622.128    20500.320     6603.403       11.183        3.186      399.455       92.892        0.054      337.492        9.499      859.636
11/19/2013  07:53:00     -305.501     -126.149      -17.526      165.233      120.952       63.904    27301.946    14629.319     4083.761        7.777        2.301      330.522       57.610        0.030      337.490        9.496      859.629
11/19/2013  07:54:00     -165.545     -183.550        1.949      136.733      130.129       66.379    18695.954    16933.465     4406.123        5.056        2.002      247.176       83.614        0.114      337.505        9.520      859.628
11/19/2013  07:55:00     -291.964      -92.980       -6.148      249.901      164.104       84.544    62450.671    26930.234     7147.770        9.521        4.826      306.411      115.600        0.142      337.491        9.497      859.620
11/19/2013  07:56:00     -317.106     -120.814      -14.843      194.070      103.112       71.107    37663.237    10632.162     5056.246        8.435        2.668      339.341       77.336        0.052      337.493        9.500      859.620
11/19/2013  07:57:00     -156.391      -97.674        1.281      130.771       94.742       52.228    17101.051     8976.094     2727.788        3.140        1.440      184.387       61.463        0.111      337.498        9.509      859.608
11/19/2013  07:58:00     -141.202     -131.402        2.277      109.017      108.452       62.745    11884.791    11761.901     3936.883        3.239        1.379      192.884       66.320        0.118      337.503        9.519      859.613
11/19/2013  07:59:00     -272.110     -105.821      -15.679      163.722      173.238       81.279    26804.883    30011.518     6606.330        7.444        3.171      291.962       75.709        0.067      337.518        9.542      859.642
11/19/2013  08:00:00     -239.665     -180.335       -0.003      190.555      141.191       81.801    36311.367    19934.831     6691.444        7.644        3.147      299.933       86.288        0.083      337.546        9.588      859.668
11/19/2013  08:01:00     -257.615     -122.920        1.689      173.632      119.550       67.602    30147.981    14292.196     4570.035        6.523        2.451      285.438       80.291        0.079      337.552        9.599      859.711
11/19/2013  08:02:00     -131.666     -131.897       12.096      165.285      139.040       66.574    27319.258    19331.985     4432.088        4.297        2.554      186.367       75.819        0.166      337.591        9.666      859.680
11/19/2013  08:03:00     -305.255      -66.958      -12.522      191.841      138.367       64.509    36803.095    19145.538     4161.364        7.895        3.005      312.513       68.966        0.049      337.568        9.626      859.718
11/19/2013  08:04:00     -178.022        4.475        0.237      178.174      117.338       65.184    31746.073    13768.103     4248.911        4.073        2.488      178.078       87.262        0.240      337.597        9.677      859.717
11/19/2013  08:05:00     -121.160      -76.416       -5.615      117.132      111.942       70.496    13719.846    12530.906     4969.756        2.588        1.561      143.245       41.409        0.084      337.610        9.700      859.710
11/19/2013  08:06:00      -52.092     -101.020       17.666       82.746      106.130       39.147     6846.965    11263.532     1532.450        1.643        0.982      113.660       48.505        0.182      337.652        9.771      859.756
11/19/2013  08:07:00     -299.131      -55.812      -38.277      111.960       71.156       46.173    12535.129     5063.174     2131.965        5.689        0.987      304.293       34.321        0.013      337.628        9.727      859.789
11/19/2013  08:08:00     -102.433        7.055       14.123       76.192       49.609       43.494     5805.281     2461.030     1891.704        1.045        0.508      102.675       43.575        0.180      337.650        9.765      859.808
11/19/2013  08:09:00      -22.307      -54.106       17.581       76.357       76.767       37.919     5830.396     5893.157     1437.865        0.845        0.658       58.524       48.809        0.696      337.685        9.827      859.872
11/19/2013  08:10:00      -45.743     -113.338      -19.209       51.283       92.186       35.758     2629.960     8498.207     1278.609        1.385        0.620      122.220       26.873        0.048      337.707        9.862      859.926
11/19/2013  08:11:00     -232.047     -216.941      -16.634      246.998       80.968       69.902    61008.033     6555.824     4886.267        8.680        3.623      317.662       96.433        0.092      337.736        9.909      859.881
11/19/2013  08:12:00     -222.132     -187.258      -15.393      188.931       91.525       66.536    35694.792     8376.836     4427.106        6.656        2.425      290.531       68.719        0.056      337.741        9.916      859.879
11/19/2013  08:13:00      -82.803      -73.951       -6.237       94.001      133.121       57.108     8836.183    17721.215     3261.285        2.109        1.491      111.019       57.862        0.272      337.837       10.079      859.892
11/19/2013  08:14:00      -20.264     -167.108        0.441      137.074      153.060       65.826    18789.165    23427.211     4333.090        3.743        2.327      168.332       48.932        0.084      337.743        9.921      859.967
11/19/2013  08:15:00     -166.574     -316.046      -38.275      255.558      155.814       76.172    65309.836    24278.138     5802.104       11.222        4.770      357.256       41.465        0.013      337.697        9.844      859.949
11/19/2013  08:16:00     -154.093      -71.346       12.156      140.079      106.331       59.685    19622.215    11306.214     3562.256        3.173        1.725      169.809       72.649        0.183      337.681        9.817      859.915
11/19/2013  08:17:00     -206.579     -158.038       -4.109      147.968      133.943       59.629    21894.649    17940.720     3555.566        5.552        2.170      260.098       62.362        0.057      337.696        9.842      859.958
11/19/2013  08:18:00      -65.783     -100.636       11.751      129.522      115.560       70.365    16776.000    13354.179     4951.285        2.483        1.754      120.229       68.428        0.324      337.811       10.035      859.966
11/19/2013  08:19:00      -98.489     -139.150       -5.516       83.631       89.470       48.356     6994.062     8004.905     2338.300        2.321        0.867      170.478       43.117        0.064      337.767        9.961      860.001
11/19/2013  08:20:00     -155.400     -100.850       -6.514       85.643       89.897       45.448     7334.713     8081.413     2065.483        2.592        0.874      185.256       33.671        0.033      337.722        9.886      860.002
11/19/2013  08:21:00     -320.527     -180.732      -11.303      159.291      118.526       73.199    25373.536    14048.452     5358.110        9.015        2.239      367.969       81.149        0.049      337.716        9.875      859.962
11/19/2013  08:22:00     -163.639     -180.618        2.622      114.676       71.959       41.349    13150.569     5178.071     1709.735        3.972        1.002      243.722       39.748        0.027      337.742        9.919      859.962
11/19/2013  08:23:00      -86.817     -136.391       13.504       96.920      105.936       61.035     9393.456    11222.354     3725.255        2.533        1.217      161.678       23.661        0.021      337.811       10.034      859.959
11/19/2013  08:24:00     -232.354     -153.486       -6.960      161.316      130.264       55.704    26022.788    16968.823     3102.948        6.184        2.305      278.471       51.530        0.034      337.772        9.970      859.946
11/19/2013  08:25:00      -74.228      -95.777      -11.031       67.561      104.693       27.887     4564.536    10960.658      777.663        1.555        0.815      121.174       24.389        0.041      337.870       10.134      859.958
11/19/2013  08:26:00       10.649       72.244        2.619       57.368       65.446       64.443     3291.103     4283.219     4152.914        0.853        0.586       73.025       38.161        0.273      337.857       10.114      859.931
11/19/2013  08:27:00     -151.809     -114.226       -4.112      126.226       70.399       51.636    15933.084     4956.042     2666.307        2.983        1.178      189.983       34.402        0.033      337.777        9.977      859.920
11/19/2013  08:28:00     -104.004     -178.041        7.109      112.454      104.011       58.100    12645.931    10818.354     3375.562        3.470        1.342      206.192       55.252        0.072      337.744        9.923      859.895
11/19/2013  08:29:00     -161.952     -145.014      -10.117      149.902       81.751       62.401    22470.649     6683.290     3893.931        4.020        1.652      217.388       69.963        0.104      337.751        9.935      859.884
11/19/2013  08:30:00     -138.774     -122.002       -7.909      138.663       72.661       47.977    19227.437     5279.559     2301.828        3.050        1.340      184.778       59.657        0.104      337.746        9.926      859.874
11/19/2013  08:31:00     -160.170     -166.440       12.492      183.857      103.804       55.758    33803.552    10775.204     3108.994        5.059        2.384      230.991       51.264        0.049      337.737        9.911      859.884
11/19/2013  08:32:00     -200.850      -99.452       11.219      135.959      127.180       60.711    18484.869    16174.848     3685.849        4.434        1.917      224.124       63.368        0.080      337.733        9.904      859.913
11/19/2013  08:33:00     -157.408      -98.041       -7.902       86.470       78.137       54.556     7476.990     6105.466     2976.410        2.550        0.828      185.444       48.977        0.070      337.733        9.906      859.967
11/19/2013  08:34:00      -35.358      -33.969       10.521       56.509       53.554       35.187     3193.224     2868.045     1238.152        0.491        0.365       49.031       35.251        0.517      337.816       10.046      860.009
11/19/2013  08:35:00       18.746     -118.574       15.134       75.777       94.371       54.874     5742.109     8905.877     3011.140        1.615        0.883      120.047       29.784        0.062      337.841       10.087      860.024
11/19/2013  08:36:00      -34.267        1.688       35.293       66.298      110.212       50.086     4395.371    12146.594     2508.604        1.073        0.953       34.308       48.889        2.031      337.797       10.012      860.024
11/19/2013  08:37:00      -61.205      -17.197        3.307       89.496       42.058       31.668     8009.446     1768.886     1002.863        0.741        0.539       63.575       40.690        0.410      337.736        9.912      859.982
11/19/2013  08:38:00     -179.637      -61.219       -5.468      119.522       59.633       45.299    14285.432     3556.090     2051.965        2.797        0.995      189.782       53.888        0.081      337.771        9.968      860.001
11/19/2013  08:39:00     -180.590      -23.730       13.697      143.354      117.945       75.833    20550.321    13911.000     5750.588        3.678        2.011      182.142       88.502        0.236      337.784        9.989      860.014
11/19/2013  08:40:00     -138.435       20.468       30.398      152.105       98.746       68.698    23135.949     9750.680     4719.379        2.905        1.880      139.940       75.041        0.288      337.799       10.015      859.992
11/19/2013  08:41:00     -261.891       -8.515      -14.820      130.076      117.580       59.274    16919.755    13825.035     3513.418        5.156        1.713      262.029       56.903        0.047      337.791       10.000      860.037
11/19/2013  08:42:00     -226.522      -41.988       -6.889      102.087       82.361       53.409    10421.784     6783.388     2852.524        3.659        1.003      230.380       54.107        0.055      337.773        9.970      860.027
11/19/2013  08:43:00     -109.303      -72.714       -6.261       62.124       61.043       26.775     3859.445     3726.292      716.924        1.279        0.415      131.280       27.761        0.045      337.819       10.050      859.987
11/19/2013  08:44:00      -62.021     -124.286       -5.184       81.611       76.512       48.581     6660.356     5854.087     2360.115        1.709        0.744      138.902       38.685        0.078      337.856       10.112      859.976
11/19/2013  08:45:00      -28.042      -60.965       21.556       45.826       58.076       34.319     2100.029     3372.809     1177.766        0.581        0.333       67.105       29.070        0.188      337.962       10.291      859.979
11/19/2013  08:46:00     -160.196      -17.635      -12.422      113.872       84.770       46.198    12966.861     7185.919     2134.296        2.420        1.114      161.163       46.151        0.082      337.887       10.163      859.985
11/19/2013  08:47:00      -67.613      -47.596       19.190       68.107       70.197       43.073     4638.585     4927.557     1855.256        0.931        0.571       82.685       44.941        0.295      337.932       10.241      860.000
11/19/2013  08:48:00       14.518       20.602       18.652       35.253       20.561       30.208     1242.793      422.753      912.506        0.178        0.129       25.203       22.031        0.764      338.021       10.389      860.007
11/19/2013  08:49:00      -30.584      -15.350       10.916       88.112       57.967       42.537     7763.702     3360.217     1809.373        0.711        0.647       34.220       40.238        1.383      337.990       10.338      860.008
11/19/2013  08:50:00      -58.420      -18.465        7.582       57.762       39.963       29.195     3336.402     1597.031      852.365        0.480        0.289       61.269       31.133        0.258      337.911       10.206      860.009
11/19/2013  08:51:00      -19.499     -154.028       13.953       87.748      103.467       41.822     7699.654    10705.344     1749.094        2.222        1.008      155.257       57.735        0.138      337.992       10.340      860.005
11/19/2013  08:52:00     -292.063     -260.914      -10.955      177.585      116.016       74.896    31536.553    13459.807     5609.345       10.204        2.530      391.634       78.249        0.040      337.889       10.164      859.987
11/19/2013  08:53:00     -283.245     -158.571        1.871      133.586      105.411       51.466    17845.306    11111.451     2648.772        6.848        1.580      324.611       52.760        0.026      337.907       10.193      859.990
11/19/2013  08:54:00     -159.483     -156.472       -7.618      138.058      104.160       55.055    19060.122    10849.342     3031.090        4.145        1.647      223.424       56.115        0.063      337.938       10.248      860.008
11/19/2013  08:55:00     -232.425     -153.625        9.519      165.809      127.146       75.779    27492.781    16166.064     5742.488        6.355        2.470      278.607       82.246        0.087      337.931       10.236      860.034
11/19/2013  08:56:00     -254.126     -141.002        0.394      134.539      117.798       58.370    18100.690    13876.303     3407.050        5.992        1.769      290.623       50.254        0.030      337.899       10.182      860.024
11/19/2013  08:57:00     -219.346     -157.116        4.878      163.068      126.740       71.569    26591.262    16063.049     5122.058        6.029        2.389      269.811       88.390        0.107      337.953       10.272      860.041
11/19/2013  08:58:00     -363.488     -204.637       -1.347      232.922      174.424       95.392    54252.476    30423.803     9099.546       13.387        4.689      417.133      109.520        0.069      337.912       10.203      860.019
11/19/2013  08:59:00     -321.566     -227.986      -10.751      176.495      176.301       83.146    31150.556    31082.089     6913.254       11.231        3.457      394.186       71.399        0.033      337.916       10.210      860.047
11/19/2013  09:00:00     -258.269     -234.776        4.908      227.028      171.513      121.282    51541.769    29416.879    14709.227       10.874        4.783      349.031      146.170        0.175      337.931       10.235      860.047
11/19/2013  09:01:00     -344.569     -211.968        3.493      160.720      132.463       89.942    25830.841    17546.507     8089.574       10.756        2.573      404.546       86.946        0.046      337.939       10.247      860.082
11/19/2013  09:02:00     -195.339      -48.452      -11.232      172.787       98.408       62.168    29855.414     9684.152     3864.818        4.201        2.170      201.258       62.896        0.098      338.008       10.366      860.109
11/19/2013  09:03:00     -269.959     -169.423       -2.009      153.961      126.156       66.820    23704.001    15915.225     4464.860        7.283        2.204      318.719       71.002        0.050      338.008       10.365      860.118
11/19/2013  09:04:00     -459.403     -312.888      -21.105      139.515      136.702       80.013    19464.554    18687.507     6402.094       17.697        2.228      555.832       72.420        0.017      337.995       10.343      860.140
11/19/2013  09:05:00     -352.933     -187.028        8.838      260.741      170.120       98.590    67986.071    28940.828     9720.070       13.311        5.332      399.426      130.703        0.107      338.041       10.420      860.142
11/19/2013  09:06:00     -394.450     -286.065      -18.195      216.623      148.204       89.186    46925.678    21964.491     7954.155       15.728        3.842      487.262      114.157        0.055      338.063       10.457      860.137
11/19/2013  09:07:00     -310.932     -237.443       -8.220      143.915      132.843       59.715    20711.507    17647.309     3565.902        9.752        2.096      391.226       58.434        0.022      338.022       10.389      860.170
11/19/2013  09:08:00     -188.782     -155.898       -9.349      144.503      120.162       62.700    20881.086    14438.836     3931.249        4.963        1.963      244.832       66.968        0.075      338.105       10.527      860.151
11/19/2013  09:09:00     -179.963     -103.444        1.418       89.410       83.043       53.935     7994.176     6896.137     2908.985        3.044        0.890      207.575       52.129        0.063      338.119       10.551      860.196
11/19/2013  09:10:00      -81.202     -132.310       16.502      120.954      124.865       56.688    14629.773    15591.341     3213.493        2.890        1.672      155.241       67.328        0.188      338.178       10.650      860.220
11/19/2013  09:11:00     -222.259     -113.291      -15.233      110.964       68.439       56.650    12313.001     4683.925     3209.235        4.133        1.010      249.467       47.647        0.036      338.193       10.674      860.201
11/19/2013  09:12:00      -69.889      -73.506        7.389      110.251       71.353       42.823    12155.238     5091.255     1833.849        1.471        0.954      101.427       27.005        0.071      338.419       11.056      860.152
11/19/2013  09:13:00      -63.533      -43.441       10.030       61.006       59.097       32.032     3721.691     3492.463     1026.036        0.713        0.412       76.965       24.900        0.105      338.435       11.085      860.131
11/19/2013  09:14:00      -93.982      -62.467       12.077       95.506       88.357       45.541     9121.392     7806.991     2073.961        1.594        0.950      112.848       32.509        0.083      338.321       10.891      860.100
11/19/2013  09:15:00     -245.684     -159.008       -3.118      125.070       91.689       53.969    15642.496     8406.808     2912.692        5.630        1.348      292.650       53.319        0.033      338.283       10.826      860.111
11/19/2013  09:16:00     -142.172     -136.305       -5.303      102.569       87.245       49.003    10520.316     7611.627     2401.292        2.967        1.027      196.957       43.173        0.048      338.240       10.754      860.082
11/19/2013  09:17:00     -128.555     -106.791        3.827      101.736       90.686       50.257    10350.282     8224.041     2525.777        2.452        1.055      167.125       40.201        0.058      338.319       10.888      860.054
11/19/2013  09:18:00     -263.812     -178.283        1.650      176.634      100.903       64.354    31199.541    10181.399     4141.488        7.344        2.276      318.405       81.014        0.065      338.279       10.820      860.041
11/19/2013  09:19:00     -133.932     -140.976        4.817       94.048       96.529       59.836     8844.984     9317.815     3580.321        2.978        1.087      194.453       52.424        0.073      338.366       10.966      860.086
11/19/2013  09:20:00     -108.450      -85.201       -2.213       97.378       81.118       47.834     9482.525     6580.206     2288.052        1.868        0.918      137.915       35.732        0.067      338.379       10.989      860.084
11/19/2013  09:21:00      -32.147      -93.235       13.954       93.363       58.421       45.760     8716.726     3413.021     2094.015        1.207        0.711       98.622       31.961        0.105      338.317       10.887      860.089
11/19/2013  09:22:00      -55.929     -189.234      -14.707      131.375      136.530       50.828    17259.395    18640.562     2583.489        3.881        1.924      197.326       21.770        0.012      338.178       10.650      860.094
11/19/2013  09:23:00     -167.866     -146.396       10.344      175.110      112.434       71.674    30663.502    12641.317     5137.173        4.907        2.422      222.735       73.974        0.110      338.201       10.690      860.125
11/19/2013  09:24:00     -125.448     -237.702      -18.060       96.256      122.734       59.432     9265.243    15063.698     3532.202        5.021        1.393      268.774       59.202        0.049      338.110       10.535      860.162
11/19/2013  09:25:00       10.402     -208.017       -5.175      206.075      172.718       79.958    42466.883    29831.608     6393.244        6.103        3.935      208.277       88.713        0.181      338.240       10.754      860.109
11/19/2013  09:26:00      -21.076     -129.833      -24.886      128.545      161.915       77.818    16523.746    26216.365     6055.599        3.335        2.440      131.533       72.626        0.305      338.235       10.745      860.088
11/19/2013  09:27:00       64.293     -186.004       28.431      166.718      172.536      100.866    27794.951    29768.605    10173.881        5.362        3.387      196.802      109.996        0.312      338.376       10.983      860.134
11/19/2013  09:28:00       22.630      -12.035      120.383      126.651      141.158       93.261    16040.479    19925.552     8697.633        2.990        2.233       25.632       93.599       13.335      338.500       11.191      860.105
11/19/2013  09:29:00       18.525      -91.240       53.871      138.040      145.056       80.593    19054.945    21041.187     6495.231        2.907        2.330       93.102       86.122        0.856      338.324       10.896      860.117
11/19/2013  09:30:00       75.745     -159.727       27.593       91.118      127.185       92.196     8302.432    16176.137     8500.181        3.249        1.649      176.777       85.301        0.233      338.335       10.915      860.152
11/19/2013  09:31:00       13.054     -143.420      -16.814       59.511       73.101       51.610     3541.598     5343.727     2663.564        1.628        0.577      144.013       42.253        0.086      338.459       11.123      860.181
11/19/2013  09:32:00      -36.261       -6.264       21.394       97.090       68.828       49.994     9426.524     4737.330     2499.360        0.923        0.833       36.798       50.252        1.865      338.515       11.218      860.223
11/19/2013  09:33:00        1.492        8.490       37.906       32.092       38.836       23.826     1029.872     1508.231      567.701        0.231        0.155        8.620       18.883        4.799      338.690       11.512      860.219
11/19/2013  09:34:00      -50.951      -30.525       26.680      100.064       84.647       60.807    10012.781     7165.173     3697.547        1.255        1.044       59.395       58.123        0.958      338.546       11.271      860.219
11/19/2013  09:35:00      -58.839      -35.265       -3.971       79.606       49.726       27.973     6337.146     2472.653      782.492        0.715        0.480       68.597       28.302        0.170      338.496       11.186      860.246
11/19/2013  09:36:00     -134.232      -37.241      -24.852       49.519       51.713       26.695     2452.103     2674.225      712.622        1.293        0.292      139.302       11.961        0.007      338.406       11.035      860.256
11/19/2013  09:37:00     -115.689      -13.336       26.004      114.124       65.355       47.650    13024.320     4271.224     2270.528        1.690        0.978      116.455       63.732        0.299      338.550       11.276      860.273
11/19/2013  09:38:00     -147.331       28.355        3.547       77.504       54.519       39.751     6006.848     2972.274     1580.169        1.654        0.528      150.035       37.744        0.063      338.470       11.143      860.292
11/19/2013  09:39:00     -123.401      -43.427       -3.604       60.641       57.757       36.878     3677.367     3335.837     1360.023        1.275        0.419      130.819       28.559        0.048      338.494       11.184      860.288
11/19/2013  09:40:00     -131.918     -141.095       -3.382       68.936       62.014       40.145     4752.151     3845.737     1611.639        2.376        0.510      193.158       33.706        0.030      338.362       10.959      860.278
11/19/2013  09:41:00      -79.287     -169.581        3.142       74.237       92.720       43.283     5511.110     8597.037     1873.391        2.551        0.799      187.201       47.106        0.063      338.217       10.717      860.253
11/19/2013  09:42:00     -127.483     -131.474       -1.721       53.997       91.213       40.646     2915.670     8319.812     1652.079        2.321        0.644      183.132       38.808        0.045      338.377       10.986      860.205
11/19/2013  09:43:00     -128.781      -66.924       -9.121       74.884       69.317       50.514     5607.674     4804.820     2551.666        1.705        0.648      145.132       40.556        0.078      338.410       11.042      860.161
11/19/2013  09:44:00     -130.025      -39.160        2.650       55.978       93.702       36.510     3133.527     8780.089     1332.958        1.584        0.662      135.794       41.646        0.094      338.427       11.070      860.158
11/19/2013  09:45:00      -65.674      -75.091       -0.007       94.301       45.492       37.321     8892.621     2069.552     1392.856        1.115        0.618       99.758       30.629        0.094      338.508       11.207      860.168
11/19/2013  09:46:00     -134.495     -122.370        4.905      115.815       68.025       44.611    13413.103     4627.463     1990.100        2.656        1.002      181.833       52.985        0.085      338.511       11.210      860.193
11/19/2013  09:47:00     -117.866     -236.453       -1.981       79.666       87.498       46.261     6346.748     7655.846     2140.052        4.297        0.807      264.201       47.997        0.033      338.369       10.969      860.188
11/19/2013  09:48:00       25.594     -252.770      -23.307      143.371      112.462       71.315    20555.296    12647.738     5085.758        5.168        1.914      254.063       48.918        0.037      338.540       11.257      860.173
11/19/2013  09:49:00     -114.348      -76.547       17.278       97.964      113.342       56.387     9596.927    12846.395     3179.504        2.242        1.281      137.605       56.538        0.169      338.670       11.477      860.177
11/19/2013  09:50:00     -319.498     -162.135        1.793      161.638      112.771       65.216    26126.779    12717.223     4253.126        8.572        2.155      358.283       71.048        0.039      338.577       11.320      860.214
11/19/2013  09:51:00      -59.735     -229.012      -12.006      137.137       80.206       56.388    18806.561     6432.957     3179.571        4.228        1.421      236.674       37.363        0.025      338.491       11.176      860.212
11/19/2013  09:52:00     -315.463     -225.473      -14.083      112.952       87.672       54.331    12758.059     7686.451     2951.880        8.697        1.170      387.756       61.619        0.025      338.669       11.474      860.163
11/19/2013  09:53:00      -85.068      -67.854       22.096      118.635       92.853       58.081    14074.201     8621.720     3373.357        1.919        1.303      108.815       70.429        0.419      338.884       11.837      860.152
11/19/2013  09:54:00     -111.511      -69.807       10.450      105.138       62.172       46.021    11053.961     3865.331     2117.888        1.722        0.852      131.559       55.806        0.180      338.949       11.946      860.160
11/19/2013  09:55:00     -139.401     -103.016        0.667      110.013       75.745       46.979    12102.910     5737.278     2207.047        2.504        1.002      173.334       37.002        0.046      338.941       11.932      860.167
11/19/2013  09:56:00     -125.961     -114.453        4.961      156.544       83.769       59.243    24506.018     7017.313     3509.753        3.200        1.752      170.193       70.557        0.172      339.016       12.058      860.189
11/19/2013  09:57:00     -116.834     -100.087      -22.441      101.462       65.630       40.195    10294.506     4307.271     1615.676        2.019        0.811      153.842       32.947        0.046      338.989       12.013      860.195
11/19/2013  09:58:00     -233.022     -244.933      -11.483      239.310      138.052       72.533    57269.237    19058.473     5261.082        9.799        4.079      338.071       85.933        0.065      338.982       12.001      860.204
11/19/2013  09:59:00     -330.282     -240.565       -0.789      218.059      165.577       93.328    47549.871    27415.886     8710.025       12.530        4.184      408.605      112.977        0.076      338.907       11.874      860.202
11/19/2013  10:00:00     -317.496     -231.928       -5.055      214.600      158.814       97.442    46053.230    25221.955     9494.857       11.768        4.039      393.184      111.625        0.081      338.872       11.815      860.195
11/19/2013  10:01:00     -173.289     -147.492        2.569      147.651       94.402       61.832    21800.762     8911.744     3823.198        4.316        1.727      227.559       72.158        0.101      338.906       11.874      860.198
11/19/2013  10:02:00     -193.780     -123.391        4.678      157.923      119.797       69.337    24939.530    14351.282     4807.594        4.844        2.205      229.730       75.587        0.108      338.987       12.008      860.168
11/19/2013  10:03:00     -216.152     -168.077       -2.544      118.266       96.456       61.900    13986.810     9303.759     3831.611        5.104        1.356      273.810       52.305        0.036      338.703       11.533      860.183
11/19/2013  10:04:00     -196.839     -125.816       -3.558       91.020       68.839       49.279     8284.617     4738.746     2428.372        3.502        0.773      233.614       40.887        0.031      338.725       11.568      860.222
11/19/2013  10:05:00     -102.735      -91.228        0.444       82.225       80.517       40.998     6761.030     6482.966     1680.863        1.690        0.746      137.394       34.859        0.064      338.862       11.800      860.244
11/19/2013  10:06:00     -106.638     -124.160       -0.055       60.913       66.316       32.805     3710.351     4397.759     1076.177        1.798        0.459      163.668       30.549        0.035      338.937       11.926      860.259
11/19/2013  10:07:00     -165.045     -133.779       -6.629      112.434       85.854       46.999    12641.313     7370.874     2208.910        3.370        1.111      212.454       55.006        0.067      338.935       11.923      860.254
11/19/2013  10:08:00     -248.628      -61.391        0.492      132.298      100.620       54.014    17502.778    10124.366     2917.550        4.806        1.527      256.095       57.588        0.051      338.966       11.972      860.262
11/19/2013  10:09:00     -180.144     -173.924        0.197      138.654      160.642       59.499    19225.012    25805.699     3540.143        5.563        2.429      250.403       72.357        0.083      339.002       12.035      860.257
11/19/2013  10:10:00     -365.530     -244.895        8.627      219.788      153.106       94.546    48306.881    23441.470     8938.977       13.716        4.034      439.984      124.216        0.080      338.926       11.906      860.220
11/19/2013  10:11:00     -210.190     -214.151      -19.264      197.309       89.282       56.864    38930.912     7971.273     3233.558        7.026        2.507      300.067       18.290        0.004      339.001       12.031      860.202
11/19/2013  10:12:00     -104.363      -56.443       -7.107       93.592       65.290       34.601     8759.551     4262.803     1197.264        1.417        0.711      118.648       32.667        0.076      339.038       12.097      860.247
11/19/2013  10:13:00     -137.521     -101.356        0.847       67.754       59.535       29.553     4590.588     3544.385      873.404        1.910        0.450      170.836       31.059        0.033      338.922       11.901      860.279
11/19/2013  10:14:00     -113.041     -107.468      -13.526       65.412       61.494       34.895     4278.789     3781.468     1217.679        1.689        0.464      155.974       32.073        0.042      338.840       11.764      860.294
11/19/2013  10:15:00     -130.636      -15.021       19.096      112.125       71.162       52.078    12571.955     5063.982     2712.133        1.900        1.017      131.497       55.864        0.180      338.966       11.975      860.270
11/19/2013  10:16:00     -105.991     -108.253      -15.518       65.800       64.659       43.756     4329.584     4180.843     1914.587        1.681        0.521      151.502       30.593        0.041      338.892       11.852      860.249
11/19/2013  10:17:00     -101.761      -64.290        7.054       77.104       93.396       45.999     5945.081     8722.825     2115.882        1.566        0.839      120.369       42.621        0.125      338.891       11.850      860.229
11/19/2013  10:18:00     -180.258     -119.767       -7.303       56.015       84.004       32.444     3137.645     7056.630     1052.622        2.907        0.562      216.419       20.799        0.009      338.828       11.742      860.229
11/19/2013  10:19:00     -177.297      -62.192       -2.306       83.744       59.315       37.108     7013.015     3518.245     1376.998        2.361        0.595      187.888       42.998        0.052      338.901       11.866      860.199
11/19/2013  10:20:00     -139.600      -95.952        4.133      102.377       76.719       53.527    10481.062     5885.841     2865.090        2.397        0.962      169.396       56.651        0.112      338.866       11.805      860.164
11/19/2013  10:21:00     -203.630     -116.407        3.980      103.690       99.216       49.793    10751.657     9843.804     2479.334        3.905        1.154      234.554       46.976        0.040      338.936       11.925      860.195
11/19/2013  10:22:00     -210.488     -179.483        6.542      153.483      151.883       71.318    23556.953    23068.391     5086.240        6.413        2.586      276.621       71.011        0.066      338.820       11.729      860.184
11/19/2013  10:23:00     -302.376     -100.775        3.541      187.148      133.195       83.846    35024.366    17740.874     7030.189        8.069        2.990      318.727       94.002        0.087      338.829       11.743      860.102
11/19/2013  10:24:00     -411.246     -148.649       -2.800      133.810      161.293       69.347    17905.185    26015.430     4808.945       11.997        2.436      437.286       64.943        0.022      338.902       11.866      860.066
11/19/2013  10:25:00     -324.110      -67.820      -11.766      144.683      116.194       66.511    20933.102    13501.144     4423.674        7.431        1.943      331.130       70.163        0.045      338.902       11.865      860.092
11/19/2013  10:26:00     -121.066     -281.794        4.219       94.137      137.334       55.630     8861.812    18860.691     3094.676        6.244        1.541      306.699       40.831        0.018      338.826       11.738      860.123
11/19/2013  10:27:00      -72.254     -215.300       14.659      113.607      165.508       66.811    12906.509    27392.993     4463.739        4.827        2.238      227.101       44.841        0.039      338.977       11.995      860.103
11/19/2013  10:28:00     -141.632     -167.062       22.990      117.349       92.515       47.792    13770.734     8559.082     2284.084        3.655        1.231      219.019       37.103        0.029      338.960       11.964      860.110
11/19/2013  10:29:00     -106.358     -152.270       -8.098      110.517      155.859       59.371    12214.017    24291.890     3524.878        3.729        2.002      185.737       59.221        0.102      338.971       11.983      860.087
11/19/2013  10:30:00     -172.920     -199.496        0.252      157.998      137.985       65.637    24963.287    19039.789     4308.174        5.900        2.416      264.008       66.531        0.064      339.005       12.040      860.075
11/19/2013  10:31:00     -238.123     -118.031        7.305      141.452       81.915       57.438    20008.763     6710.123     3299.149        5.035        1.501      265.770       54.869        0.043      339.089       12.180      860.070
11/19/2013  10:32:00     -498.248     -153.226       -5.891      217.922      135.846       82.154    47490.163    18454.170     6749.269       17.221        3.635      521.277       85.976        0.027      338.944       11.935      860.084
11/19/2013  10:33:00     -346.110     -119.756       -1.936      182.063      176.779       83.330    33146.928    31250.744     6943.807       10.273        3.567      366.243       82.731        0.051      339.050       12.115      860.051
11/19/2013  10:34:00     -331.044      -83.728       -3.835      136.791      112.886       75.471    18711.763    12743.268     5695.804        7.688        1.858      341.468       63.759        0.035      339.168       12.314      860.077
11/19/2013  10:35:00     -355.239     -112.560       -5.538      163.685      104.067       61.625    26792.632    10829.944     3797.658        9.015        2.071      372.645       57.821        0.024      339.154       12.289      860.066
11/19/2013  10:36:00     -277.610     -202.458        4.909      176.575      122.684       66.917    31178.698    15051.361     4477.853        8.438        2.535      343.594       71.248        0.043      339.118       12.230      860.060
11/19/2013  10:37:00     -277.170     -193.760      -22.916      136.240      133.582       61.978    18561.416    17844.069     3841.271        7.756        2.012      338.181       66.187        0.038      339.123       12.239      860.024
11/19/2013  10:38:00     -335.254     -299.457      -22.287      210.463      175.158      102.205    44294.774    30680.255    10445.909       14.398        4.271      449.521      122.456        0.074      339.126       12.243      859.980
11/19/2013  10:39:00     -277.018      -57.309        6.042      224.466      145.879       96.209    50385.064    21280.811     9256.077        8.047        4.046      282.884      113.198        0.160      339.137       12.263      859.952
11/19/2013  10:40:00     -176.134       19.874       17.522      148.185       91.081       73.321    21958.752     8295.717     5376.040        3.367        1.782      177.251       83.906        0.224      339.304       12.544      859.949
11/19/2013  10:41:00     -138.464      -32.720       -2.570      135.176      100.337       52.365    18272.664    10067.420     2742.135        2.566        1.554      142.277       51.780        0.132      339.335       12.594      859.941
11/19/2013  10:42:00     -154.972      -53.730       25.685      171.265      113.352       66.634    29331.833    12848.591     4440.063        3.708        2.331      164.022       70.231        0.183      339.336       12.598      859.915
11/19/2013  10:43:00        3.766       45.122       93.915       40.865       56.949       50.551     1669.977     3243.194     2555.452        0.917        0.373       45.279       18.144        0.161      339.499       12.874      859.893
11/19/2013  10:44:00      -32.359      -49.464       -2.071      132.690       71.290       33.798    17606.745     5082.320     1142.307        1.366        1.192       59.108       42.841        0.525      339.332       12.592      859.915
11/19/2013  10:45:00      -80.897      -26.976       27.135       82.397       72.591       43.056     6789.266     5269.434     1853.815        1.096        0.696       85.276       49.726        0.340      339.378       12.669      859.967
11/19/2013  10:46:00      -89.550     -158.348       -8.663       66.333       63.418       42.509     4400.095     4021.820     1807.050        2.170        0.511      181.915       36.707        0.041      339.143       12.273      859.974
11/19/2013  10:47:00     -115.530      -76.006       -9.375       60.701       74.493       29.196     3684.638     5549.204      852.404        1.465        0.504      138.289       30.104        0.047      338.954       11.957      859.994
11/19/2013  10:48:00      -92.973      -65.027        1.031       91.255       86.169       31.751     8327.432     7425.062     1008.126        1.481        0.838      113.458       30.420        0.072      339.184       12.343      859.994
11/19/2013  10:49:00     -341.926      -57.565      -22.035      146.531      137.623       66.238    21471.191    18940.036     4387.409        8.275        2.240      346.738       69.108        0.040      339.215       12.394      859.988
11/19/2013  10:50:00     -243.149      -15.762       18.699      162.892      110.149       71.896    26533.788    12132.797     5169.042        5.177        2.192      243.659       84.596        0.121      339.236       12.429      859.996
11/19/2013  10:51:00     -217.762      -55.239        7.457      128.833      107.540       56.330    16597.976    11564.931     3173.118        4.093        1.567      224.659       62.571        0.078      339.289       12.516      859.945
11/19/2013  10:52:00     -324.568     -141.341      -23.928      186.283      118.495       77.959    34701.198    14041.035     6077.659        9.035        2.741      354.008       73.751        0.043      339.161       12.304      859.884
11/19/2013  10:53:00     -372.915     -164.705       -9.486      157.009      132.234       79.873    24651.916    17485.861     6379.642       10.739        2.426      407.668       82.840        0.041      339.125       12.242      859.847
11/19/2013  10:54:00     -438.876     -102.168      -17.745      170.551      148.384       69.288    29087.780    22017.912     4800.867       12.962        2.795      450.611       70.284        0.024      339.160       12.301      859.880
11/19/2013  10:55:00     -238.466      -55.177       -9.588      135.956       92.942       49.526    18483.996     8638.221     2452.783        4.478        1.479      244.767       46.935        0.037      339.242       12.440      859.916
11/19/2013  10:56:00     -121.596      -40.690       11.340      115.809       88.610       50.085    13411.704     7851.751     2508.510        2.017        1.189      128.224       58.342        0.207      339.394       12.695      859.970
11/19/2013  10:57:00     -170.115      -75.030       -1.980       94.198       78.581       42.835     8873.250     6174.977     1834.845        2.572        0.844      185.926       41.248        0.049      339.335       12.596      859.971
11/19/2013  10:58:00     -360.522      -92.272      -18.594      144.169      114.388       58.805    20784.580    13084.611     3457.992        8.807        1.866      372.143       57.478        0.024      339.335       12.595      859.968
11/19/2013  10:59:00     -386.197     -187.922      -19.241      205.153      146.164       72.680    42087.824    21363.828     5282.339       12.677        3.437      429.492       83.793        0.038      339.219       12.401      859.941
11/19/2013  11:00:00     -271.703      -56.516      -15.922      142.085      110.957       63.828    20188.135    12311.362     4074.014        5.691        1.829      277.518       68.134        0.060      339.225       12.409      859.960
11/19/2013  11:01:00     -454.357     -184.933      -17.284      149.659      139.025       77.594    22397.784    19327.932     6020.903       14.433        2.387      490.551       67.341        0.019      339.143       12.271      859.919
11/19/2013  11:02:00     -373.518      -94.907      -19.294      208.194      155.756       77.838    43344.539    24259.810     6058.781       11.126        3.683      385.387       75.020        0.038      339.152       12.287      859.910
11/19/2013  11:03:00     -272.534     -129.853        2.422      117.284       99.729       57.163    13755.581     9945.799     3267.624        5.905        1.348      301.888       57.314        0.036      339.249       12.450      859.914
11/19/2013  11:04:00     -436.020     -194.645       -6.324      193.333      178.310       97.228    37377.493    31794.570     9453.270       15.332        3.931      477.494       77.922        0.027      339.057       12.127      859.861
11/19/2013  11:05:00     -472.664     -131.321      -25.187      207.718      158.369       85.427    43146.644    25080.814     7297.767       15.839        3.776      490.567       96.986        0.039      338.993       12.019      859.830
11/19/2013  11:06:00     -283.056     -102.826       11.758      233.852      172.169      121.102    54686.669    29642.309    14665.695        9.489        4.950      301.154      137.418        0.208      339.057       12.128      859.811
11/19/2013  11:07:00     -473.063     -144.548      -13.332      130.431      139.308       74.675    17012.314    19406.636     5576.387       14.342        2.100      494.654       68.519        0.019      338.983       12.003      859.806
11/19/2013  11:08:00     -154.278      -51.209        8.933      167.370      116.452       55.044    28012.856    13561.159     3029.820        3.554        2.230      162.555       51.431        0.100      339.212       12.389      859.788
11/19/2013  11:09:00     -187.268      -82.923       -2.095      130.289      127.631       73.301    16975.194    16289.632     5373.045        4.029        1.932      204.806       74.248        0.131      339.228       12.416      859.761
11/19/2013  11:10:00     -308.794       32.530      -18.303      129.347       84.002       50.111    16730.564     7056.364     2511.077        6.152        1.315      310.503       52.674        0.029      339.206       12.379      859.722
11/19/2013  11:11:00     -195.946      -34.836       -4.453       97.864       70.763       57.491     9577.387     5007.390     3305.200        2.876        0.894      199.018       47.871        0.058      339.347       12.616      859.711
11/19/2013  11:12:00     -231.172      -97.288      -14.137      159.175      108.942       50.253    25336.537    11868.304     2525.315        5.141        1.987      250.809       44.156        0.031      339.226       12.411      859.665
11/19/2013  11:13:00     -435.703      -60.273      -21.060      200.287      105.972       79.631    40114.726    11230.109     6341.061       12.579        2.884      439.852       95.563        0.047      339.232       12.421      859.610
11/19/2013  11:14:00     -306.414     -108.825        2.646      193.543      162.487       73.931    37458.941    26401.938     5465.720        8.752        3.466      325.165       89.982        0.077      339.227       12.412      859.579
11/19/2013  11:15:00     -400.318      -18.887      -12.680      162.248      117.646       85.834    26324.433    13840.692     7367.543       10.414        2.377      400.763       71.945        0.032      339.181       12.335      859.566
11/19/2013  11:16:00     -502.679      -61.713      -33.151      178.797      205.902       84.873    31968.473    42395.561     7203.407       16.956        4.078      506.453       85.884        0.029      339.013       12.053      859.532
11/19/2013  11:17:00     -284.201      -76.195        5.809      188.592      126.408       76.397    35567.028    15979.084     5836.547        7.198        2.869      294.238       93.508        0.101      339.060       12.131      859.510
11/19/2013  11:18:00     -468.462      -46.791      -14.841      256.757      146.337       99.478    65924.389    21414.391     9895.799       15.953        4.862      470.793      123.052        0.068      338.987       12.009      859.503
11/19/2013  11:19:00     -269.006     -186.924        0.834      142.915      137.457       79.695    20424.577    18894.365     6351.341        7.648        2.284      327.574       79.472        0.059      339.047       12.110      859.495
11/19/2013  11:20:00     -301.721     -238.379       -2.781      259.966      224.494      104.062    67582.392    50397.582    10828.916       13.831        6.440      384.526      127.662        0.110      339.050       12.116      859.489
11/19/2013  11:21:00     -485.719     -239.057      -13.534      234.927      170.082       94.724    55190.487    28927.842     8972.729       19.315        4.655      541.360      100.988        0.035      338.911       11.881      859.458
11/19/2013  11:22:00     -307.545     -155.642      -12.887      205.824      151.382       62.312    42363.363    22916.637     3882.743        9.405        3.458      344.685       79.147        0.053      339.006       12.042      859.469
11/19/2013  11:23:00     -546.433     -159.706      -16.292      327.867      244.317      119.486   107496.518    59690.965    14276.917       25.288        9.073      569.293      154.996        0.074      338.974       11.986      859.411
11/19/2013  11:24:00     -307.572     -168.542       14.792      221.401      185.467       96.482    49018.340    34398.055     9308.719       10.796        4.636      350.723      103.369        0.087      339.035       12.090      859.460
11/19/2013  11:25:00     -291.116     -203.000       -5.640      125.785      125.579       66.888    15821.967    15770.092     4474.050        8.102        1.803      354.905       73.366        0.043      339.027       12.077      859.469
11/19/2013  11:26:00     -371.369     -150.804      -22.175      151.756      130.668       70.572    23029.885    17074.239     4980.412       10.311        2.254      400.820       52.499        0.017      339.045       12.106      859.456
11/19/2013  11:27:00     -383.061     -200.034       -6.637      251.902      142.155       89.583    63454.790    20208.062     8025.090       13.922        4.584      432.145      104.180        0.058      339.098       12.195      859.484
11/19/2013  11:28:00     -280.450     -209.934       16.494      262.987      188.533      103.768    69162.161    35544.728    10767.785       11.921        5.774      350.321      110.992        0.100      339.198       12.364      859.438
11/19/2013  11:29:00     -333.861     -256.946        6.854      274.050      170.517      105.864    75103.351    29076.058    11207.211       14.644        5.769      421.289      136.539        0.105      339.235       12.427      859.446
11/19/2013  11:30:00     -309.853     -207.684       -2.611      189.779      170.674       81.683    36016.103    29129.644     6672.150       10.547        3.591      373.017       92.356        0.061      339.255       12.461      859.431
11/19/2013  11:31:00     -258.761      -77.012       -0.555      134.859      119.619       69.766    18187.034    14308.609     4867.353        5.512        1.868      269.977       71.725        0.071      339.374       12.662      859.453
11/19/2013  11:32:00      -99.811      -91.252        9.006      137.617       67.816       47.193    18938.334     4599.042     2227.212        2.206        1.288      135.237       53.077        0.154      339.442       12.776      859.444
11/19/2013  11:33:00     -226.952        0.070        1.701      112.515      111.036       46.108    12659.545    12328.904     2125.987        3.931        1.356      226.952       37.876        0.028      339.422       12.741      859.436
11/19/2013  11:34:00     -343.444      -46.146       -2.645      194.254      121.651       83.758    37734.633    14799.039     7015.375        8.981        2.977      346.530       90.844        0.069      339.497       12.869      859.397
11/19/2013  11:35:00     -232.598      -68.801        3.402      212.798      139.274       72.724    45283.194    19397.194     5288.794        6.439        3.498      242.560       70.336        0.084      339.526       12.918      859.409
11/19/2013  11:36:00     -475.021     -145.349      -10.810      270.914      137.084       89.666    73394.542    18792.151     8039.927       17.354        5.011      496.760      112.361        0.051      339.176       12.328      859.394
11/19/2013  11:37:00     -329.046     -159.935      -12.175      165.569      149.877       85.689    27412.980    22463.129     7342.632        9.560        2.861      365.856       84.074        0.053      339.281       12.503      859.359
11/19/2013  11:38:00     -318.409     -172.364       -4.881      194.839      152.282       81.835    37962.221    23189.796     6697.000        9.947        3.392      362.069       84.592        0.055      339.194       12.358      859.380
11/19/2013  11:39:00     -343.276     -222.716      -23.200      214.535      202.076       93.068    46025.465    40834.603     8661.577       13.173        4.776      409.195      104.484        0.065      339.142       12.271      859.361
11/19/2013  11:40:00     -406.386     -171.302      -30.591      208.696      166.705       88.378    43553.831    27790.503     7810.744       13.728        3.958      441.015       93.553        0.045      339.112       12.219      859.352
11/19/2013  11:41:00     -402.804     -105.189      -21.642      217.141      175.656       85.013    47150.388    30854.986     7227.249       12.949        4.262      416.312      103.505        0.062      339.136       12.259      859.355
11/19/2013  11:42:00     -281.702      -24.757        9.426      298.917      153.029       76.768    89351.327    23417.971     5893.311        9.934        5.933      282.788      119.181        0.178      339.245       12.445      859.354
11/19/2013  11:43:00     -498.449     -218.258      -22.047      190.601      192.476       95.862    36328.820    37047.044     9189.590       18.955        4.128      544.140       97.720        0.032      339.067       12.144      859.356
11/19/2013  11:44:00     -331.813      -56.787       12.741      216.515      185.993       84.273    46878.558    34593.399     7102.001       10.101        4.429      336.637       96.593        0.082      339.177       12.329      859.376
11/19/2013  11:45:00     -466.854      -13.492      -27.624      227.790      230.413       99.631    51888.341    53090.024     9926.238       16.688        5.745      467.049      111.291        0.057      339.044       12.106      859.385
11/19/2013  11:46:00     -296.458        5.990       -2.534      261.912      134.634       98.685    68597.915    18126.361     9738.777        9.218        4.823      296.518      132.667        0.200      339.179       12.333      859.376
11/19/2013  11:47:00     -264.558       -6.087        9.649      183.789      127.768       76.429    33778.246    16324.568     5841.355        6.302        2.797      264.628       90.797        0.118      339.209       12.382      859.369
11/19/2013  11:48:00     -189.609      -62.128       11.659      126.177      100.855       49.356    15920.648    10171.797     2435.986        3.423        1.426      199.528       49.385        0.061      339.309       12.552      859.355
11/19/2013  11:49:00     -384.530     -259.877      -10.420      220.472      154.624       95.028    48607.965    23908.701     9030.247       14.851        4.077      464.112      108.262        0.054      339.348       12.617      859.326
11/19/2013  11:50:00     -392.974     -293.109      -17.393      211.293      157.972      104.181    44644.867    24955.035    10853.782       16.053        4.023      490.246      101.697        0.043      339.273       12.490      859.349
11/19/2013  11:51:00     -345.432      -43.508       -5.792      249.845      162.877       84.161    62422.486    26528.863     7083.110       10.862        4.802      348.162       97.604        0.079      339.282       12.506      859.348
11/19/2013  11:52:00     -330.168      -88.413       -9.651      192.653      139.642       65.138    37115.356    19499.933     4242.934        8.888        3.043      341.801       64.239        0.035      339.300       12.537      859.372
11/19/2013  11:53:00     -280.529      -89.691       -4.592      188.727      148.967       93.965    35617.802    22191.113     8829.405        7.669        3.332      294.518       96.534        0.107      339.322       12.571      859.387
11/19/2013  11:54:00     -424.958      -82.293      -11.311      155.240      140.322       78.578    24099.396    19690.346     6174.567       11.872        2.498      432.853       81.802        0.036      339.192       12.353      859.394
11/19/2013  11:55:00     -310.692      -45.808        3.294      249.246      140.803       81.605    62123.744    19825.531     6659.370        9.361        4.430      314.051      113.900        0.132      339.208       12.381      859.380
11/19/2013  11:56:00     -339.176      -78.212        3.068      180.825      123.904       81.189    32697.712    15352.193     6591.726        8.789        2.732      348.077      103.273        0.088      339.096       12.193      859.343
11/19/2013  11:57:00     -191.049     -102.143       15.132      132.807      113.995       66.632    17637.638    12994.804     4439.887        4.111        1.754      216.640       82.526        0.145      339.266       12.480      859.363
11/19/2013  11:58:00     -406.430      -45.129      -24.305      232.393      139.439       88.365    54006.364    19443.265     7808.349       12.452        4.063      408.928      105.549        0.067      339.159       12.299      859.373
11/19/2013  11:59:00     -410.525     -107.322       -8.996      197.141      214.205       95.250    38864.421    45883.818     9072.589       13.696        4.691      424.321      101.952        0.058      339.143       12.270      859.347
11/19/2013  12:00:00     -415.906     -142.178      -29.094      217.905      188.722       83.728    47482.446    35615.943     7010.327       14.206        4.505      439.537       84.805        0.037      339.122       12.236      859.376
11/19/2013  12:01:00     -390.390      -50.600      -39.386      174.029      129.818       68.715    30286.119    16852.653     4721.780       10.418        2.593      393.656       70.620        0.032      339.216       12.395      859.390
11/19/2013  12:02:00     -403.000     -181.708      -13.266      227.298      175.084       92.408    51664.255    30654.249     8539.248       14.321        4.543      442.071      121.504        0.076      339.245       12.443      859.395
11/19/2013  12:03:00     -348.013      -75.551      -19.984      189.146      155.348       75.219    35776.144    24133.105     5657.968        9.638        3.278      356.119       99.257        0.078      339.248       12.449      859.386
11/19/2013  12:04:00     -334.591      -81.197       -9.919      204.481      185.739       89.197    41812.626    34498.915     7956.020       10.144        4.213      344.303       98.839        0.082      339.199       12.364      859.352
11/19/2013  12:05:00     -279.749      -53.245       -2.981      231.077      159.302       78.517    53396.604    25377.189     6164.974        8.300        4.247      284.771      108.857        0.146      339.316       12.564      859.336
11/19/2013  12:06:00     -273.112      -12.827        8.785      162.023      146.069       78.597    26251.334    21336.123     6177.475        6.429        2.688      273.413       81.192        0.088      339.262       12.473      859.310
11/19/2013  12:07:00     -289.779     -256.449      -17.290      192.117      201.824       89.422    36908.753    40732.739     7996.311       11.782        4.282      386.960       95.675        0.061      339.264       12.475      859.266
11/19/2013  12:08:00     -218.885     -186.729        1.867      175.329       99.891       76.824    30740.123     9978.184     5901.987        6.469        2.331      287.712       80.724        0.079      339.293       12.525      859.240
11/19/2013  12:09:00     -132.618      -94.515       23.584      159.788      145.751       73.956    25532.238    21243.400     5469.457        3.965        2.612      162.852       95.459        0.344      339.367       12.649      859.242
11/19/2013  12:10:00     -400.148     -101.575      -19.984      172.189      140.751       61.605    29649.182    19810.918     3795.175       11.203        2.663      412.838       55.323        0.018      339.095       12.191      859.218
11/19/2013  12:11:00     -151.620      -68.858       26.016      130.665      111.788       75.542    17073.334    12496.617     5706.588        3.183        1.764      166.523       66.677        0.160      339.223       12.407      859.208
11/19/2013  12:12:00      -45.653      -21.616        8.492       95.370      102.670       57.236     9095.401    10541.231     3275.905        1.276        1.146       50.512       37.151        0.541      339.350       12.622      859.206
11/19/2013  12:13:00     -122.112      -26.896       19.576      152.315       91.083       68.638    23199.735     8296.074     4711.232        2.611        1.810      125.039       63.158        0.255      339.356       12.631      859.180
11/19/2013  12:14:00     -257.404     -101.102      -28.811      157.106      150.813       79.798    24682.445    22744.576     6367.798        6.554        2.690      276.547       79.947        0.084      339.288       12.514      859.132
11/19/2013  12:15:00      -83.786      -46.236        0.903      127.884      113.979       73.870    16354.345    12991.123     5456.827        2.197        1.740       95.697       81.544        0.726      339.417       12.734      859.124
11/19/2013  12:16:00     -152.904      -43.863       13.360      205.778      118.199       76.144    42344.788    13971.063     5797.917        4.379        3.106      159.071       86.348        0.295      339.356       12.631      859.099
11/19/2013  12:17:00     -266.483     -135.335       -9.979      182.885      161.858       79.740    33446.760    26197.945     6358.425        7.770        3.300      298.879       95.886        0.103      339.332       12.590      859.040
11/19/2013  12:18:00     -509.421      -81.004      -27.451      166.609      140.908       68.873    27758.453    19854.948     4743.528       15.958        2.618      515.821       67.754        0.017      339.247       12.447      859.022
11/19/2013  12:19:00     -431.501     -148.506      -27.443      190.272      141.059       72.021    36203.268    19897.530     5187.029       13.513        3.064      456.341       74.459        0.027      339.316       12.563      858.970
11/19/2013  12:20:00     -448.307     -100.433       -0.511      212.555      163.689       90.229    45179.609    26794.158     8141.235       14.557        4.006      459.419       97.118        0.045      339.350       12.620      858.936
11/19/2013  12:21:00     -574.681     -109.020       -5.070      204.396      134.235       85.636    41777.926    18019.016     7333.452       20.464        3.357      584.931       93.413        0.026      339.230       12.417      858.924
11/19/2013  12:22:00     -358.747      -88.131      -10.429      184.791      115.587       71.944    34147.536    13360.264     5175.941        9.462        2.634      369.414       82.313        0.050      339.366       12.646      858.939
11/19/2013  12:23:00     -387.521     -120.774       -5.547      221.157      121.935       88.647    48910.449    14868.175     7858.216       11.820        3.582      405.905       92.878        0.052      339.291       12.521      858.931
11/19/2013  12:24:00     -280.821      -43.400      -32.381      139.032      140.086       72.075    19330.032    19623.995     5194.734        6.296        2.207      284.155       56.856        0.040      339.372       12.656      858.926
11/19/2013  12:25:00     -377.979      -64.878      -32.289      139.185      156.673       69.007    19372.586    24546.564     4762.034        9.839        2.434      383.506       59.012        0.024      339.395       12.694      858.923
11/19/2013  12:26:00     -341.199     -112.174        6.437      143.938      131.709       70.378    20718.269    17347.208     4953.002        8.602        2.151      359.165       67.719        0.036      339.401       12.705      858.904
11/19/2013  12:27:00     -512.626     -118.511       -6.563      179.167      136.551       88.074    32100.828    18646.106     7756.963       16.768        2.925      526.147       93.826        0.032      339.360       12.635      858.876
11/19/2013  12:28:00     -303.174     -172.691       -8.116      142.861      137.483       68.666    20409.318    18901.602     4715.013        8.291        2.201      348.908       70.279        0.041      339.548       12.954      858.851
11/19/2013  12:29:00     -284.048     -103.649       -2.074      146.626      121.687       69.696    21499.280    14807.672     4857.596        6.629        2.058      302.368       66.520        0.048      339.678       13.174      858.822
11/19/2013  12:30:00     -435.442      -72.392      -32.177      209.514      160.647       86.742    43896.254    25807.355     7524.117       13.654        3.861      441.419      102.580        0.054      339.622       13.077      858.810
11/19/2013  12:31:00     -374.991     -118.816      -13.176      178.691      148.229       88.563    31930.639    21971.835     7843.485       10.832        3.087      393.364       94.041        0.057      339.476       12.833      858.800
11/19/2013  12:32:00     -263.962       10.251       -8.529      154.726      129.886       76.447    23939.989    16870.443     5844.191        5.825        2.333      264.161       73.066        0.077      339.607       13.052      858.784
11/19/2013  12:33:00     -231.399      -93.434       13.471      175.047      110.433       65.695    30641.584    12195.406     4315.821        5.480        2.358      249.551       74.695        0.090      339.748       13.291      858.786
11/19/2013  12:34:00     -553.817      -33.992      -22.220      198.111      159.715       93.222    39248.119    25508.735     8690.357       19.089        3.672      554.859       98.265        0.031      339.429       12.752      858.778
11/19/2013  12:35:00     -525.238     -107.282       -9.342      247.177      163.850       97.534    61096.464    26846.944     9512.798       19.244        4.873      536.082      114.092        0.045      339.413       12.727      858.765
11/19/2013  12:36:00     -293.287      -71.483      -22.580      149.019      114.779       70.536    22206.799    13174.171     4975.330        6.599        2.018      301.873       61.049        0.041      339.508       12.887      858.781
11/19/2013  12:37:00     -535.239     -102.996       -7.092      185.933      124.229       86.788    34570.911    15432.943     7532.075       17.733        2.877      545.058       90.451        0.028      339.432       12.758      858.780
11/19/2013  12:38:00     -551.178     -121.369      -20.128      282.062      179.976       92.450    79558.931    32391.454     8547.055       21.969        6.025      564.382      111.425        0.039      339.358       12.632      858.731
11/19/2013  12:39:00     -380.314      -29.020       -2.474      144.773      131.388       81.598    20959.195    17262.928     6658.273        9.517        2.244      381.420       82.301        0.047      339.484       12.847      858.717
11/19/2013  12:40:00     -411.902      -39.001      -23.822      181.402      132.017       73.677    32906.531    17428.432     5428.294       11.375        2.788      413.744       80.976        0.038      339.523       12.913      858.678
11/19/2013  12:41:00     -419.182        3.028      -18.873      235.339      154.879       86.076    55384.233    23987.386     7409.044       13.141        4.339      419.192      108.236        0.067      339.502       12.876      858.649
11/19/2013  12:42:00     -425.149      -78.109       -8.800      162.594      123.468       73.935    26436.924    15244.334     5466.443       11.703        2.357      432.264       54.985        0.016      339.510       12.890      858.624
11/19/2013  12:43:00     -514.596     -222.746      -32.173      154.024      149.725       76.276    23723.285    22417.429     5817.976       18.370        2.598      560.736       72.304        0.017      339.386       12.681      858.604
11/19/2013  12:44:00     -438.797     -120.916      -20.170      147.729      189.240       78.618    21823.891    35811.932     6180.843       13.568        3.191      455.152       55.431        0.015      339.492       12.859      858.599
11/19/2013  12:45:00     -255.100      -91.485      -11.125      149.190      114.859       70.352    22257.602    13192.643     4949.375        5.698        2.020      271.008       72.903        0.072      339.566       12.984      858.600
11/19/2013  12:46:00     -191.303       -4.975        2.882      134.139       99.036       69.356    17993.171     9808.196     4810.207        3.461        1.631      191.368       57.814        0.091      339.671       13.163      858.595
11/19/2013  12:47:00     -254.684       36.132      -22.885      155.145      132.074       66.620    24070.014    17443.615     4438.246        5.631        2.298      257.235       55.177        0.046      339.598       13.038      858.582
11/19/2013  12:48:00     -200.778      -68.328       17.102      206.174      127.493       77.384    42507.560    16254.482     5988.240        5.500        3.238      212.086       91.841        0.188      339.713       13.234      858.547
11/19/2013  12:49:00     -575.255      -68.437      -66.032      189.446      163.234       80.785    35889.909    26645.443     6526.222       20.450        3.453      579.312       71.055        0.015      339.465       12.814      858.523
11/19/2013  12:50:00     -235.892     -145.988       12.098      253.228      139.093       90.556    64124.560    19346.894     8200.381        8.437        4.584      277.413      117.087        0.178      339.574       12.998      858.537
11/19/2013  12:51:00     -377.953     -205.310      -10.245      196.475      163.837       81.269    38602.363    26842.674     6604.619       12.856        3.602      430.117       84.580        0.039      339.428       12.750      858.539
11/19/2013  12:52:00     -264.134      -27.897        6.428      147.563      111.288       63.231    21774.911    12385.050     3998.101        5.436        1.908      265.603       67.239        0.064      339.569       12.988      858.534
11/19/2013  12:53:00     -200.838      -67.888        5.335      147.500      130.200       63.890    21756.283    16951.965     4081.938        4.387        2.140      212.001       74.098        0.122      339.660       13.144      858.531
11/19/2013  12:54:00     -225.841     -103.432      -18.672      147.719       88.747       66.691    21820.857     7876.023     4447.646        4.809        1.707      248.399       66.694        0.072      339.722       13.249      858.561
11/19/2013  12:55:00     -188.323     -102.354      -21.318      143.784       86.060       59.786    20673.888     7406.312     3574.329        3.902        1.583      214.341       61.536        0.082      339.666       13.152      858.555
11/19/2013  12:56:00     -283.576      -82.050      -11.854      178.272      124.187       74.473    31781.039    15422.499     5546.171        7.001        2.637      295.208       80.392        0.074      339.731       13.262      858.537
11/19/2013  12:57:00     -379.702      -97.904      -17.991      191.609      152.999       80.731    36714.128    23408.728     6517.435       11.035        3.332      392.121       89.437        0.052      339.613       13.063      858.556
11/19/2013  12:58:00     -351.467       -9.677      -11.734      160.214      172.959       88.788    25668.381    29914.681     7883.329        9.360        3.173      351.600       85.648        0.059      339.600       13.041      858.558
11/19/2013  12:59:00     -268.994      -26.995       -6.501      178.950      130.282       73.997    32022.981    16973.274     5475.516        6.379        2.724      270.345       74.342        0.076      339.693       13.198      858.565
11/19/2013  13:00:00     -411.282      -73.587      -40.851      143.970      122.596       65.877    20727.403    15029.712     4339.781       10.816        2.005      417.814       72.013        0.030      339.636       13.103      858.585
11/19/2013  13:01:00     -410.659      -19.333      -26.071      127.029      100.929       69.065    16136.387    10186.738     4769.952       10.039        1.555      411.113       72.712        0.031      339.623       13.080      858.586
11/19/2013  13:02:00     -405.382     -158.589      -24.704      161.149      160.020       71.389    25968.873    25606.341     5096.346       12.337        2.834      435.299       56.862        0.017      339.590       13.024      858.563
11/19/2013  13:03:00     -199.641      -95.698        0.534      155.585      157.275       81.995    24206.564    24735.301     6723.250        5.233        2.783      221.393       90.896        0.169      339.716       13.237      858.523
11/19/2013  13:04:00     -259.665      -47.888      -22.879      160.436      110.661       66.795    25739.791    12245.867     4461.585        5.634        2.122      264.044       65.265        0.061      339.740       13.277      858.542
11/19/2013  13:05:00     -401.684      -26.030      -16.900      162.699      143.331       72.546    26470.855    20543.897     5262.909       10.728        2.614      402.526       70.916        0.031      339.613       13.064      858.520
11/19/2013  13:06:00     -502.504      -23.689      -43.508      173.107      102.984       64.862    29965.952    10605.688     4207.100       14.986        2.239      503.062       74.302        0.022      339.494       12.861      858.482
11/19/2013  13:07:00     -191.682      -82.508       11.571      145.558      127.628       67.071    21187.007    16288.827     4498.522        4.282        2.099      208.685       75.403        0.131      339.727       13.255      858.452
11/19/2013  13:08:00     -283.066      -11.883      -20.192      154.793      134.842       71.873    23960.968    18182.383     5165.664        6.398        2.365      283.316       70.610        0.062      339.670       13.160      858.446
11/19/2013  13:09:00     -278.041     -109.136        1.047      165.573      123.831       62.947    27414.256    15334.103     3962.347        6.796        2.336      298.693       72.779        0.059      339.675       13.170      858.445
11/19/2013  13:10:00     -268.398      -23.282      -10.003      131.390      108.656       59.508    17263.449    11806.137     3541.190        5.264        1.631      269.406       65.827        0.060      339.749       13.292      858.473
11/19/2013  13:11:00     -327.478      -14.448      -20.262      184.315      127.392       70.204    33971.994    16228.654     4928.564        8.148        2.756      327.797       87.308        0.071      339.693       13.197      858.466
11/19/2013  13:12:00     -384.125     -127.061      -11.130      240.880      147.468       78.357    58023.230    21746.834     6139.840       12.485        4.295      404.595       84.991        0.044      339.667       13.155      858.469
11/19/2013  13:13:00     -505.512     -162.136      -26.504      185.824      181.077       82.706    34530.494    32788.994     6840.253       17.833        3.708      530.877       81.550        0.024      339.486       12.849      858.460
11/19/2013  13:14:00     -275.168     -128.749        1.722      189.584      145.779       76.836    35942.087    21251.623     5903.749        7.768        3.155      303.799       92.658        0.093      339.662       13.148      858.486
11/19/2013  13:15:00     -463.140     -119.289      -16.759      249.324      151.624       86.584    62162.607    22989.957     7496.832       16.081        4.632      478.255      106.698        0.050      339.509       12.887      858.500
11/19/2013  13:16:00     -336.961     -105.981      -22.395      222.241      158.269       82.756    49391.208    25049.062     6848.536       10.327        4.064      353.234      111.949        0.100      339.588       13.020      858.520
11/19/2013  13:17:00     -384.412     -115.316      -12.469      151.348      144.708       77.624    22906.092    20940.414     6025.433       10.554        2.494      401.336       75.983        0.036      339.597       13.034      858.510
11/19/2013  13:18:00     -382.836     -110.828      -18.848      171.160      133.012       81.219    29295.781    17692.187     6596.595       10.638        2.679      398.555       79.147        0.039      339.574       12.998      858.513
11/19/2013  13:19:00     -567.072      -67.490      -37.789      134.303      125.688       81.318    18037.224    15797.558     6612.642       18.399        2.022      571.074       64.373        0.013      339.480       12.839      858.494
11/19/2013  13:20:00     -285.930      -72.913      -12.059      159.437      144.513       85.981    25420.036    20884.025     7392.661        7.045        2.685      295.080       72.692        0.061      339.537       12.934      858.454
11/19/2013  13:21:00     -193.828      -63.158        7.720      135.513      141.795       75.807    18363.833    20105.895     5746.662        4.291        2.211      203.859       71.060        0.122      339.604       13.047      858.437
11/19/2013  13:22:00     -372.848     -137.771      -18.943      158.096      151.304       78.189    24994.234    22892.996     6113.582       10.617        2.700      397.488       67.515        0.029      339.500       12.873      858.445
11/19/2013  13:23:00     -301.749      -84.646      -21.692      157.077      113.470       62.075    24673.192    12875.344     3853.367        7.004        2.070      313.397       73.385        0.055      339.507       12.884      858.464
11/19/2013  13:24:00     -229.144      -58.942       -9.129      132.360      125.722       51.325    17519.150    15805.917     2634.255        4.600        1.798      236.603       61.842        0.068      339.588       13.022      858.498
11/19/2013  13:25:00     -182.896     -155.206        3.076      154.697      122.402       80.147    23931.292    14982.194     6423.594        5.143        2.267      239.875       92.671        0.149      339.679       13.177      858.504
11/19/2013  13:26:00     -268.805      -97.682       -3.349      194.226      151.895       82.696    37723.906    23072.179     6838.627        7.471        3.382      286.003       97.038        0.115      339.649       13.123      858.515
11/19/2013  13:27:00     -377.439      -25.024      -31.897      173.635      114.365       59.001    30149.076    13079.282     3481.072        9.540        2.335      378.267       47.544        0.016      339.597       13.035      858.520
11/19/2013  13:28:00     -343.470     -137.630      -16.722      187.199      144.185       73.614    35043.307    20789.369     5419.042        9.921        3.063      370.018       78.794        0.045      339.670       13.160      858.500
11/19/2013  13:29:00     -306.905     -147.174       15.403      211.451      202.971      106.048    44711.524    41197.047    11246.257       10.660        4.858      340.369      111.672        0.108      339.626       13.085      858.461
11/19/2013  13:30:00     -318.758     -100.904      -20.661      170.519      130.543       68.637    29076.616    17041.568     4711.096        8.151        2.541      334.348       81.529        0.059      339.590       13.024      858.454
11/19/2013  13:31:00     -331.030      -43.220      -19.283      108.200      119.012       57.509    11707.213    14163.908     3307.300        7.049        1.459      333.840       54.298        0.026      339.659       13.141      858.434
11/19/2013  13:32:00     -255.562      -97.201       -9.941      164.686      146.774       68.966    27121.342    21542.677     4756.242        6.413        2.671      273.423       83.216        0.093      339.715       13.236      858.423
11/19/2013  13:33:00     -385.711     -106.105      -13.405      163.575      189.421       73.583    26756.866    35880.243     5414.458       11.412        3.403      400.039       50.676        0.016      339.604       13.049      858.434
11/19/2013  13:34:00     -283.029     -149.551       -2.619      186.161      113.921       82.459    34655.842    12978.106     6799.534        7.844        2.722      320.111       93.066        0.085      339.605       13.049      858.454
11/19/2013  13:35:00     -146.314      -40.207       -0.688      119.361       82.666       54.478    14246.975     6833.660     2967.848        2.353        1.202      151.738       57.446        0.143      339.676       13.171      858.460
11/19/2013  13:36:00     -426.292       17.428      -16.117      227.371      121.883       71.827    51697.500    14855.448     5159.163       12.699        3.586      426.648       94.912        0.049      339.624       13.080      858.450
11/19/2013  13:37:00     -266.643      -66.570        2.850      166.699      119.094       60.654    27788.470    14183.382     3678.966        6.059        2.283      274.827       70.240        0.065      339.656       13.135      858.449
11/19/2013  13:38:00     -176.828      -97.847        3.238      185.598      133.803       64.484    34446.435    17903.126     4158.241        4.867        2.825      202.095       72.222        0.128      339.668       13.156      858.446
11/19/2013  13:39:00     -387.682     -175.647      -31.038      137.516      159.576       69.296    18910.520    25464.452     4801.968       11.563        2.459      425.616       59.921        0.020      339.558       12.971      858.424
11/19/2013  13:40:00     -324.363     -110.023       -8.244      123.974      116.263       65.997    15369.622    13517.039     4355.631        7.531        1.662      342.515       56.481        0.027      339.602       13.043      858.418
11/19/2013  13:41:00     -170.446       -6.656        0.419      115.880       81.329       58.944    13428.122     6614.475     3474.434        2.630        1.176      170.576       55.499        0.106      339.694       13.202      858.408
11/19/2013  13:42:00     -383.760      -72.349      -15.516      165.738      148.574       83.225    27469.225    22074.377     6926.329       10.460        2.823      390.521       87.314        0.050      339.599       13.039      858.374
11/19/2013  13:43:00     -384.384      -83.070      -27.888      237.554      124.524       84.312    56432.093    15506.264     7108.456       11.722        3.952      393.257      102.412        0.068      339.619       13.074      858.355
11/19/2013  13:44:00     -317.611     -115.338      -17.770      161.583      141.455       76.239    26108.912    20009.608     5812.344        8.320        2.597      337.905       73.510        0.047      339.593       13.029      858.324
11/19/2013  13:45:00     -110.322      -65.073       15.375      130.680       90.184       75.707    17077.186     8133.212     5731.594        2.379        1.547      128.084       70.845        0.306      339.646       13.121      858.277
11/19/2013  13:46:00     -121.993      -15.118       -2.527       77.987       87.532       50.846     6081.921     7661.833     2585.307        1.572        0.816      122.926       32.085        0.068      339.651       13.130      858.268
11/19/2013  13:47:00     -389.203       -1.259      -29.096      158.774      112.995       69.797    25209.283    12767.827     4871.670        9.758        2.142      389.205       80.439        0.043      339.541       12.943      858.247
11/19/2013  13:48:00     -313.653      -40.255      -21.021       95.351      123.147       54.962     9091.803    15165.234     3020.804        6.385        1.364      316.225       48.774        0.024      339.569       12.988      858.242
11/19/2013  13:49:00     -230.582      -71.754       -2.124      135.065      117.269       60.989    18242.536    13752.110     3719.640        4.701        1.786      241.489       63.078        0.068      339.577       13.004      858.247
11/19/2013  13:50:00     -350.704     -126.230      -14.859      146.543      115.080       63.651    21474.704    13243.394     4051.509        8.895        1.938      372.729       62.513        0.028      339.472       12.825      858.243
11/19/2013  13:51:00     -348.384      -49.822       -1.993      145.939      166.967       69.150    21298.264    27878.072     4781.762        8.890        2.698      351.929       59.589        0.029      339.459       12.802      858.252
11/19/2013  13:52:00     -386.818     -106.805      -25.341      140.162      142.297       66.295    19645.371    20248.383     4395.070       10.297        2.214      401.292       66.902        0.028      339.374       12.660      858.258
11/19/2013  13:53:00     -280.988      -87.289       -2.293      129.589       89.713       59.811    16793.378     8048.445     3577.316        5.749        1.421      294.234       65.666        0.050      339.482       12.842      858.256
11/19/2013  13:54:00     -200.841     -129.449       10.276      138.584      111.366       60.671    19205.659    12402.455     3681.020        4.624        1.764      238.944       66.971        0.079      339.515       12.899      858.232
11/19/2013  13:55:00     -117.517      -64.128      -10.109      129.485       83.064       39.286    16766.417     6899.586     1543.372        2.161        1.260      133.876       45.755        0.117      339.560       12.974      858.194
11/19/2013  13:56:00     -112.603      -44.627       13.846      132.974       79.346       50.384    17682.052     6295.840     2538.537        2.068        1.326      121.124       54.233        0.200      339.632       13.097      858.171
11/19/2013  13:57:00     -486.134      -60.799      -20.303      151.086      134.530       68.327    22826.936    18098.431     4668.632       14.301        2.280      489.921       73.667        0.023      339.500       12.872      858.180
11/19/2013  13:58:00     -263.944      -21.842      -14.930      161.781      112.966       63.792    26173.246    12761.342     4069.464        5.668        2.150      264.846       51.358        0.038      339.577       13.003      858.195
11/19/2013  13:59:00     -302.470      -38.034       -7.103      133.842      117.008       56.562    17913.706    13690.935     3199.298        6.389        1.740      304.852       51.060        0.028      339.574       12.997      858.203
11/19/2013  14:00:00     -380.922      -72.516      -24.413      131.118      132.289       62.170    17191.976    17500.443     3865.065        9.475        1.928      387.763       56.507        0.021      339.478       12.835      858.191
11/19/2013  14:01:00     -167.928      -40.988       -9.977      144.786       81.724       53.034    20962.844     6678.776     2812.586        3.021        1.523      172.858       56.456        0.107      339.485       12.850      858.181
11/19/2013  14:02:00     -319.201      -94.421       -6.976      119.123       96.634       51.168    14190.286     9338.091     2618.190        6.849        1.307      332.874       40.777        0.015      339.485       12.847      858.173
11/19/2013  14:03:00     -284.609      -26.493      -17.323      103.715       65.295       40.549    10756.802     4263.389     1644.246        4.933        0.833      285.840       39.652        0.019      339.507       12.884      858.152
11/19/2013  14:04:00     -329.646      -87.179        8.185      151.337      125.431       60.861    22902.795    15732.830     3704.097        7.933        2.117      340.979       70.259        0.042      339.551       12.959      858.142
11/19/2013  14:05:00     -362.847      -97.525      -15.216      185.748      113.238       72.174    34502.320    12822.744     5209.122        9.696        2.627      375.725       81.606        0.047      339.464       12.812      858.147
11/19/2013  14:06:00     -346.719      -75.803      -12.458      178.689      113.657       70.706    31929.786    12917.824     4999.321        8.797        2.492      354.908       82.467        0.054      339.472       12.824      858.130
11/19/2013  14:07:00     -283.294      -61.659        3.594      184.461      117.544       67.267    34025.795    13816.637     4524.825        6.821        2.618      289.926       70.306        0.059      339.567       12.986      858.126
11/19/2013  14:08:00     -335.974      -85.581      -12.308      142.651      113.997       61.165    20349.262    12995.272     3741.190        7.871        1.854      346.703       69.121        0.040      339.486       12.849      858.125
11/19/2013  14:09:00     -368.813      -72.457      -19.376      137.564      102.148       54.455    18923.866    10434.125     2965.386        8.698        1.616      375.863       40.479        0.012      339.454       12.794      858.095
11/19/2013  14:10:00     -442.453     -115.034        1.418      217.763      114.877       80.942    47420.639    13196.632     6551.621       13.807        3.358      457.163      100.113        0.048      339.427       12.750      858.076
11/19/2013  14:11:00     -414.149      -79.688      -11.559      117.865       85.650       57.256    13892.257     7335.927     3278.206       10.125        1.225      421.746       56.809        0.018      339.433       12.761      858.054
11/19/2013  14:12:00     -286.795      -67.384      -16.588      137.806      107.379       61.691    18990.503    11530.195     3805.736        6.069        1.716      294.604       57.725        0.038      339.519       12.904      858.034
11/19/2013  14:13:00     -408.646       -5.599      -24.865      180.616       96.280       64.540    32622.006     9269.828     4165.411       10.684        2.303      408.684       73.634        0.032      339.479       12.837      858.063
11/19/2013  14:14:00     -355.862      -56.561      -15.108      151.409      141.560       69.054    22924.807    20039.297     4768.418        8.889        2.387      360.329       70.127        0.038      339.452       12.790      858.076
11/19/2013  14:15:00     -328.377     -137.890       -9.207      142.962      148.737       72.472    20438.073    22122.694     5252.176        8.736        2.391      356.153       76.118        0.046      339.465       12.814      858.077
11/19/2013  14:16:00     -290.547      -97.978       -4.549      156.244      110.299       74.886    24412.288    12165.762     5607.881        6.810        2.109      306.623       83.657        0.074      339.482       12.843      858.086
11/19/2013  14:17:00     -397.572     -172.609      -15.841      134.857      115.681       69.111    18186.389    13381.979     4776.396       11.222        1.817      433.425       61.518        0.020      339.441       12.773      858.072
11/19/2013  14:18:00     -424.821       -4.689       -6.798      166.100      158.813       79.646    27589.064    25221.673     6343.545       11.984        2.958      424.847       74.941        0.031      339.399       12.702      858.071
11/19/2013  14:19:00     -466.771      -40.710      -34.342      169.045      148.121       78.662    28576.317    21939.736     6187.633       13.870        2.835      468.543       75.670        0.026      339.348       12.617      858.056
11/19/2013  14:20:00     -320.579     -127.049      -11.179      125.948      122.423       67.650    15862.989    14987.458     4576.540        7.722        1.771      344.836       62.560        0.033      339.396       12.696      858.019
11/19/2013  14:21:00     -345.657      -62.155      -21.786      168.196      106.622       61.248    28289.775    11368.227     3751.280        8.360        2.170      351.201       77.464        0.049      339.418       12.733      858.016
11/19/2013  14:22:00     -319.068      -49.885       -5.783      126.345       90.198       53.495    15963.159     8135.647     2861.704        6.564        1.348      322.944       54.204        0.028      339.413       12.726      858.016
11/19/2013  14:23:00     -317.871       19.072      -10.465      133.807      105.350       64.889    17904.424    11098.569     4210.571        6.736        1.661      318.443       64.250        0.041      339.441       12.773      857.993
11/19/2013  14:24:00     -375.820     -124.647      -23.867      234.666      119.593       58.898    55068.249    14302.497     3468.965       11.508        3.642      395.952       72.599        0.034      339.415       12.730      857.969
11/19/2013  14:25:00     -300.949      -69.563       -4.511      199.344      132.519       95.399    39738.039    17561.400     9100.878        8.090        3.320      308.884       97.421        0.099      339.388       12.682      857.945
11/19/2013  14:26:00     -399.010     -170.827      -25.148      144.774       97.398       61.269    20959.534     9486.392     3753.854       11.160        1.710      434.040       62.537        0.021      339.354       12.627      857.952
11/19/2013  14:27:00     -441.262     -178.846      -32.373      175.203      118.642       72.909    30696.055    14075.913     5315.653       13.891        2.504      476.128       67.944        0.020      339.340       12.603      857.933
11/19/2013  14:28:00     -435.658     -150.859      -11.538      212.250      124.747       69.136    45049.927    15561.823     4779.753       13.903        3.270      461.038       90.761        0.039      339.321       12.571      857.941
11/19/2013  14:29:00     -527.649     -125.348      -40.095      167.704      161.350       68.423    28124.771    26033.971     4681.731       17.728        2.942      542.334       68.037        0.016      339.283       12.506      857.924
11/19/2013  14:30:00     -363.032      -78.386      -11.388      158.821      162.529       75.787    25224.253    26415.627     5743.741        9.771        2.869      371.398       80.441        0.047      339.306       12.545      857.916
11/19/2013  14:31:00     -391.973        5.329      -18.013      182.077      130.781       81.385    33152.175    17103.683     6623.494       10.543        2.844      392.009       92.132        0.055      339.316       12.563      857.926
11/19/2013  14:32:00     -444.405     -115.238      -11.697      159.179      135.956       70.908    25337.988    18484.078     5027.962       12.987        2.443      459.103       71.207        0.024      339.265       12.476      857.927
11/19/2013  14:33:00     -421.044     -100.430      -29.342      172.671      119.785       66.618    29815.138    14348.360     4437.972       11.840        2.430      432.855       66.688        0.024      339.312       12.555      857.932
11/19/2013  14:34:00     -428.542      -38.755      -12.653      178.783      148.547       89.325    31963.267    22066.090     7978.948       12.365        3.100      430.290       94.767        0.049      339.310       12.551      857.933
11/19/2013  14:35:00     -355.275     -107.087      -17.621      183.306      134.089       71.594    33601.228    17979.775     5125.763        9.734        2.835      371.063       73.472        0.039      339.327       12.581      857.917
11/19/2013  14:36:00     -390.180     -153.406       14.212      181.099      146.587       86.324    32796.763    21487.736     7451.783       11.884        3.087      419.254       96.486        0.053      339.303       12.540      857.903
11/19/2013  14:37:00     -608.371     -107.409      -23.878      210.381      146.882       83.165    44260.050    21574.379     6916.367       22.747        3.638      617.780       95.760        0.024      339.260       12.468      857.910
11/19/2013  14:38:00     -423.106      -68.230      -10.301      138.477      115.053       63.294    19175.928    13237.299     4006.134       11.009        1.821      428.572       75.469        0.031      339.268       12.480      857.913
11/19/2013  14:39:00     -357.240      -78.230       -5.278      133.871      103.187       70.578    17921.451    10647.532     4981.245        8.365        1.678      365.706       76.570        0.044      339.267       12.479      857.905
11/19/2013  14:40:00     -342.928      -69.815      -16.324      146.637      112.547       73.551    21502.550    12666.811     5409.798        8.115        1.979      349.963       77.551        0.049      339.296       12.528      857.872
11/19/2013  14:41:00     -313.449      -93.208       -9.810      107.379      118.673       54.903    11530.343    14083.193     3014.288        6.783        1.431      327.014       54.206        0.027      339.317       12.563      857.866
11/19/2013  14:42:00     -432.101       19.963      -32.442      179.206       97.745       71.543    32114.955     9553.992     5118.440       11.747        2.339      432.562       80.959        0.035      339.309       12.549      857.886
11/19/2013  14:43:00     -440.531     -102.451      -17.841      124.592      115.835       60.994    15523.129    13417.670     3720.283       11.877        1.633      452.288       67.311        0.022      339.291       12.519      857.888
11/19/2013  14:44:00     -295.479      -78.893      -14.407      138.029       87.955       54.105    19051.960     7736.148     2927.387        6.172        1.486      305.830       56.794        0.034      339.330       12.586      857.870
11/19/2013  14:45:00     -324.965     -127.567       -5.127      116.756      124.310       68.158    13631.877    15452.933     4645.471        7.781        1.687      349.107       58.469        0.028      339.338       12.598      857.871
11/19/2013  14:46:00     -257.568     -101.282      -10.560      132.914      125.740       63.674    17666.097    15810.646     4054.414        5.711        1.877      276.766       71.376        0.067      339.368       12.651      857.854
11/19/2013  14:47:00     -261.585     -109.616      -11.803      158.386      150.204       70.098    25085.972    22561.235     4913.694        6.656        2.628      283.623       67.105        0.056      339.351       12.622      857.870
11/19/2013  14:48:00     -341.955      -29.475       12.282      216.846      131.985       86.496    47021.992    17419.960     7481.542        9.492        3.596      343.223      109.926        0.103      339.319       12.567      857.872
11/19/2013  14:49:00     -331.157      -62.679      -21.105      196.647      124.366       80.052    38669.965    15466.833     6408.358        8.728        3.027      337.036       94.237        0.078      339.311       12.554      857.883
11/19/2013  14:50:00     -246.217     -114.423       -1.467      185.902      149.717       66.410    34559.410    22415.228     4410.263        6.754        3.069      271.506       65.062        0.057      339.333       12.594      857.915
11/19/2013  14:51:00     -295.158     -180.959       -9.694      189.203      120.543       79.137    35797.874    14530.525     6262.704        8.826        2.830      346.214       80.331        0.054      339.317       12.563      857.927
11/19/2013  14:52:00     -276.577     -114.023       -6.369      175.965      125.896       80.959    30963.547    15849.715     6554.401        7.144        2.668      299.159       84.235        0.079      339.328       12.582      857.941
11/19/2013  14:53:00     -315.815      -57.801       -6.144      180.912      130.523       73.457    32729.174    17036.206     5395.937        7.913        2.758      321.061       87.478        0.074      339.312       12.555      857.964
11/19/2013  14:54:00     -333.902     -117.661       -9.901      136.831      145.368       66.713    18722.709    21131.874     4450.626        8.486        2.215      354.027       69.145        0.038      339.311       12.554      857.967
11/19/2013  14:55:00     -381.581      -75.875      -17.461      144.528      131.764       63.607    20888.303    17361.685     4045.793        9.697        2.115      389.052       63.596        0.027      339.283       12.506      857.976
11/19/2013  14:56:00     -361.904      -95.120      -15.746      168.501      130.760       71.798    28392.588    17098.241     5155.022        9.545        2.532      374.195       77.239        0.043      339.263       12.473      857.952
11/19/2013  14:57:00     -404.555      -75.068      -13.654      212.211      127.684       78.474    45033.324    16303.180     6158.205       11.848        3.375      411.461      103.706        0.064      339.227       12.414      857.943
11/19/2013  14:58:00     -281.318      -68.272       -2.304      146.216      124.648       65.942    21379.265    15537.201     4348.295        6.253        2.063      289.484       72.619        0.063      339.286       12.512      857.971
11/19/2013  14:59:00     -573.641      -92.609      -25.295      213.016      127.380       73.593    45376.000    16225.582     5415.869       20.264        3.351      581.068       77.962        0.018      339.212       12.388      857.978
11/19/2013  15:00:00     -393.088      -57.370       -7.075      147.387      127.148       78.393    21723.021    16166.657     6145.406       10.094        2.202      397.252       82.757        0.043      339.235       12.426      857.969
11/19/2013  15:01:00     -314.830      -51.697      -17.441      144.163       95.799       59.773    20783.063     9177.441     3572.759        6.781        1.677      319.046       58.561        0.034      339.246       12.446      857.975
11/19/2013  15:02:00     -472.587      -25.587      -32.870      166.959      135.722       80.252    27875.378    18420.557     6440.357       13.889        2.637      473.279       85.495        0.033      339.234       12.424      857.960
11/19/2013  15:03:00     -295.401     -112.250      -11.909      117.314       95.358       55.660    13762.683     9093.082     3098.019        6.297        1.298      316.009       51.642        0.027      339.282       12.505      857.966
11/19/2013  15:04:00     -433.251      -76.779      -12.585      188.146      135.971       69.222    35398.853    18488.214     4791.748       12.621        2.934      440.002       83.847        0.036      339.243       12.441      857.963
11/19/2013  15:05:00     -442.521      -79.618      -27.875      194.340      114.977       75.460    37768.060    13219.658     5694.242       12.980        2.834      449.626       98.441        0.048      339.244       12.441      857.967
11/19/2013  15:06:00     -412.906       26.345      -28.913      186.878      112.288       61.256    34923.299    12608.518     3752.250       11.164        2.564      413.745       68.103        0.027      339.247       12.447      857.986
11/19/2013  15:07:00     -305.399       -9.861       -9.435      155.477      109.077       57.784    24173.045    11897.764     3339.034        6.642        1.970      305.558       62.517        0.042      339.288       12.515      858.002
11/19/2013  15:08:00     -155.426      -49.713       18.180       98.025       90.746       56.765     9608.931     8234.784     3222.321        2.401        1.053      163.183       59.361        0.132      339.348       12.617      858.027
11/19/2013  15:09:00     -327.200      -79.388      -14.436      160.239      162.099       64.055    25676.497    26275.973     4102.994        8.480        2.803      336.693       68.274        0.041      339.264       12.476      858.038
11/19/2013  15:10:00     -259.091     -142.963        8.540      143.172      114.425       72.490    20498.310    13092.971     5254.838        6.324        1.942      295.916       77.318        0.068      339.279       12.501      858.045
11/19/2013  15:11:00     -312.068      -87.243      -14.389      149.100       98.393       59.144    22230.878     9681.216     3497.959        7.030        1.771      324.033       63.977        0.039      339.226       12.413      858.046
11/19/2013  15:12:00     -288.147     -133.068       -6.487      216.900      133.150       83.031    47045.455    17728.983     6894.078        8.621        3.583      317.389      107.589        0.115      339.249       12.450      858.052
11/19/2013  15:13:00     -267.569     -132.580       -5.636      190.257      144.619       68.957    36197.803    20914.692     4755.080        7.552        3.093      298.615       78.432        0.069      339.239       12.434      858.054
11/19/2013  15:14:00     -187.750      -74.104       -2.356      142.839      100.901       68.852    20402.972    10180.957     4740.532        3.803        1.766      201.845       79.320        0.154      339.285       12.512      858.051
11/19/2013  15:15:00     -233.483      -82.321       -3.131      122.715      125.583       65.233    15059.073    15771.181     4255.408        4.819        1.754      247.571       67.777        0.075      339.231       12.421      858.088
11/19/2013  15:16:00     -323.864      -71.933      -27.684      116.671      110.062       50.730    13612.127    12113.617     2573.559        6.956        1.415      331.756       46.315        0.019      339.238       12.431      858.103
11/19/2013  15:17:00     -360.595      -73.016      -29.611       70.818      119.988       45.881     5015.204    14397.047     2105.088        7.887        1.076      367.913       24.845        0.005      339.242       12.437      858.098
11/19/2013  15:18:00     -179.873       19.679        4.955       95.876      102.739       50.517     9192.185    10555.401     2551.962        2.753        1.115      180.947       41.628        0.053      339.272       12.490      858.091
11/19/2013  15:19:00     -117.056      -76.901        8.441       87.773       82.796       52.953     7704.026     6855.173     2804.025        1.852        0.868      140.057       52.834        0.142      339.310       12.554      858.102
11/19/2013  15:20:00     -275.821      -94.950       -8.770      104.733       82.285       56.650    10969.067     6770.863     3209.184        5.306        1.047      291.707       56.405        0.037      339.280       12.501      858.115
11/19/2013  15:21:00     -328.723      -53.454       -9.857      112.177       89.473       58.088    12583.593     8005.362     3374.259        6.748        1.198      333.041       61.185        0.034      339.234       12.424      858.129
11/19/2013  15:22:00     -289.472     -130.610      -16.046      125.562       95.719       67.830    15765.867     9162.073     4600.848        6.531        1.476      317.574       62.718        0.039      339.215       12.393      858.134
11/19/2013  15:23:00     -202.218       13.843      -28.649       94.293       81.243       42.941     8891.094     6600.449     1843.918        2.962        0.867      202.691       37.986        0.035      339.246       12.445      858.150
11/19/2013  15:24:00     -360.988        0.780      -25.860      102.865       90.046       50.591    10581.202     8108.329     2559.410        7.611        1.062      360.989       44.212        0.015      339.210       12.384      858.163
11/19/2013  15:25:00     -371.006      -96.013      -15.115       91.477       83.974       50.344     8367.991     7051.638     2534.499        8.252        0.898      383.228       34.519        0.008      339.206       12.377      858.157
11/19/2013  15:26:00     -235.378      -92.151        1.351       87.069       67.185       42.324     7581.020     4513.802     1791.340        3.889        0.694      252.774       40.420        0.026      339.245       12.443      858.160
11/19/2013  15:27:00     -140.127      -34.893        6.069       91.826       71.318       38.815     8431.938     5086.220     1506.575        1.795        0.751      144.406       38.416        0.071      339.273       12.492      858.164
11/19/2013  15:28:00     -123.376      -20.187       11.615       73.124       58.005       36.866     5347.166     3364.592     1359.095        1.292        0.504      125.016       36.510        0.085      339.290       12.522      858.174
11/19/2013  15:29:00      -98.172      -43.071       12.498      102.658       72.174       52.574    10538.718     5209.096     2764.038        1.508        0.926      107.205       57.733        0.290      339.306       12.547      858.174
11/19/2013  15:30:00     -206.033     -100.862       -9.758      103.429       71.195       47.662    10697.619     5068.791     2271.688        3.537        0.902      229.396       53.132        0.054      339.239       12.434      858.161
11/19/2013  15:31:00     -131.590      -26.874       -0.154       83.701       81.369       41.685     7005.810     6620.966     1737.637        1.670        0.768      134.306       37.608        0.078      339.287       12.514      858.167
11/19/2013  15:32:00     -140.181      -84.726        6.583      124.937       86.211       48.858    15609.212     7432.353     2387.130        2.615        1.271      163.796       59.434        0.132      339.291       12.520      858.159
11/19/2013  15:33:00     -240.283      -28.987       -7.040      111.181       86.735       54.579    12361.180     7523.031     2978.901        4.074        1.143      242.025       51.823        0.046      339.293       12.524      858.161
11/19/2013  15:34:00     -196.855      -27.620        4.552      121.854       82.689       45.499    14848.485     6837.416     2070.168        3.164        1.188      198.783       47.719        0.058      339.284       12.509      858.154
11/19/2013  15:35:00     -333.600      -63.597        2.819      134.355      113.646       61.967    18051.287    12915.504     3839.960        7.507        1.740      339.608       59.056        0.030      339.202       12.370      858.147
11/19/2013  15:36:00     -223.712      -94.192       -3.091      117.824      126.219       67.435    13882.608    15931.259     4547.517        4.664        1.718      242.733       63.124        0.068      339.220       12.403      858.138
11/19/2013  15:37:00     -349.494      -64.254        0.586      206.970      132.667       78.453    42836.693    17600.455     6154.796        9.642        3.330      355.352       86.923        0.060      339.185       12.343      858.120
11/19/2013  15:38:00     -219.429      -94.661        9.669      135.221      149.990       66.160    18284.782    22497.130     4377.080        5.117        2.258      238.976       64.799        0.074      339.212       12.390      858.111
11/19/2013  15:39:00     -135.344      -56.451        0.784      137.504      115.752       77.010    18907.238    13398.558     5930.495        2.986        1.912      146.645       76.769        0.274      339.255       12.461      858.088
11/19/2013  15:40:00     -179.254      -49.177        4.058      125.420       75.045       58.514    15730.102     5631.765     3423.882        2.967        1.239      185.877       67.037        0.130      339.226       12.412      858.093
11/19/2013  15:41:00     -405.698      -13.114      -22.867      169.982      134.405       68.548    28893.922    18064.780     4698.881       10.846        2.583      405.910       80.771        0.040      339.180       12.333      858.087
11/19/2013  15:42:00     -284.888      -36.475       -8.133      110.048       89.861       53.840    12110.478     8074.948     2898.777        5.282        1.154      287.214       59.783        0.043      339.198       12.364      858.079
11/19/2013  15:43:00     -255.805      -99.421       -1.093      114.744      113.308       53.520    13166.208    12838.743     2864.441        5.209        1.443      274.446       49.555        0.033      339.202       12.370      858.092
11/19/2013  15:44:00     -268.326     -114.501      -13.099       89.670       96.336       55.520     8040.630     9280.611     3082.480        5.284        1.020      291.736       44.883        0.024      339.188       12.347      858.092
11/19/2013  15:45:00     -137.786      -46.926       -1.893       90.632       70.112       42.335     8214.176     4915.631     1792.255        1.805        0.746      145.558       32.973        0.051      339.256       12.462      858.122
11/19/2013  15:46:00     -150.015      -65.514        4.438      115.749       69.550       47.736    13397.724     4837.266     2278.686        2.366        1.026      163.697       54.680        0.112      339.247       12.446      858.151
11/19/2013  15:47:00     -113.111      -85.978       17.440      112.312      116.099       66.649    12614.026    13479.064     4442.151        2.551        1.527      142.079       57.458        0.164      339.207       12.381      858.143
11/19/2013  15:48:00     -348.101     -125.713      -17.028      181.989      117.290       70.794    33120.057    13756.869     5011.846        9.457        2.594      370.106       81.073        0.048      339.148       12.281      858.144
11/19/2013  15:49:00     -433.277     -116.556      -30.986      189.703      119.958       72.203    35987.121    14390.014     5213.288       12.892        2.780      448.680       72.208        0.026      339.083       12.171      858.118
11/19/2013  15:50:00     -187.239     -102.251       18.142      156.377      112.395       70.712    24453.665    12632.726     5000.164        4.396        2.104      213.340       84.326        0.156      339.136       12.260      858.102
11/19/2013  15:51:00     -176.889     -121.117       -5.541      113.795       85.128       54.870    12949.414     7246.711     3010.686        3.459        1.160      214.381       61.161        0.081      339.144       12.272      858.090
11/19/2013  15:52:00     -236.571     -132.926      -18.214      160.399      106.681       63.413    25727.830    11380.924     4021.230        5.754        2.056      271.358       56.265        0.043      339.134       12.256      858.105
11/19/2013  15:53:00     -363.511      -50.373       -2.469      182.244      123.411       85.926    33212.980    15230.281     7383.215        9.524        2.791      366.985       96.053        0.069      339.126       12.243      858.105
11/19/2013  15:54:00     -515.085     -159.454      -19.078      176.741      104.360       71.705    31237.253    10891.052     5141.620       16.918        2.363      539.202       65.954        0.015      339.058       12.129      858.110
11/19/2013  15:55:00     -256.488      -54.650       -2.864      150.722      119.644       71.367    22717.055    14314.690     5093.214        5.544        2.106      262.245       79.691        0.092      339.102       12.203      858.118
11/19/2013  15:56:00     -362.460      -37.861      -27.846      143.952      138.483       62.351    20722.061    19177.429     3887.653        8.868        2.189      364.432       65.999        0.033      339.053       12.119      858.130
11/19/2013  15:57:00     -363.852     -111.401       -6.447      179.408      145.867       86.162    32187.399    21277.068     7423.845       10.285        3.044      380.524       95.167        0.063      339.050       12.115      858.133
11/19/2013  15:58:00     -312.699     -174.986      -13.694      112.601       83.189       54.667    12678.998     6920.444     2988.529        7.558        1.129      358.330       47.949        0.018      339.056       12.126      858.130
11/19/2013  15:59:00     -152.019      -73.977       -4.604       86.745       62.300       40.809     7524.662     3881.314     1665.365        2.083        0.654      169.064       36.588        0.047      339.075       12.158      858.126
11/19/2013  16:00:00     -188.977     -123.329        2.311      119.479       65.188       47.161    14275.224     4249.431     2224.122        3.583        1.037      225.660       58.063        0.066      339.077       12.160      858.108
11/19/2013  16:01:00     -187.569     -163.376        1.682      150.875      127.201       69.796    22763.393    16180.040     4871.466        5.284        2.191      248.744       79.342        0.102      339.076       12.160      858.095
11/19/2013  16:02:00     -249.134     -171.586       -5.411      139.998      124.542       66.391    19599.391    15510.783     4407.786        6.552        1.976      302.505       67.370        0.050      339.063       12.138      858.102
11/19/2013  16:03:00      -42.168      -43.801        5.223      102.135       80.258       62.243    10431.481     6441.318     3874.144        1.223        1.037       60.800       51.469        0.717      339.098       12.196      858.088
11/19/2013  16:04:00     -306.874      -19.225      -25.880      118.301       89.682       51.327    13995.024     8042.949     2634.484        5.994        1.234      307.475       50.582        0.027      339.061       12.132      858.078
11/19/2013  16:05:00     -223.907      -39.358       -8.105       96.190       90.349       47.421     9252.550     8162.905     2248.724        3.570        0.983      227.339       51.278        0.051      339.076       12.159      858.074
11/19/2013  16:06:00     -103.259      -64.895       15.346      115.839       76.827       58.261    13418.727     5902.461     3394.338        1.891        1.136      121.958       66.921        0.301      339.113       12.222      858.060
11/19/2013  16:07:00     -256.499       -2.669      -14.687      115.062       90.577       56.327    13239.323     8204.158     3172.687        4.531        1.231      256.513       46.078        0.032      339.052       12.120      858.054
11/19/2013  16:08:00     -286.795      -57.145      -15.139       93.786       97.301       46.551     8795.800     9467.490     2166.999        5.308        1.022      292.433       36.121        0.015      339.044       12.105      858.048
11/19/2013  16:09:00     -141.035      -73.456        7.199       95.124       78.192       43.101     9048.626     6114.034     1857.671        2.118        0.851      159.018       47.503        0.089      339.083       12.171      858.049
11/19/2013  16:10:00     -208.996      -82.185        1.323      140.439       98.518       50.157    19723.188     9705.775     2515.758        4.118        1.597      224.575       63.242        0.079      339.067       12.143      858.045
11/19/2013  16:11:00     -283.609     -103.902      -10.279      192.494      135.096       73.157    37053.941    18250.918     5352.000        7.598        3.033      302.043       74.883        0.061      339.025       12.074      858.051
11/19/2013  16:12:00     -295.036     -102.955      -13.927      132.932      110.625       59.943    17670.968    12237.829     3593.220        6.566        1.675      312.484       70.791        0.051      339.014       12.054      858.066
11/19/2013  16:13:00     -175.469      -63.961       -4.871      109.563      111.907       74.947    12004.072    12523.148     5617.076        3.252        1.507      186.763       61.658        0.109      339.036       12.092      858.075
11/19/2013  16:14:00     -273.010      -45.526      -11.455      156.300      115.915       58.952    24429.632    13436.234     3475.296        5.903        2.067      276.779       64.121        0.054      339.011       12.049      858.066
11/19/2013  16:15:00     -222.353      -64.383        6.855      134.612      123.352       66.186    18120.285    15215.645     4380.640        4.567        1.886      231.486       74.915        0.105      339.016       12.059      858.046
11/19/2013  16:16:00     -355.412      -81.795       -4.166      152.024      110.998       65.734    23111.357    12320.576     4320.941        8.638        1.988      364.703       77.345        0.045      338.988       12.010      858.031
11/19/2013  16:17:00     -497.494      -82.421      -34.397      112.140      101.750       63.494    12575.415    10352.999     4031.458       14.121        1.348      504.275       59.213        0.014      338.952       11.949      858.000
11/19/2013  16:18:00     -379.932      -60.471      -16.251      132.216      112.431       67.296    17481.161    12640.651     4528.780        9.145        1.733      384.714       72.403        0.035      338.946       11.941      857.994
11/19/2013  16:19:00     -210.400      -64.134        4.021      124.569       83.549       64.319    15517.489     6980.428     4136.871        3.751        1.332      219.957       68.407        0.097      338.990       12.015      857.974
11/19/2013  16:20:00     -231.154       25.663       -1.731      106.109       75.744       54.139    11259.196     5737.159     2931.000        3.701        0.996      232.575       56.431        0.059      338.966       11.974      857.971
11/19/2013  16:21:00     -360.472      -55.322      -19.715      165.576       96.826       64.959    27415.362     9375.197     4219.735        8.719        2.051      364.692       71.832        0.039      338.943       11.934      857.947
11/19/2013  16:22:00     -341.478      -67.246      -40.480      195.531      101.022       73.905    38232.249    10205.540     5461.903        8.832        2.695      348.036       84.716        0.059      338.942       11.935      857.927
11/19/2013  16:23:00     -350.549      -44.977      -15.394      183.678      120.995       76.348    33737.653    14639.682     5828.974        8.966        2.710      353.423       89.968        0.065      338.915       11.887      857.939
11/19/2013  16:24:00     -311.030      -44.890       -6.934      143.749       95.169       64.994    20663.667     9057.182     4224.278        6.637        1.697      314.252       80.020        0.065      338.931       11.915      857.950
11/19/2013  16:25:00     -217.159       11.258        7.198      140.347       98.733       59.727    19697.239     9748.273     3567.327        4.017        1.651      217.450       69.805        0.103      338.926       11.908      857.961
11/19/2013  16:26:00     -208.806        1.420       -1.552       91.668       83.647       53.711     8403.021     6996.895     2884.828        3.094        0.914      208.810       54.393        0.068      338.912       11.882      857.944
11/19/2013  16:27:00     -259.415        0.230        2.089      139.245      100.529       69.494    19389.200    10106.139     4829.359        5.081        1.716      259.415       71.957        0.077      338.926       11.905      857.924
11/19/2013  16:28:00     -205.460      -39.779        8.154      176.503      109.840       59.248    31153.310    12064.835     3510.267        4.529        2.336      209.275       84.544        0.163      338.919       11.896      857.919
11/19/2013  16:29:00     -227.678     -106.714       -1.099      126.870      118.733       62.865    16096.069    14097.635     3952.015        4.868        1.707      251.446       65.043        0.067      338.913       11.886      857.929
11/19/2013  16:30:00     -182.633      -41.945        2.996      157.110       96.305       68.532    24683.539     9274.567     4696.687        3.688        1.933      187.388       82.693        0.195      338.926       11.907      857.939
11/19/2013  16:31:00     -435.942      -85.395      -25.930      223.988      117.032       68.846    50170.712    13696.484     4739.705       13.329        3.430      444.227       75.058        0.029      338.881       11.829      857.948
11/19/2013  16:32:00     -319.986     -111.782       -8.214      134.498      126.246       64.957    18089.799    15938.117     4219.354        7.659        1.912      338.949       58.868        0.030      338.852       11.784      857.964
11/19/2013  16:33:00     -228.039      -25.188        1.756      129.663      114.172       67.115    16812.366    13035.205     4504.362        4.349        1.718      229.425       64.571        0.079      338.851       11.782      857.972
11/19/2013  16:34:00     -287.158      -39.172      -11.828      123.014      116.659       63.803    15132.386    13609.386     4070.777        5.847        1.641      289.817       55.828        0.037      338.836       11.755      857.965
11/19/2013  16:35:00     -224.239      -12.204        1.433      130.489       87.038       60.906    17027.313     7575.625     3709.510        3.937        1.416      224.571       66.024        0.086      338.825       11.736      857.913
11/19/2013  16:36:00     -275.020      -17.333      -12.989      119.501       99.614       57.162    14280.455     9922.880     3267.442        5.178        1.374      275.566       51.261        0.035      338.830       11.745      857.874
11/19/2013  16:37:00     -352.591      -66.735      -19.298      144.800      113.417       53.334    20967.147    12863.407     2844.463        8.290        1.834      358.851       50.038        0.019      338.817       11.723      857.865
11/19/2013  16:38:00     -243.089      -37.331        8.421      160.541       84.837       59.265    25773.340     7197.290     3512.349        4.851        1.824      245.939       66.058        0.072      338.798       11.693      857.869
11/19/2013  16:39:00     -418.904      -28.769      -32.476      170.937      113.108       69.270    29219.606    12793.311     4798.304       11.208        2.341      419.890       88.100        0.044      338.805       11.705      857.870
11/19/2013  16:40:00     -371.675      -97.508      -14.088      175.207      135.397       70.023    30697.583    18332.262     4903.231       10.088        2.697      384.253       74.583        0.038      338.797       11.690      857.852
11/19/2013  16:41:00     -508.645      -49.586      -32.882      126.734      129.071       75.441    16061.619    16659.297     5691.373       15.033        1.921      511.056       69.712        0.019      338.778       11.658      857.854
11/19/2013  16:42:00     -386.547      -80.751      -24.301      162.624      135.661       69.399    26446.421    18403.863     4816.202       10.309        2.483      394.891       66.730        0.029      338.779       11.660      857.830
11/19/2013  16:43:00     -314.749      -91.147        3.240      195.539      129.266       79.315    38235.363    16709.806     6290.904        8.430        3.062      327.681       93.312        0.081      338.778       11.659      857.791
11/19/2013  16:44:00     -408.279      -73.579      -13.836      138.138      115.251       69.762    19082.074    13282.797     4866.802       10.476        1.862      414.856       70.456        0.029      338.777       11.656      857.754
11/19/2013  16:45:00     -395.334      -20.604      -27.569      107.390       93.395       58.022    11532.664     8722.689     3366.599        9.054        1.181      395.871       45.220        0.013      338.788       11.676      857.735
11/19/2013  16:46:00     -278.204       -8.229       -9.542      125.936       87.787       46.364    15859.943     7706.574     2149.621        5.163        1.286      278.325       48.435        0.030      338.786       11.671      857.723
11/19/2013  16:47:00     -172.217      -31.090        4.910      136.723      106.146       53.352    18693.063    11267.043     2846.384        3.172        1.640      175.001       56.781        0.105      338.774       11.652      857.704
11/19/2013  16:48:00     -188.606      -58.463       -4.510      117.051       93.107       49.772    13700.821     8668.949     2477.240        3.192        1.242      197.459       55.124        0.078      338.768       11.641      857.671
11/19/2013  16:49:00     -168.703      -59.896        4.480      144.517      122.450       70.602    20885.292    14994.045     4984.687        3.646        2.043      179.021       74.653        0.174      338.777       11.659      857.621
11/19/2013  16:50:00     -277.739      -67.027      -11.843      107.326       97.824       48.338    11518.908     9569.466     2336.610        5.259        1.171      285.713       48.902        0.029      338.786       11.669      857.589
11/19/2013  16:51:00     -239.876      -29.157       -4.914      109.659       88.052       57.406    12025.203     7753.080     3295.478        4.074        1.154      241.642       50.402        0.044      338.778       11.657      857.565
11/19/2013  16:52:00      -65.482      -72.988       12.368       81.719       83.759       41.416     6678.005     7015.640     1715.247        1.259        0.770       98.057       49.664        0.257      338.782       11.667      857.558
11/19/2013  16:53:00     -157.061      -73.723       -7.025       83.483       53.485       43.149     6969.403     2860.633     1861.795        2.092        0.585      173.503       33.499        0.037      338.791       11.681      857.563
11/19/2013  16:54:00     -126.289      -99.121       17.414      115.877      101.168       55.297    13427.485    10234.967     3057.730        2.639        1.336      160.543       58.030        0.131      338.774       11.652      857.582
11/19/2013  16:55:00     -293.422     -134.948        1.579      181.562      122.116       71.507    32964.855    14912.275     5113.224        7.864        2.650      322.966       95.110        0.087      338.788       11.674      857.584
11/19/2013  16:56:00     -306.675     -174.572      -19.531      149.373      117.433       67.636    22312.170    13790.482     4574.664        8.278        2.034      352.881       62.871        0.032      338.770       11.645      857.610
11/19/2013  16:57:00     -200.352      -65.883        4.341      120.844      104.319       75.374    14603.264    10882.457     5681.257        3.783        1.558      210.907       67.978        0.104      338.766       11.637      857.646
11/19/2013  16:58:00     -397.992     -169.131      -11.564      175.744      157.736       84.499    30886.060    24880.754     7140.064       12.501        3.145      432.439       81.880        0.036      338.757       11.624      857.656
11/19/2013  16:59:00     -342.976      -76.597       -1.904      172.496       89.844       67.886    29755.037     8071.978     4608.524        8.296        2.122      351.425       75.269        0.046      338.756       11.621      857.664
11/19/2013  17:00:00     -171.982      -76.926       -5.008       98.536       88.929       44.902     9709.311     7908.306     2016.207        2.757        0.982      188.402       42.124        0.050      338.749       11.611      857.669
11/19/2013  17:01:00     -146.846     -145.272       -1.695       91.641       83.750       50.888     8398.008     7014.000     2589.576        3.033        0.900      206.561       57.198        0.077      338.771       11.645      857.677
11/19/2013  17:02:00     -104.813     -136.312       -4.503       88.963       83.138       47.010     7914.433     6911.982     2209.975        2.331        0.852      171.950       50.663        0.087      338.762       11.632      857.709
11/19/2013  17:03:00     -150.239      -96.843        4.255      121.673       71.161       50.216    14804.424     5063.918     2521.607        2.717        1.119      178.747       59.390        0.110      338.753       11.618      857.737
11/19/2013  17:04:00     -166.876      -68.285        1.978      126.102       65.747       46.448    15901.693     4322.620     2157.395        2.744        1.119      180.306       57.671        0.102      338.739       11.591      857.753
11/19/2013  17:05:00     -218.093      -32.523        3.238       83.598      102.373       46.891     6988.685    10480.141     2198.806        3.415        0.983      220.505       39.065        0.031      338.733       11.582      857.771
11/19/2013  17:06:00     -180.863      -34.725        7.065       93.943       89.062       49.197     8825.348     7932.087     2420.367        2.657        0.959      184.166       44.529        0.058      338.713       11.550      857.793
11/19/2013  17:07:00      -94.347      -38.311       18.970       92.564       84.033       58.630     8568.131     7061.493     3437.478        1.489        0.953      101.828       56.159        0.304      338.717       11.558      857.784
11/19/2013  17:08:00     -191.649      -45.501       -7.866       87.424       70.100       38.890     7642.937     4914.006     1512.452        2.646        0.703      196.976       38.644        0.038      338.708       11.542      857.737
11/19/2013  17:09:00     -320.242      -23.183      -20.445      105.971       82.845       54.281    11229.790     6863.318     2946.437        6.227        1.052      321.080       56.061        0.030      338.707       11.539      857.676
11/19/2013  17:10:00     -217.609      -86.069       -1.206       96.990       60.096       43.054     9407.116     3611.498     1853.622        3.481        0.744      234.012       49.730        0.045      338.687       11.505      857.637
11/19/2013  17:11:00     -214.356      -20.217      -18.620       83.154       58.238       39.269     6914.649     3391.656     1542.034        2.927        0.592      215.307       17.625        0.007      338.683       11.500      857.646
11/19/2013  17:12:00     -181.358      -30.625      -10.463       54.052       70.453       30.187     2921.617     4963.584      911.281        2.137        0.440      183.925       23.891        0.017      338.675       11.485      857.690
11/19/2013  17:13:00     -155.484      -47.855       -1.105       80.195       70.804       36.189     6431.297     5013.201     1309.620        1.961        0.638      162.682       38.245        0.055      338.680       11.494      857.760
11/19/2013  17:14:00     -124.034      -47.794       -6.346       76.858       64.127       31.963     5907.123     4112.211     1021.621        1.437        0.552      132.923       32.593        0.060      338.686       11.505      857.800
11/19/2013  17:15:00     -125.140      -78.002      -16.016       86.069       59.681       55.680     7407.908     3561.815     3100.263        1.803        0.703      147.460       34.391        0.054      338.719       11.560      857.808
11/19/2013  17:16:00     -100.840      -51.863       15.697       82.951       88.955       41.499     6880.826     7913.001     1722.175        1.481        0.826      113.395       47.919        0.179      338.718       11.560      857.812
11/19/2013  17:17:00     -267.978      -45.673        2.038      175.485       84.902       59.807    30795.076     7208.399     3576.909        5.773        2.079      271.842       84.929        0.098      338.694       11.518      857.793
11/19/2013  17:18:00     -274.550      -75.626      -26.265      114.921       76.657       50.681    13206.878     5876.224     2568.587        5.171        1.083      284.775       57.118        0.040      338.702       11.530      857.777
11/19/2013  17:19:00     -162.133      -42.090      -18.546       82.097       62.452       40.523     6739.854     3900.279     1642.090        2.034        0.614      167.507       37.893        0.051      338.692       11.514      857.730
11/19/2013  17:20:00     -115.769      -12.342      -13.959       54.219       44.403       43.292     2939.695     1971.663     1874.166        1.027        0.339      116.425       34.885        0.090      338.692       11.516      857.693
11/19/2013  17:21:00     -175.823      -59.678      -12.520       79.865       73.007       39.846     6378.489     5330.037     1587.710        2.396        0.665      185.675       38.750        0.044      338.697       11.522      857.669
11/19/2013  17:22:00      -81.358      -29.556      -11.121       69.908       43.290       30.039     4887.159     1874.045      902.329        0.764        0.383       86.560       25.170        0.085      338.670       11.476      857.631
11/19/2013  17:23:00     -210.976       -9.059      -18.832       91.067       70.661       40.363     8293.114     4992.918     1629.134        2.993        0.746      211.170       35.368        0.028      338.644       11.433      857.614
11/19/2013  17:24:00     -217.864      -68.245      -15.070       95.947       57.984       36.975     9205.839     3362.163     1367.180        3.314        0.697      228.302       39.448        0.030      338.645       11.434      857.597
11/19/2013  17:25:00     -235.594      -69.701      -12.679       75.478       77.962       39.973     5696.976     6078.038     1597.874        3.695        0.669      245.688       35.135        0.020      338.642       11.429      857.601
11/19/2013  17:26:00     -218.107      -26.348      -18.237       65.417       65.400       32.577     4279.346     4277.136     1061.230        2.911        0.481      219.693       32.273        0.022      338.631       11.410      857.604
11/19/2013  17:27:00     -133.530      -40.464      -12.313       47.723       27.185       22.007     2277.470      739.024      484.286        1.156        0.175      139.526       16.966        0.015      338.621       11.397      857.598
11/19/2013  17:28:00     -123.065      -66.017       -6.394       75.094       40.182       31.031     5639.137     1614.553      962.935        1.388        0.411      139.654       26.134        0.035      338.637       11.424      857.602
11/19/2013  17:29:00     -168.453      -54.837       -9.929       68.126       63.849       37.611     4641.155     4076.752     1414.574        2.081        0.507      177.154       33.160        0.035      338.628       11.408      857.601
11/19/2013  17:30:00     -272.502      -67.535      -18.518      115.193       78.719       48.317    13269.433     6196.700     2334.503        5.048        1.090      280.746       50.318        0.032      338.634       11.415      857.602
11/19/2013  17:31:00     -175.642      -41.541       -7.216       77.771       76.283       39.848     6048.274     5819.084     1587.899        2.304        0.673      180.488       34.473        0.036      338.612       11.380      857.636
11/19/2013  17:32:00     -262.643       -6.177      -13.690      125.295       76.865       55.536    15698.742     5908.298     3084.240        4.694        1.235      262.716       59.826        0.052      338.635       11.417      857.670
11/19/2013  17:33:00     -144.038       -0.722        6.198      150.556       79.229       46.895    22667.234     6277.294     2199.100        2.596        1.557      144.040       60.022        0.174      338.637       11.423      857.666
11/19/2013  17:34:00     -135.412      -50.367      -11.127       70.888       77.355       35.340     5025.048     5983.789     1248.923        1.663        0.613      144.476       25.553        0.031      338.630       11.410      857.664
11/19/2013  17:35:00     -241.464      -48.683      -10.775       93.979       63.691       43.737     8831.966     4056.536     1912.956        3.779        0.740      246.323       37.065        0.023      338.630       11.411      857.680
11/19/2013  17:36:00     -189.921      -65.597       -0.326       66.184       71.299       34.906     4380.297     5083.480     1218.462        2.553        0.534      200.930       30.092        0.022      338.622       11.398      857.708
11/19/2013  17:37:00     -244.769      -69.820      -11.393      146.546      131.290       43.898    21475.705    17237.005     1927.078        5.277        2.032      254.533       43.944        0.030      338.631       11.412      857.702
11/19/2013  17:38:00     -296.025     -118.803       -6.898      105.142      100.051       55.549    11054.780    10010.219     3085.688        6.297        1.208      318.975       59.504        0.035      338.621       11.394      857.696
11/19/2013  17:39:00     -217.331     -126.248       -1.440      112.034       62.107       44.214    12551.619     3857.306     1954.841        4.076        0.918      251.339       52.719        0.044      338.622       11.397      857.732
11/19/2013  17:40:00     -155.301       -4.055        2.170      102.562       77.744       50.684    10518.985     6044.167     2568.912        2.163        0.957      155.354       50.882        0.107      338.607       11.372      857.760
11/19/2013  17:41:00     -143.210     -134.805      -20.083      116.790       86.234       44.687    13639.822     7436.304     1996.947        3.107        1.154      196.677       47.779        0.059      338.646       11.438      857.784
11/19/2013  17:42:00     -153.073      -92.680        4.516      126.652       80.553       61.542    16040.699     6488.734     3787.433        2.917        1.316      178.944       77.939        0.190      338.634       11.417      857.809
11/19/2013  17:43:00      -75.673      -82.104       -0.201       52.361       44.127       25.885     2741.635     1947.231      670.054        0.891        0.268      111.658       20.157        0.033      338.649       11.444      857.847
11/19/2013  17:44:00      -91.873     -126.948       -8.468       66.662       61.821       34.077     4443.769     3821.781     1161.220        1.703        0.471      156.705       25.877        0.027      338.652       11.448      857.880
11/19/2013  17:45:00     -170.385      -37.536       -8.700       75.261       59.792       29.390     5664.212     3575.080      863.761        2.031        0.505      174.471       33.079        0.036      338.644       11.434      857.887
11/19/2013  17:46:00      -79.467       33.008       -3.790       71.600       30.934       22.673     5126.531      956.927      514.072        0.701        0.330       86.050       26.240        0.093      338.634       11.419      857.870
11/19/2013  17:47:00        0.686      -60.709       12.305       43.556       41.923       20.176     1897.135     1757.501      407.053        0.395        0.203       60.713       12.281        0.041      338.677       11.491      857.852
11/19/2013  17:48:00      -71.533       21.416       -7.475       43.692       36.116       30.174     1909.025     1304.379      910.494        0.488        0.206       74.670       14.094        0.036      338.606       11.371      857.818
11/19/2013  17:49:00        8.033        1.981       20.500       25.746       19.196       15.508      662.879      368.471      240.512        0.088        0.064        8.274       17.614        4.532      338.571       11.313      857.790
11/19/2013  17:50:00       10.771       -9.733       -0.360       14.974       12.552       10.466      224.227      157.554      109.533        0.035        0.025       14.517        8.156        0.316      338.595       11.354      857.764
11/19/2013  17:51:00      -12.222      -89.944        8.570       27.461       39.317       27.202      754.100     1545.811      739.940        0.568        0.152       90.770       11.841        0.017      338.665       11.470      857.758
11/19/2013  17:52:00      -24.264     -149.231        6.484       27.751       29.634       25.179      770.125      878.179      633.964        1.259        0.114      151.191       20.701        0.019      338.650       11.446      857.764
11/19/2013  17:53:00      -74.209      -97.202       -7.563       52.351       46.311       20.661     2740.603     2144.691      426.879        1.016        0.266      122.292       19.102        0.024      338.624       11.401      857.775
11/19/2013  17:54:00      -37.982      -67.292        0.659       21.216       46.994       21.138      450.115     2208.447      446.826        0.454        0.155       77.271       22.770        0.087      338.645       11.436      857.776
11/19/2013  17:55:00      -13.773       -8.276       19.459       30.041       20.675       23.727      902.473      427.456      562.985        0.126        0.095       16.068       20.303        1.597      338.674       11.486      857.788
11/19/2013  17:56:00      -14.671      -15.058       -1.946       27.726       17.161       10.315      768.755      294.514      106.409        0.081        0.058       21.024        9.800        0.217      338.671       11.479      857.800
11/19/2013  17:57:00       -7.341      -69.142       -9.154       40.467       40.204       24.207     1637.615     1616.395      585.989        0.438        0.192       69.530       13.899        0.040      338.589       11.344      857.835
11/19/2013  17:58:00     -112.950      -69.356       -6.443       96.955       69.723       33.803     9400.342     4861.345     1142.640        1.650        0.770      132.544       47.158        0.127      338.573       11.315      857.847
11/19/2013  17:59:00      -86.282      -87.559      -13.417       66.909       48.479       26.250     4476.849     2350.246      689.064        1.140        0.376      122.928       30.426        0.061      338.589       11.343      857.836
11/19/2013  18:00:00      -35.030      -89.044       11.816       35.017       41.481       24.716     1226.195     1720.678      610.886        0.643        0.178       95.686       17.154        0.032      338.610       11.379      857.805
11/19/2013  18:01:00      -50.394      -23.089        3.263       57.542       66.748       23.294     3311.111     4455.274      542.628        0.569        0.415       55.432       31.731        0.328      338.555       11.287      857.784
11/19/2013  18:02:00      -63.874      -13.697        1.408       44.618       67.323       21.767     1990.742     4532.352      473.808        0.563        0.350       65.326       22.930        0.123      338.516       11.221      857.743
11/19/2013  18:03:00      -46.723      -40.400        7.476       59.341       67.016       27.360     3521.404     4491.195      748.550        0.631        0.438       61.767       26.560        0.185      338.556       11.287      857.695
11/19/2013  18:04:00       35.869       -4.069       33.908       42.287       43.927       41.834     1788.153     1929.542     1750.087        0.396        0.273       36.099       31.353        0.754      338.554       11.285      857.650
11/19/2013  18:05:00       30.638      -58.786        7.248       26.439       36.002       23.275      698.996     1296.159      541.705        0.349        0.127       66.291       24.097        0.132      338.594       11.353      857.618
11/19/2013  18:06:00      -15.018       17.596        3.579       21.576       27.658       17.031      465.502      764.966      290.046        0.103        0.076       23.133       15.673        0.459      338.527       11.238      857.589
11/19/2013  18:07:00      -42.295      -41.747        2.028       34.532       37.335       20.214     1192.431     1393.901      408.600        0.326        0.150       59.428       19.929        0.112      338.526       11.236      857.559
11/19/2013  18:08:00      -38.209       -1.233      -23.151       38.994       19.656       28.741     1520.509      386.362      826.038        0.236        0.137       38.229       29.300        0.587      338.559       11.292      857.537
11/19/2013  18:09:00       44.041       57.066       44.774       35.010       36.472       41.579     1225.735     1330.214     1728.798        0.574        0.214       72.085       29.271        0.165      338.501       11.195      857.508
11/19/2013  18:10:00       31.109       50.214       36.467       29.311       26.204       27.937      859.122      686.673      780.456        0.357        0.116       59.069       12.627        0.046      338.522       11.231      857.486
11/19/2013  18:11:00        4.100       22.858       52.263       20.383       33.090       24.076      415.461     1094.972      579.663        0.268        0.105       23.223       26.141        1.267      338.541       11.263      857.478
11/19/2013  18:12:00       -2.618      -16.588       23.303       36.164       50.799       30.329     1307.818     2580.531      919.860        0.282        0.240       16.794       31.587        3.538      338.528       11.242      857.502
11/19/2013  18:13:00      -50.944      -13.283       -6.440       18.173       17.895       15.291      330.262      320.233      233.812        0.185        0.044       52.647       13.649        0.067      338.530       11.243      857.494
11/19/2013  18:14:00       -4.363        6.745        0.092       12.881       16.358       14.681      165.925      267.600      215.536        0.036        0.032        8.033        7.854        0.956      338.488       11.174      857.498
11/19/2013  18:15:00       10.513       22.568       25.460       24.411       22.474       30.097      595.906      505.091      905.841        0.164        0.100       24.897       13.519        0.295      338.413       11.047      857.504
11/19/2013  18:16:00      -32.455      -15.596        5.763       27.681       21.763       13.136      766.258      473.608      172.544        0.137        0.071       36.008       17.150        0.227      338.513       11.216      857.529
11/19/2013  18:17:00      -54.667      -17.647        0.125       22.466       17.187       13.497      504.736      295.393      182.157        0.214        0.049       57.445       10.531        0.034      338.550       11.279      857.538
11/19/2013  18:18:00      -55.388      -40.904        1.407       22.229       23.929       14.658      494.113      572.618      214.864        0.301        0.064       68.854        8.864        0.017      338.562       11.300      857.551
11/19/2013  18:19:00      -15.440      -31.728        9.351       24.030       18.386       13.572      577.417      338.061      184.205        0.122        0.055       35.286       11.754        0.111      338.580       11.328      857.559
11/19/2013  18:20:00      -45.973      -21.940       -0.125       21.541       29.499       18.945      464.017      870.189      358.928        0.214        0.085       50.940       17.717        0.121      338.547       11.273      857.572
11/19/2013  18:21:00      -86.121      -29.981        1.596       32.193       42.904       21.061     1036.421     1840.717      443.563        0.582        0.166       91.191       19.017        0.043      338.569       11.310      857.578
11/19/2013  18:22:00      -44.149      -14.800        8.659       27.498       21.343       14.757      756.157      455.510      217.781        0.184        0.071       46.563        8.513        0.033      338.529       11.243      857.591
11/19/2013  18:23:00      -37.905      -33.761       -5.580       41.605       44.648       27.252     1730.981     1993.409      742.671        0.354        0.223       50.761       20.690        0.166      338.523       11.230      857.607
11/19/2013  18:24:00     -117.393      -27.778        4.629       68.552       42.573       28.748     4699.389     1812.451      826.433        1.095        0.367      120.634       28.387        0.055      338.494       11.183      857.617
11/19/2013  18:25:00     -123.506      -14.801       -6.983       28.907       33.235       26.709      835.593     1104.563      713.386        0.909        0.133      124.389       18.357        0.022      338.555       11.288      857.652
11/19/2013  18:26:00      -89.871      -14.162      -28.418       26.048       32.644       21.829      678.491     1065.663      476.519        0.565        0.111       90.980       18.121        0.040      338.608       11.375      857.665
11/19/2013  18:27:00      -33.542      -27.607        1.949       29.189       31.382       15.837      851.986      984.823      250.821        0.199        0.104       43.442       19.238        0.196      338.547       11.273      857.664
11/19/2013  18:28:00      -42.335        8.596       -0.867       24.472       14.519        9.733      598.886      210.806       94.733        0.139        0.045       43.199       10.776        0.062      338.550       11.280      857.662
11/19/2013  18:29:00      -53.676       30.601      -11.939       60.378       36.417       34.173     3645.493     1326.183     1167.797        0.505        0.307       61.786       39.831        0.416      338.520       11.227      857.644
11/19/2013  18:30:00     -115.165      -12.099       -9.280       65.960       46.611       25.109     4350.718     2172.629      630.466        1.032        0.358      115.799       24.971        0.047      338.453       11.115      857.637
11/19/2013  18:31:00      -70.416       -1.930      -15.117       38.861       42.724       25.366     1510.153     1825.377      643.449        0.458        0.199       70.442       14.448        0.042      338.462       11.130      857.600
11/19/2013  18:32:00     -172.360        7.412      -16.256      101.316       95.373       35.857    10265.003     9095.980     1285.751        2.533        1.032      172.519       13.031        0.006      338.481       11.161      857.557
11/19/2013  18:33:00     -127.490     -110.613        4.854       74.226       60.167       36.995     5509.467     3620.084     1368.594        1.950        0.525      168.787       27.910        0.027      338.454       11.113      857.534
11/19/2013  18:34:00      -71.390      -16.756        4.194       52.953       47.887       26.980     2804.000     2293.120      727.928        0.561        0.291       73.330       28.166        0.148      338.446       11.104      857.532
11/19/2013  18:35:00     -209.935      -21.421      -19.408       51.107       56.026       31.449     2611.904     3138.944      989.048        2.582        0.337      211.025       29.614        0.020      338.485       11.166      857.533
11/19/2013  18:36:00     -130.732      -68.872        5.531       68.050       66.842       31.900     4630.818     4467.849     1017.610        1.599        0.506      147.764       36.506        0.061      338.450       11.109      857.549
11/19/2013  18:37:00     -142.758      -51.996      -12.902       80.165       71.571       42.680     6426.490     5122.409     1821.614        1.831        0.669      151.932       38.702        0.065      338.469       11.139      857.552
11/19/2013  18:38:00      -38.249      -35.972       15.392       63.069       40.522       28.430     3977.701     1642.022      808.288        0.471        0.321       52.507       31.584        0.362      338.489       11.177      857.559
11/19/2013  18:39:00        7.058      -51.171        7.828       32.545       40.769       16.682     1059.186     1662.098      278.282        0.286        0.150       51.656       11.959        0.054      338.546       11.270      857.552
11/19/2013  18:40:00      -20.446      -46.623       -4.718       28.080       30.330       19.820      788.508      919.912      392.848        0.236        0.105       50.909       16.289        0.102      338.554       11.284      857.538
11/19/2013  18:41:00      -93.800      -44.104        1.860       77.243       38.102       36.971     5966.492     1451.758     1366.832        0.976        0.439      103.652       23.339        0.051      338.496       11.184      857.527
11/19/2013  18:42:00      -19.897      -72.419        7.354       33.396       64.604       36.100     1115.264     4173.725     1303.202        0.614        0.330       75.103       34.911        0.216      338.624       11.402      857.467
11/19/2013  18:43:00       -2.620      -53.012        3.885       42.714       59.710       31.798     1824.503     3565.255     1011.097        0.462        0.320       53.076       20.647        0.151      338.611       11.379      857.414
11/19/2013  18:44:00       11.446     -102.321      -16.658       78.143       61.006       42.749     6106.297     3721.760     1827.485        1.126        0.583      102.959       31.700        0.095      338.621       11.395      857.404
11/19/2013  18:45:00       96.320     -137.204      -17.109       49.020       52.290       28.316     2402.977     2734.291      801.784        1.717        0.297      167.638       23.885        0.020      338.555       11.285      857.410
11/19/2013  18:46:00       59.589      -23.509       34.357       54.993       54.813       41.150     3024.234     3004.516     1693.296        0.650        0.386       64.058       27.065        0.179      338.457       11.122      857.401
11/19/2013  18:47:00       22.939      -87.403       11.113       36.902       48.171       37.413     1361.731     2320.445     1399.751        0.668        0.254       90.363       27.744        0.094      338.612       11.382      857.401
11/19/2013  18:48:00        2.143      -36.944        5.827       18.811       26.273       21.246      353.839      690.249      451.382        0.145        0.075       37.006       18.036        0.238      338.583       11.334      857.398
11/19/2013  18:49:00      -28.847       13.769        8.253       12.330       20.504       12.570      152.037      420.431      158.001        0.091        0.037       31.964        6.756        0.045      338.591       11.348      857.383
11/19/2013  18:50:00       -3.411      -25.212        9.280       16.490       29.682       16.447      271.922      881.036      270.501        0.108        0.071       25.442       11.534        0.206      338.574       11.319      857.371
11/19/2013  18:51:00       13.422       31.026       44.863       21.353       56.340       38.122      455.943     3174.223     1453.301        0.412        0.254       33.805       40.850        1.460      338.532       11.248      857.343
11/19/2013  18:52:00        5.761       58.727       86.811       31.875       44.162       22.515     1016.031     1950.270      506.913        0.725        0.174       59.009       22.483        0.145      338.529       11.242      857.311
11/19/2013  18:53:00        2.213       51.485       99.588       33.608       65.697       39.865     1129.479     4316.079     1589.252        0.980        0.352       51.533       41.559        0.650      338.526       11.237      857.272
11/19/2013  18:54:00       23.742       67.367       87.302       38.458       46.466       26.879     1479.005     2159.126      722.477        0.854        0.218       71.428       27.047        0.143      338.495       11.187      857.242
11/19/2013  18:55:00       22.043       16.862       33.362       38.956       42.208       36.765     1517.532     1781.491     1351.666        0.327        0.233       27.753       32.701        1.388      338.470       11.141      857.234
11/19/2013  18:56:00       29.278       -0.720       26.268       27.631       27.704       18.546      763.485      767.519      343.954        0.171        0.094       29.287       15.336        0.274      338.431       11.077      857.245
11/19/2013  18:57:00       -6.681        5.040       23.931       30.943       24.707       14.431      957.464      610.447      208.241        0.121        0.089        8.369       15.501        3.431      338.397       11.021      857.241
11/19/2013  18:58:00      -32.238       44.937        1.079       35.017       29.493       21.424     1226.181      869.839      458.982        0.281        0.128       55.305       19.793        0.128      338.416       11.052      857.237
11/19/2013  18:59:00      -47.350       23.654        7.782       29.632       24.803       18.833      878.027      615.209      354.689        0.235        0.092       52.930       18.795        0.126      338.434       11.084      857.227
11/19/2013  19:00:00      -67.471       18.789       -1.763       28.295       16.543       17.415      800.598      273.660      303.290        0.314        0.069       70.039        7.082        0.010      338.467       11.138      857.210
11/19/2013  19:01:00      -51.923       60.913       -6.557       25.456       30.657       18.229      647.983      939.839      332.286        0.418        0.096       80.040       12.365        0.024      338.524       11.234      857.182
11/19/2013  19:02:00        6.736       82.436       -8.032       27.947       17.804       16.724      781.037      316.997      279.707        0.414        0.069       82.711        9.664        0.014      338.531       11.245      857.167
11/19/2013  19:03:00       47.612       44.526        1.614       25.105       32.980       26.871      630.285     1087.653      722.051        0.335        0.122       65.188       22.719        0.121      338.433       11.080      857.165
11/19/2013  19:04:00       11.454      117.302      -18.320       34.298       55.988       24.576     1176.339     3134.696      603.999        0.957        0.246      117.860       23.375        0.039      338.536       11.256      857.185
11/19/2013  19:05:00       28.579       43.691       -5.010       38.560       29.334       24.168     1486.846      860.464      584.094        0.284        0.147       52.208       17.383        0.111      338.555       11.288      857.215
11/19/2013  19:06:00      -41.832       14.829      -11.777       21.614       20.569       13.142      467.175      423.097      172.711        0.159        0.053       44.382        9.502        0.046      338.553       11.282      857.236
11/19/2013  19:07:00      -78.699      -55.383       -0.944       45.541       34.851       19.908     2074.024     1214.585      396.311        0.647        0.184       96.233       15.954        0.027      338.526       11.237      857.252
11/19/2013  19:08:00        6.316      -27.019       15.058       16.477       22.708       13.592      271.498      515.642      184.753        0.098        0.049       27.747       13.221        0.227      338.522       11.230      857.254
11/19/2013  19:09:00      -92.966      -50.671        0.651       37.350       24.172       21.246     1395.033      584.296      451.373        0.682        0.122      105.879       16.338        0.024      338.532       11.247      857.261
11/19/2013  19:10:00      -99.893      -59.680       -5.818       36.743       35.499       19.556     1350.038     1260.212      382.425        0.828        0.150      116.363       19.878        0.029      338.527       11.238      857.264
11/19/2013  19:11:00      -60.715      -67.162        0.554       47.256       34.359       23.501     2233.106     1180.560      552.309        0.608        0.198       90.537       25.002        0.076      338.512       11.212      857.260
11/19/2013  19:12:00       48.011      -22.761       22.314       45.930       34.544       29.392     2109.582     1193.312      863.919        0.374        0.208       53.133       17.452        0.108      338.554       11.284      857.237
11/19/2013  19:13:00       20.691        4.808       41.822       36.333       57.203       32.033     1320.121     3272.238     1026.101        0.391        0.281       21.242       34.600        2.653      338.549       11.277      857.217
11/19/2013  19:14:00       30.518       25.090       45.082       29.157       23.173       23.498      850.149      536.999      552.136        0.277        0.097       39.508       11.251        0.081      338.520       11.227      857.225
11/19/2013  19:15:00      -68.773       -1.010       10.820       33.972       19.209       20.082     1154.121      368.977      403.296        0.339        0.096       68.780       16.861        0.060      338.520       11.227      857.241
11/19/2013  19:16:00      -80.208      -52.047        0.639       57.785       38.263       24.062     3339.063     1464.021      578.963        0.726        0.269       95.615       27.506        0.083      338.583       11.333      857.267
11/19/2013  19:17:00     -118.662     -118.364       -9.044       66.712       48.213       25.833     4450.476     2324.506      667.329        1.781        0.372      167.603       25.148        0.023      338.572       11.316      857.288
11/19/2013  19:18:00     -245.657     -179.384      -12.781       99.063       67.384       48.687     9813.400     4540.549     2370.458        5.470        0.836      304.180       42.910        0.020      338.570       11.309      857.294
11/19/2013  19:19:00     -325.554     -131.507       -5.276      147.117      123.263       62.064    21643.305    15193.803     3851.937        8.199        2.034      351.112       66.153        0.035      338.591       11.344      857.252
11/19/2013  19:20:00     -246.808     -190.813       -5.631      114.171      103.484       59.876    13034.959    10709.034     3585.158        6.234        1.366      311.967       58.084        0.035      338.622       11.396      857.223
11/19/2013  19:21:00     -164.471     -107.241        6.735      125.347      106.959       63.944    15711.983    11440.287     4088.899        3.491        1.562      196.345       65.019        0.110      338.609       11.375      857.203
11/19/2013  19:22:00     -308.360      -84.476       -0.402      136.970      105.733       61.548    18760.823    11179.564     3788.189        6.797        1.686      319.722       68.558        0.046      338.628       11.406      857.168
11/19/2013  19:23:00     -348.286      -54.378      -10.013      139.301      106.158       72.263    19404.811    11269.459     5221.935        8.012        1.795      352.505       79.287        0.051      338.619       11.389      857.155
11/19/2013  19:24:00     -234.237     -151.510       -5.748      122.930      129.799       63.186    15111.674    16847.884     3992.408        5.690        1.798      278.966       66.195        0.056      338.628       11.405      857.171
11/19/2013  19:25:00     -159.581     -108.380        5.898       89.911       73.217       46.742     8084.049     5360.679     2184.844        2.644        0.781      192.905       46.832        0.059      338.647       11.437      857.197
11/19/2013  19:26:00     -222.761     -133.094       -7.305      102.014       65.158       46.745    10406.869     4245.571     2185.087        4.211        0.842      259.492       48.705        0.035      338.634       11.417      857.217
11/19/2013  19:27:00     -183.281      -90.449       13.209      110.722       67.440       39.463    12259.467     4548.129     1557.300        3.015        0.918      204.384       43.443        0.045      338.579       11.325      857.209
11/19/2013  19:28:00     -121.056     -118.424        0.742       88.402       53.372       39.845     7814.826     2848.532     1587.639        2.046        0.613      169.348       37.106        0.048      338.597       11.356      857.201
11/19/2013  19:29:00     -171.731      -92.666        3.506       80.646       45.981       38.255     6503.849     2114.274     1463.452        2.408        0.504      195.138       41.325        0.045      338.574       11.315      857.185
11/19/2013  19:30:00     -114.941      -73.786        0.691       57.270       49.190       35.288     3279.900     2419.623     1245.216        1.280        0.347      136.587       31.771        0.054      338.576       11.322      857.172
11/19/2013  19:31:00      -91.036      -75.956        8.627       89.722       72.865       37.870     8050.115     5309.243     1434.116        1.446        0.740      118.561       34.553        0.085      338.575       11.319      857.159
11/19/2013  19:32:00     -152.111     -122.481        7.059      102.550       81.403       45.886    10516.596     6626.520     2105.483        2.872        0.962      195.293       52.057        0.071      338.559       11.292      857.146
11/19/2013  19:33:00     -119.895      -88.606       -6.931      105.702       96.696       59.015    11172.962     9350.138     3482.720        2.314        1.200      149.083       56.522        0.144      338.573       11.314      857.138
11/19/2013  19:34:00     -187.818     -116.409       -4.646       91.772       73.141       53.730     8422.175     5349.610     2886.910        3.275        0.833      220.968       58.699        0.071      338.532       11.245      857.144
11/19/2013  19:35:00     -245.232     -118.948       -2.459       97.803       62.045       40.414     9565.376     3849.602     1633.256        4.467        0.752      272.557       28.150        0.011      338.526       11.234      857.167
11/19/2013  19:36:00     -140.424      -81.474        1.059       56.621       55.951       33.714     3205.971     3130.537     1136.629        1.691        0.374      162.348       21.959        0.018      338.520       11.225      857.187
11/19/2013  19:37:00     -108.901     -126.391        0.016       48.999       54.862       34.961     2400.856     3009.854     1222.264        1.723        0.332      166.836       29.365        0.031      338.550       11.277      857.205
11/19/2013  19:38:00      -45.280      -46.734       12.139       54.790       35.948       25.383     3001.988     1292.274      644.304        0.466        0.247       65.072       30.482        0.219      338.564       11.301      857.200
11/19/2013  19:39:00      -67.022      -34.095       11.777       69.670       61.947       32.204     4853.939     3837.388     1037.122        0.776        0.486       75.196       23.748        0.100      338.522       11.231      857.201
11/19/2013  19:40:00      -56.745      -68.887       17.375       92.545       70.432       43.341     8564.621     4960.639     1878.425        1.183        0.770       89.249       50.849        0.325      338.564       11.302      857.194
11/19/2013  19:41:00     -113.690      -90.288       -6.084       60.775       57.843       34.368     3693.568     3345.804     1181.163        1.467        0.411      145.181       30.289        0.044      338.546       11.271      857.179
11/19/2013  19:42:00      -42.224      -97.449       -7.510       42.072       60.455       23.941     1770.038     3654.802      573.165        0.867        0.300      106.203       16.488        0.024      338.568       11.307      857.177
11/19/2013  19:43:00     -150.179      -98.206       -4.631       77.066       64.934       42.446     5939.222     4216.366     1801.629        2.209        0.598      179.439       39.550        0.049      338.564       11.300      857.179
11/19/2013  19:44:00      -84.991      -90.429        8.223       94.092       56.751       41.024     8853.397     3220.683     1682.988        1.461        0.688      124.100       37.356        0.091      338.561       11.297      857.185
11/19/2013  19:45:00      -25.470      -70.211       -6.110       50.308       43.570       31.437     2530.887     1898.379      988.291        0.552        0.271       74.688       20.182        0.073      338.633       11.418      857.196
11/19/2013  19:46:00      -67.952      -34.529       -2.607       41.969       29.859       21.636     1761.407      891.545      468.106        0.447        0.156       76.222       16.701        0.048      338.555       11.288      857.206
11/19/2013  19:47:00      -66.446      -78.670       -4.235       44.846       38.348       28.234     2011.208     1470.583      797.141        0.745        0.214      102.976       23.057        0.050      338.548       11.273      857.190
11/19/2013  19:48:00      -24.944      -13.716        1.587       19.132       15.141       11.242      366.047      229.244      126.383        0.077        0.036       28.466        7.433        0.068      338.574       11.318      857.187
11/19/2013  19:49:00       19.807       15.867       10.256       23.050       21.113       19.948      531.296      445.758      397.931        0.106        0.069       25.378       11.644        0.211      338.569       11.309      857.199
11/19/2013  19:50:00       72.789      -44.811        5.665       61.446       83.556       48.353     3775.633     6981.571     2338.057        1.021        0.655       85.477       62.748        0.539      338.546       11.271      857.232
11/19/2013  19:51:00        2.085       50.435       78.668       26.189       40.920       24.356      685.890     1674.441      593.238        0.584        0.148       50.478       24.711        0.240      338.542       11.264      857.284
11/19/2013  19:52:00       -0.783        3.647       34.098       15.135       39.091       24.581      229.061     1528.100      604.207        0.177        0.118        3.730       27.107       52.801      338.575       11.321      857.344
11/19/2013  19:53:00        7.461        8.721       29.224       19.849       27.935       23.264      394.002      780.375      541.196        0.135        0.086       11.477       23.319        4.128      338.582       11.331      857.380
11/19/2013  19:54:00       35.798       25.713       16.981       32.632       17.097       25.085     1064.845      292.307      629.260        0.211        0.099       44.076       11.012        0.062      338.496       11.188      857.386
11/19/2013  19:55:00       20.456       26.566       -1.175       21.309       12.612       14.892      454.056      159.059      221.786        0.098        0.042       33.529       10.059        0.090      338.469       11.139      857.419
11/19/2013  19:56:00      -74.048       26.144      -10.825       34.512       19.004       15.949     1191.090      361.156      254.363        0.404        0.090       78.528       18.648        0.056      338.484       11.167      857.467
11/19/2013  19:57:00       -8.118       70.805       -6.887       26.850       18.725       19.791      720.917      350.613      391.691        0.329        0.073       71.269       12.954        0.033      338.501       11.196      857.498
11/19/2013  19:58:00       -5.131       46.111       16.515       24.813       17.913       17.600      615.677      320.887      309.767        0.184        0.062       46.396       11.370        0.060      338.507       11.206      857.503
11/19/2013  19:59:00        3.218       31.687       -1.010        9.757       17.859       10.733       95.192      318.961      115.191        0.077        0.026       31.850        9.150        0.083      338.507       11.207      857.511
11/19/2013  20:00:00       -1.514        4.456       10.523       12.677       14.432        7.701      160.703      208.281       59.298        0.028        0.021        4.706        4.805        1.043      338.517       11.222      857.516
11/19/2013  20:01:00      -21.198        5.293       12.458       43.124       13.534       17.568     1859.717      183.162      308.632        0.149        0.118       21.849       26.076        1.424      338.499       11.193      857.532
11/19/2013  20:02:00      -68.170        5.074       -4.793       16.241       21.457       12.028      263.759      460.383      144.674        0.278        0.043       68.359        9.314        0.019      338.518       11.224      857.586
11/19/2013  20:03:00      -30.177       -5.667       -0.164       25.045       11.753       10.072      627.247      138.132      101.453        0.090        0.043       30.704       11.131        0.131      338.455       11.117      857.595
11/19/2013  20:04:00      -85.107      -14.178        6.867       46.544       35.275       21.895     2166.367     1244.355      479.395        0.569        0.195       86.280       22.487        0.068      338.508       11.205      857.583
11/19/2013  20:05:00      -17.392       19.544        8.985       61.505       50.025       33.723     3782.874     2502.533     1137.256        0.409        0.371       26.162       40.407        2.385      338.542       11.265      857.545
11/19/2013  20:06:00       -1.304       38.136       65.927       38.853       65.817       34.387     1509.565     4331.935     1182.464        0.641        0.351       38.158       40.007        1.099      338.438       11.088      857.529
11/19/2013  20:07:00       24.002      -16.136       39.657       60.117       68.295       42.444     3614.056     4664.175     1801.463        0.624        0.504       28.922       46.649        2.602      338.442       11.096      857.523
11/19/2013  20:08:00       -6.911       52.565       73.403       18.381       38.061       22.278      337.845     1448.654      496.304        0.524        0.114       53.018       20.821        0.154      338.479       11.158      857.509
11/19/2013  20:09:00       11.819       16.833       54.833       27.885       33.351       33.549      777.581     1112.322     1125.520        0.322        0.151       20.568       24.485        1.417      338.494       11.183      857.491
11/19/2013  20:10:00      -12.511       -4.703        9.146       27.628       26.568       24.463      763.316      705.882      598.419        0.116        0.103       13.366       18.144        1.843      338.543       11.266      857.470
11/19/2013  20:11:00      -13.606       13.574       19.311       20.504       17.539       20.083      420.434      307.626      403.317        0.094        0.057       19.219        8.459        0.194      338.544       11.268      857.462
11/19/2013  20:12:00      -30.936       19.497       16.596       27.598       24.653       21.969      761.644      607.770      482.649        0.173        0.093       36.568       15.476        0.179      338.527       11.240      857.441
11/19/2013  20:13:00      -12.532       -3.408        6.266       27.102       20.285       15.275      734.513      411.465      233.326        0.079        0.069       12.987       16.956        1.705      338.550       11.277      857.423
11/19/2013  20:14:00      -65.741       25.915        1.620       25.103       16.751       14.634      630.151      280.599      214.162        0.306        0.056       70.664       12.053        0.029      338.501       11.196      857.398
11/19/2013  20:15:00      -78.124       -8.708       -5.665       35.689       25.702       21.157     1273.671      660.589      447.608        0.430        0.119       78.608       17.281        0.048      338.472       11.146      857.371
11/19/2013  20:16:00       24.668      -67.836       -4.475       28.291       35.876       24.747      800.360     1287.099      612.434        0.396        0.135       72.182       23.341        0.105      338.570       11.311      857.328
11/19/2013  20:17:00      -56.777      -58.450      -10.430       41.194       33.760       22.632     1696.963     1139.714      512.215        0.505        0.167       81.486       19.072        0.055      338.613       11.384      857.285
11/19/2013  20:18:00      -60.425      -32.259       -4.930       40.752       25.780       22.918     1660.743      664.621      525.240        0.378        0.143       68.497       24.814        0.131      338.546       11.271      857.278
11/19/2013  20:19:00      -16.730      -29.867      -12.359       21.700       24.708       16.521      470.900      610.488      272.941        0.134        0.068       34.234       12.361        0.130      338.565       11.303      857.286
11/19/2013  20:20:00      -71.628      -44.443        1.179       57.435       33.598       23.803     3298.723     1128.827      566.589        0.605        0.250       84.295       25.439        0.091      338.579       11.327      857.305
11/19/2013  20:21:00      -37.220      -84.787        4.798       48.015       72.882       27.300     2305.415     5311.800      745.271        0.848        0.418       92.597       18.863        0.042      338.578       11.324      857.320
11/19/2013  20:22:00      -98.472     -195.446      -12.376       46.918       37.585       23.811     2201.319     1412.598      566.964        2.611        0.209      218.851       20.078        0.008      338.498       11.187      857.335
11/19/2013  20:23:00     -158.071      -93.426       -9.674       55.426       43.332       39.274     3071.987     1877.677     1542.419        2.015        0.325      183.616       33.969        0.034      338.478       11.154      857.364
11/19/2013  20:24:00      -68.491      -39.423        0.181       60.795       32.730       17.662     3696.046     1071.242      311.938        0.566        0.254       79.027       23.546        0.089      338.443       11.096      857.406
11/19/2013  20:25:00      -81.633      -80.822       -1.583       42.850       87.557       20.387     1836.091     7666.248      415.637        1.156        0.496      114.874       22.328        0.038      338.464       11.133      857.416
11/19/2013  20:26:00      -85.741     -198.059      -10.017       38.084       41.664       23.525     1450.401     1735.916      553.446        2.521        0.187      215.822       11.461        0.003      338.492       11.179      857.428
11/19/2013  20:27:00      -48.341     -104.478       -8.855       40.300       46.029       22.487     1624.102     2118.700      505.673        0.879        0.212      115.119       23.214        0.041      338.498       11.190      857.428
11/19/2013  20:28:00      -75.400      -74.165       -7.278       48.864       29.540       20.979     2387.720      872.604      440.128        0.747        0.185      105.762       19.007        0.032      338.453       11.114      857.429
11/19/2013  20:29:00     -142.441      -94.710        1.189       57.097       55.834       33.261     3260.056     3117.491     1106.289        1.837        0.374      171.054       24.877        0.021      338.466       11.134      857.459
11/19/2013  20:30:00      -48.139      -87.709       31.115      116.716      118.410       72.295    13622.545    14020.898     5226.631        2.192        1.644      100.051       82.889        0.686      338.420       11.058      857.481
11/19/2013  20:31:00      -88.282      -81.684        8.228       75.579       64.437       34.415     5712.246     4152.108     1184.422        1.279        0.552      120.275       34.891        0.084      338.413       11.047      857.495
11/19/2013  20:32:00     -178.263     -118.890       -2.342      101.644       55.320       38.921    10331.509     3060.344     1514.808        3.041        0.745      214.272       41.948        0.038      338.381       10.990      857.493
11/19/2013  20:33:00     -130.683     -135.931      -10.242       93.522       66.539       51.885     8746.404     4427.482     2692.008        2.576        0.793      188.561       51.422        0.074      338.370       10.973      857.473
11/19/2013  20:34:00     -119.043        5.977        9.555       92.394       77.691       38.304     8536.669     6035.843     1467.232        1.517        0.802      119.192       33.141        0.077      338.338       10.921      857.450
11/19/2013  20:35:00     -292.023     -134.364       -3.275      107.094       91.395       62.966    11469.231     8353.107     3964.664        6.356        1.189      321.452       62.556        0.038      338.309       10.870      857.415
11/19/2013  20:36:00     -136.299      -70.351        0.019       95.415       67.155       38.885     9103.972     4509.825     1512.017        1.932        0.756      153.384       44.725        0.085      338.275       10.814      857.395
11/19/2013  20:37:00     -218.991      -43.911       -7.486      109.905       97.383       51.618    12079.141     9483.491     2664.414        3.708        1.211      223.350       44.012        0.039      338.245       10.762      857.402
11/19/2013  20:38:00     -188.408      -71.892        7.145      124.173       85.573       54.486    15418.905     7322.758     2968.726        3.321        1.286      201.658       54.009        0.072      338.226       10.731      857.405
11/19/2013  20:39:00      -81.366      -67.396       12.326       64.931       78.332       40.447     4215.988     6135.899     1635.991        1.165        0.599      105.653       26.445        0.063      338.212       10.710      857.400
11/19/2013  20:40:00     -318.160      -67.683      -27.614      125.277       70.385       43.850    15694.367     4954.109     1922.804        6.457        1.129      325.280       37.825        0.014      338.204       10.693      857.425
11/19/2013  20:41:00     -111.958        1.749       -0.329       40.365       65.355       30.731     1629.331     4271.284      944.394        0.969        0.342      111.971       28.713        0.066      338.182       10.658      857.438
11/19/2013  20:42:00     -163.289      -80.008       -2.431      123.656       88.473       59.531    15290.697     7827.414     3543.899        2.986        1.333      181.836       57.931        0.101      338.178       10.649      857.434
11/19/2013  20:43:00     -187.472     -146.474      -12.669      127.662       84.933       64.495    16297.539     7213.602     4159.667        4.221        1.384      237.908       71.902        0.091      338.155       10.611      857.438
11/19/2013  20:44:00     -159.683     -132.706       -6.260      122.506       92.981       63.915    15007.800     8645.414     4085.107        3.544        1.387      207.628       71.262        0.118      338.145       10.594      857.424
11/19/2013  20:45:00     -190.952     -123.631       -2.070      133.714       89.557       56.947    17879.317     8020.499     3242.956        4.044        1.457      227.480       71.324        0.098      338.104       10.526      857.433
11/19/2013  20:46:00      -78.415      -67.633       10.868       93.917       62.207       47.329     8820.375     3869.727     2240.019        1.288        0.747      103.553       40.154        0.150      338.127       10.567      857.442
11/19/2013  20:47:00     -309.456      -95.347      -11.650      149.456       96.328       61.306    22337.146     9279.153     3758.405        7.018        1.769      323.812       73.833        0.052      338.048       10.432      857.443
11/19/2013  20:48:00     -295.018     -156.320      -19.927       93.972      100.933       59.873     8830.792    10187.380     3584.811        6.723        1.130      333.874       43.272        0.017      338.061       10.453      857.438
11/19/2013  20:49:00     -326.078      -55.481      -17.520      169.575      123.294       65.976    28755.554    15201.322     4352.819        7.900        2.415      330.765       67.913        0.042      338.025       10.393      857.425
11/19/2013  20:50:00     -217.725     -178.482       -3.916      163.697      108.575       59.013    26796.841    11788.604     3482.511        6.066        2.103      281.531       64.478        0.052      338.037       10.413      857.452
11/19/2013  20:51:00     -193.586     -156.115        9.783      143.405      100.921       61.053    20564.958    10185.113     3727.427        4.820        1.724      248.692       58.042        0.054      338.010       10.368      857.418
11/19/2013  20:52:00      -96.431     -119.710        7.494      130.003      112.811       69.886    16900.879    12726.398     4883.999        2.909        1.726      153.719       73.566        0.229      337.923       10.223      857.427
11/19/2013  20:53:00     -383.358      -40.870      -23.695      202.026      125.350       70.661    40814.626    15712.559     4993.017       10.535        3.076      385.530       69.027        0.032      337.882       10.151      857.446
11/19/2013  20:54:00     -517.694     -144.747       -8.815      207.002      143.977       83.372    42849.773    20729.319     6950.882       17.977        3.526      537.549       89.080        0.027      337.827       10.060      857.410
11/19/2013  20:55:00     -308.209     -156.090        2.921      170.081      128.562       72.258    28927.451    16528.081     5221.199        8.501        2.534      345.481       79.446        0.053      337.796       10.007      857.442
11/19/2013  20:56:00     -216.718      -79.118       -6.232      110.060      114.899       58.749    12113.262    13201.692     3451.397        4.101        1.438      230.708       49.059        0.045      337.788        9.996      857.476
11/19/2013  20:57:00     -269.616      -50.380      -20.403       69.827       57.795       40.064     4875.772     3340.256     1605.107        4.273        0.491      274.283       27.812        0.010      337.809       10.029      857.490
11/19/2013  20:58:00     -166.523      -51.594       -4.377       67.223       67.663       35.710     4518.958     4578.293     1275.188        2.039        0.519      174.333       37.401        0.046      337.774        9.973      857.479
11/19/2013  20:59:00     -156.683      -38.905       -4.383      108.400       95.258       45.056    11750.480     9073.998     2030.029        2.446        1.143      161.441       48.639        0.091      337.800       10.017      857.478
11/19/2013  21:00:00     -200.193     -122.207       -4.053      117.145      108.210       63.554    13723.033    11709.370     4039.052        4.224        1.474      234.546       72.602        0.096      337.781        9.985      857.477
11/19/2013  21:01:00     -182.305     -132.466      -12.345      138.929       76.429       52.869    19301.210     5841.409     2795.105        3.943        1.397      225.349       67.272        0.089      337.744        9.923      857.485
11/19/2013  21:02:00     -144.614      -90.989       -7.208       94.344       71.448       47.061     8900.871     5104.768     2214.711        2.273        0.811      170.857       43.679        0.065      337.711        9.868      857.483
11/19/2013  21:03:00     -205.238     -109.320      -12.020       93.261       58.791       47.829     8697.576     3456.341     2287.624        3.433        0.722      232.537       51.551        0.049      337.682        9.818      857.484
11/19/2013  21:04:00     -123.825      -94.899        4.760       84.015       95.403       42.598     7058.556     9101.813     1814.568        2.116        0.899      156.008       53.301        0.117      337.656        9.778      857.479
11/19/2013  21:05:00     -125.851     -110.672       -2.986       99.903       91.765       37.372     9980.657     8420.770     1396.653        2.394        0.990      167.591       40.484        0.058      337.670        9.798      857.451
11/19/2013  21:06:00     -246.055      -75.504      -12.996      103.396       86.710       44.956    10690.711     7518.583     2021.083        4.332        1.012      257.379       45.827        0.032      337.628        9.727      857.439
11/19/2013  21:07:00     -203.162      -52.062        1.695      115.473       77.420       45.274    13333.978     5993.782     2049.760        3.268        1.069      209.726       59.219        0.080      337.580        9.648      857.427
11/19/2013  21:08:00     -239.797       -6.705       -4.344       81.836       80.306       47.269     6697.127     6449.081     2234.403        3.647        0.769      239.891       39.994        0.028      337.586        9.656      857.424
11/19/2013  21:09:00     -161.985      -34.881       -6.495      102.747      105.499       57.092    10556.844    11129.992     3259.535        2.622        1.247      165.698       51.595        0.097      337.604        9.688      857.441
11/19/2013  21:10:00     -174.178      -48.320      -15.433       52.954       66.396       34.861     2804.076     4408.487     1215.311        2.067        0.421      180.756       25.377        0.020      337.600        9.682      857.457
11/19/2013  21:11:00     -160.349      -87.980        0.229      139.930       77.570       48.495    19580.500     6017.037     2351.739        3.070        1.397      182.900       66.816        0.133      337.580        9.647      857.458
11/19/2013  21:12:00     -116.598     -103.532        7.606      126.748       76.309       51.587    16064.977     5823.077     2661.188        2.446        1.227      155.929       61.690        0.157      337.571        9.634      857.469
11/19/2013  21:13:00      -72.864      -31.859       21.391       95.208       64.692       53.612     9064.507     4185.053     2874.225        1.145        0.806       79.525       53.659        0.455      337.585        9.659      857.477
11/19/2013  21:14:00     -109.376     -112.105       -9.320       67.194       70.853       34.717     4515.043     5020.206     1205.278        1.768        0.537      156.623       31.130        0.040      337.586        9.658      857.481
11/19/2013  21:15:00     -167.720     -150.093       -1.172       87.267       86.705       49.059     7615.515     7517.704     2406.775        3.410        0.877      225.073       51.590        0.053      337.541        9.579      857.481
11/19/2013  21:16:00     -205.105     -143.105        2.376       91.146       57.588       40.105     8307.589     3316.418     1608.419        3.789        0.662      250.094       47.001        0.035      337.524        9.554      857.497
11/19/2013  21:17:00     -172.669      -85.795        0.394       88.923       77.228       41.612     7907.375     5964.181     1731.522        2.639        0.780      192.809       47.901        0.062      337.555        9.606      857.505
11/19/2013  21:18:00     -138.190     -130.360       -0.156       61.451       70.103       30.239     3776.186     4914.483      914.380        2.285        0.480      189.974       27.238        0.021      337.590        9.664      857.508
11/19/2013  21:19:00     -211.799      -49.453       -6.259       74.310       56.441       42.124     5522.024     3185.590     1774.446        2.891        0.524      217.496       40.269        0.034      337.564        9.619      857.509
11/19/2013  21:20:00     -159.085      -61.619      -21.479       84.701       71.926       35.701     7174.264     5173.323     1274.562        2.159        0.681      170.602       39.419        0.053      337.586        9.659      857.507
11/19/2013  21:21:00      -73.521      -33.114       14.405       72.664       65.434       43.717     5280.029     4281.614     1911.186        0.909        0.574       80.635       46.691        0.335      337.613        9.705      857.507
11/19/2013  21:22:00     -177.066      -81.848      -20.200       75.765       61.315       32.637     5740.382     3759.558     1065.142        2.451        0.528      195.068       26.937        0.019      337.629        9.730      857.514
11/19/2013  21:23:00     -198.259     -129.084       -2.890       71.603       69.798       37.650     5127.053     4871.747     1417.522        3.369        0.571      236.578       34.675        0.021      337.626        9.725      857.518
11/19/2013  21:24:00     -139.804      -43.866        2.363       70.007       66.235       35.763     4900.966     4387.101     1278.957        1.602        0.528      146.524       32.572        0.049      337.615        9.709      857.521
11/19/2013  21:25:00      -93.540      -40.884      -15.252       58.549       36.645       26.125     3427.955     1342.844      682.506        0.805        0.273      102.084       25.854        0.064      337.648        9.764      857.536
11/19/2013  21:26:00     -142.755     -103.019        5.011       98.324       68.434       44.803     9667.643     4683.213     2007.294        2.368        0.818      176.045       54.062        0.094      337.748        9.930      857.546
11/19/2013  21:27:00     -163.270      -89.390       -3.440      109.674       77.051       47.063    12028.322     5936.914     2214.972        2.742        1.009      186.139       52.084        0.078      337.716        9.875      857.556
11/19/2013  21:28:00     -126.567      -94.652        0.719       61.940       53.109       39.197     3836.620     2820.605     1536.423        1.658        0.410      158.045       39.143        0.061      337.705        9.859      857.568
11/19/2013  21:29:00     -115.970      -98.232        1.661       65.775       50.511       37.141     4326.304     2551.392     1379.469        1.568        0.413      151.982       35.544        0.055      337.691        9.836      857.554
11/19/2013  21:30:00     -197.209      -88.846      -10.816       87.592       74.557       40.648     7672.315     5558.817     1652.270        3.089        0.744      216.298       39.234        0.033      337.742        9.919      857.526
11/19/2013  21:31:00     -109.563     -100.038      -12.017       67.263       33.192       27.867     4524.340     1101.708      776.596        1.428        0.320      148.364       20.637        0.019      337.747        9.929      857.497
11/19/2013  21:32:00      -58.349      -57.124        3.601       47.049       30.742       21.067     2213.566      945.059      443.817        0.514        0.180       81.656       22.118        0.073      337.718        9.882      857.494
11/19/2013  21:33:00     -131.189     -101.050       -1.899       57.387       39.843       27.914     3293.293     1587.495      779.189        1.654        0.283      165.595       25.274        0.023      337.716        9.877      857.483
11/19/2013  21:34:00     -198.625      -83.372        0.257       69.371       60.639       38.585     4812.394     3677.054     1488.787        2.819        0.499      215.413       35.092        0.027      337.756        9.942      857.487
11/19/2013  21:35:00     -207.307     -113.235       -5.977       98.288       67.086       51.346     9660.594     4500.537     2636.403        3.631        0.840      236.217       52.265        0.049      337.792       10.001      857.502
11/19/2013  21:36:00     -121.951      -83.736       -4.461       74.820       47.971       28.527     5598.076     2301.180      813.781        1.531        0.436      147.932       27.875        0.036      337.813       10.039      857.499
11/19/2013  21:37:00     -130.905     -111.940        4.515       79.330       64.158       42.634     6293.244     4116.301     1817.656        2.095        0.611      172.240       43.775        0.065      337.849       10.098      857.499
11/19/2013  21:38:00     -167.660     -168.431       -3.817       87.133       83.088       57.942     7592.195     6903.539     3357.310        3.717        0.893      237.653       55.899        0.055      337.777        9.978      857.505
11/19/2013  21:39:00     -137.558     -108.939       -0.804       61.662       48.976       36.045     3802.142     2398.675     1299.231        1.914        0.375      175.471       28.121        0.026      337.766        9.962      857.507
11/19/2013  21:40:00      -27.270      -83.323       20.747       58.188       52.267       29.870     3385.899     2731.805      892.220        0.756        0.350       87.672       33.731        0.148      337.783        9.990      857.496
11/19/2013  21:41:00      -65.035     -106.998        6.113       65.593       74.091       39.561     4302.408     5489.435     1565.044        1.353        0.568      125.213       42.223        0.114      337.759        9.949      857.493
11/19/2013  21:42:00      -86.864      -88.154        6.829       62.310       49.794       26.627     3882.523     2479.409      708.992        1.122        0.354      123.760       25.687        0.043      337.693        9.841      857.498
11/19/2013  21:43:00      -59.446      -57.168        0.641       30.607       36.204       15.359      936.810     1310.750      235.910        0.464        0.124       82.474        9.995        0.015      337.694        9.841      857.494
11/19/2013  21:44:00      -99.189      -37.556       -3.987       43.442       22.781       19.758     1887.232      518.987      390.398        0.703        0.140      106.061       19.693        0.034      337.655        9.775      857.492
11/19/2013  21:45:00      -46.431      -79.952       15.986       51.998       67.118       36.487     2703.843     4504.771     1331.266        0.867        0.427       92.457       38.730        0.175      337.668        9.798      857.488
11/19/2013  21:46:00     -125.769      -11.611       -2.368       88.925       48.507       45.761     7907.586     2352.942     2094.050        1.415        0.618      126.303       47.655        0.142      337.688        9.828      857.503
11/19/2013  21:47:00      -91.567      -12.176       -3.664       40.678       51.370       30.045     1654.698     2638.875      902.698        0.687        0.260       92.373       18.968        0.042      337.678        9.815      857.514
11/19/2013  21:48:00     -104.310      -40.225        2.714       54.073       46.718       31.859     2923.860     2182.549     1015.027        0.931        0.306      111.798       34.481        0.095      337.630        9.732      857.520
11/19/2013  21:49:00      -89.779      -44.618       -0.288       59.030       29.558       22.858     3484.581      873.697      522.471        0.746        0.244      100.255       22.685        0.051      337.664        9.791      857.526
11/19/2013  21:50:00      -75.298      -59.637        4.122       60.301       56.726       34.584     3636.245     3217.820     1196.068        0.865        0.403       96.054       35.583        0.137      337.713        9.872      857.543
11/19/2013  21:51:00     -180.137     -128.179       -9.108       63.776       55.093       34.293     4067.413     3035.236     1176.015        2.862        0.414      221.087       24.089        0.012      337.787        9.994      857.560
11/19/2013  21:52:00     -158.457      -95.414       -1.555       62.660       55.264       26.324     3926.278     3054.089      692.958        2.094        0.384      184.966       23.259        0.016      337.813       10.038      857.556
11/19/2013  21:53:00      -83.106      -66.102        8.987       57.603       41.692       25.627     3318.134     1738.217      656.751        0.853        0.286      106.189       23.113        0.047      337.802       10.023      857.560
11/19/2013  21:54:00      -81.232     -107.119      -13.347       76.761       65.847       28.816     5892.207     4335.892      830.384        1.465        0.553      134.436       37.692        0.079      337.821       10.053      857.562
11/19/2013  21:55:00      -76.171      -34.261       11.365       47.395       41.050       24.285     2246.262     1685.106      589.745        0.581        0.226       83.521       19.754        0.056      337.740        9.917      857.568
11/19/2013  21:56:00      -38.444        1.888        7.243       31.518       34.155       23.621      993.398     1166.574      557.963        0.213        0.136       38.491       27.492        0.510      337.749        9.933      857.560
11/19/2013  21:57:00        5.232       66.973       14.862       19.290       20.240       18.165      372.095      409.642      329.969        0.292        0.056       67.177       13.933        0.043      337.734        9.909      857.547
11/19/2013  21:58:00      -11.568       45.568       71.220       19.980       32.099       16.300      399.201     1030.375      265.686        0.449        0.085       47.013       15.778        0.113      337.673        9.806      857.539
11/19/2013  21:59:00      -24.354       11.525      -14.546       29.281       54.669       27.473      857.405     2988.730      754.788        0.277        0.230       26.944       11.069        0.169      337.637        9.746      857.551
11/19/2013  22:00:00       73.885       32.571       44.094       41.893       57.874       30.770     1755.064     3349.346      946.795        0.726        0.303       80.746       38.397        0.226      337.580        9.651      857.556
11/19/2013  22:01:00      111.654       73.413        4.564       50.294       43.693       30.825     2529.485     1909.090      950.162        1.163        0.269      133.627       16.369        0.015      337.409        9.363      857.542
11/19/2013  22:02:00      163.122       72.035       -0.728       40.676       43.979       36.165     1654.525     1934.132     1307.921        1.835        0.245      178.319       10.555        0.004      337.435        9.406      857.532
11/19/2013  22:03:00       77.794       53.854       41.212       58.999       46.334       35.703     3480.833     2146.794     1274.728        0.878        0.345       94.616       36.229        0.147      337.423        9.387      857.541
11/19/2013  22:04:00       98.127       90.451       76.700       46.275       44.531       39.260     2141.352     1983.022     1541.310        1.468        0.283      133.455       23.868        0.032      337.389        9.329      857.552
11/19/2013  22:05:00      100.838       20.910       47.033       53.296       47.078       39.654     2840.428     2216.375     1572.477        0.972        0.331      102.983       31.954        0.096      337.329        9.229      857.569
11/19/2013  22:06:00       47.381       39.799       49.298       44.877       31.490       29.811     2013.985      991.625      888.683        0.508        0.195       61.879       22.158        0.128      337.338        9.244      857.594
11/19/2013  22:07:00       15.068       15.737       46.829       26.847       31.598       27.739      720.743      998.461      769.472        0.258        0.124       21.788       23.372        1.151      337.367        9.294      857.598
11/19/2013  22:08:00       58.219       21.779       48.967       56.064       60.295       38.571     3143.117     3635.517     1487.748        0.726        0.413       62.159       36.553        0.346      337.360        9.282      857.587
11/19/2013  22:09:00       82.218        7.257       35.257       44.856       43.389       32.547     2012.073     1882.589     1059.279        0.650        0.248       82.538       21.103        0.065      337.305        9.190      857.571
11/19/2013  22:10:00       61.327       46.379       65.503       54.784       43.183       34.056     3001.290     1864.735     1159.791        0.811        0.301       76.890       22.485        0.086      337.332        9.234      857.554
11/19/2013  22:11:00      130.984       62.913       47.875       64.200       41.297       47.892     4121.638     1705.405     2293.639        1.576        0.406      145.309       41.099        0.080      337.264        9.120      857.549
11/19/2013  22:12:00       90.182       68.370       42.015       67.107       43.211       37.233     4503.342     1867.217     1386.264        1.116        0.388      113.169       35.666        0.099      337.218        9.044      857.553
11/19/2013  22:13:00       77.623       17.767       29.446       42.336       36.114       31.628     1792.370     1304.198     1000.349        0.565        0.205       79.630       23.955        0.090      337.218        9.045      857.567
11/19/2013  22:14:00       97.881        3.595       40.010       62.436       40.082       26.462     3898.268     1606.537      700.233        0.870        0.310       97.947       19.383        0.039      337.312        9.201      857.584
11/19/2013  22:15:00       34.209       40.350       51.271       29.982       28.476       21.269      898.917      810.864      452.389        0.379        0.108       52.899       14.863        0.079      337.322        9.219      857.607
11/19/2013  22:16:00       31.914       37.561       42.856       26.508       31.489       20.293      702.692      991.579      411.786        0.319        0.105       49.289       10.791        0.048      337.339        9.246      857.603
11/19/2013  22:17:00       51.696       27.004       41.869       18.119       36.882       23.140      328.315     1360.269      535.476        0.369        0.111       58.324       21.363        0.134      337.328        9.228      857.590
11/19/2013  22:18:00       87.724       47.247       29.993       35.957       23.728       32.943     1292.930      563.021     1085.255        0.688        0.147       99.639       22.211        0.050      337.303        9.185      857.562
11/19/2013  22:19:00       90.272       32.113        4.545       28.410       23.800       20.685      807.145      566.423      427.857        0.550        0.090       95.814        9.800        0.010      337.243        9.084      857.545
11/19/2013  22:20:00      107.203       35.790       11.268       35.411       23.830       26.497     1253.925      567.867      702.084        0.771        0.126      113.019       18.118        0.026      337.214        9.037      857.547
11/19/2013  22:21:00      105.130       54.863       19.666       40.939       30.161       32.389     1675.976      909.672     1049.044        0.904        0.182      118.584       21.229        0.032      337.203        9.018      857.547
11/19/2013  22:22:00       75.980       62.064       27.247       44.310       28.093       27.169     1963.394      789.220      738.165        0.693        0.175       98.107       23.567        0.058      337.194        9.004      857.550
11/19/2013  22:23:00       62.385       61.096       32.759       36.519       25.330       27.830     1333.639      641.628      774.483        0.572        0.137       87.320       20.891        0.057      337.211        9.032      857.554
11/19/2013  22:24:00      106.889       47.895        9.830       22.575       19.754       20.208      509.643      390.226      408.360        0.756        0.065      117.129       13.035        0.012      337.107        8.858      857.546
11/19/2013  22:25:00       86.908       46.591       21.927       29.881       28.223       26.806      892.847      796.512      718.566        0.631        0.120       98.609       19.398        0.039      337.114        8.869      857.530
11/19/2013  22:26:00       59.092       29.611       33.875       30.604       20.953       22.605      936.610      439.048      510.999        0.370        0.094       66.096       10.852        0.027      337.098        8.840      857.502
11/19/2013  22:27:00       87.624       49.276       20.147       32.716       23.596       22.065     1070.325      556.765      486.868        0.631        0.106      100.529       14.871        0.022      337.084        8.818      857.480
11/19/2013  22:28:00       79.571       19.029       33.969       46.888       42.356       31.662     2198.524     1794.050     1002.496        0.642        0.250       81.814       24.988        0.093      337.063        8.782      857.482
11/19/2013  22:29:00       36.144       23.833       11.839       30.062       32.439       24.490      903.729     1052.313      599.756        0.228        0.128       43.295       17.633        0.166      337.064        8.785      857.494
11/19/2013  22:30:00       48.460       28.436       28.675       27.793       25.504       18.485      772.467      650.449      341.706        0.287        0.088       56.187       12.758        0.052      337.026        8.719      857.509
11/19/2013  22:31:00       82.329       50.196       15.491       32.573       22.311       20.380     1061.001      497.776      415.356        0.576        0.099       96.424       13.348        0.019      337.022        8.712      857.521
11/19/2013  22:32:00       85.027       59.516       18.317       24.605       18.701       21.747      605.393      349.710      472.923        0.627        0.071      103.787       12.213        0.014      337.021        8.710      857.518
11/19/2013  22:33:00       80.826       43.563        5.276       29.104       25.854       22.588      847.032      668.430      510.229        0.524        0.101       91.819       11.942        0.017      337.024        8.716      857.517
11/19/2013  22:34:00       59.120       25.290        1.677       42.646       37.640       22.792     1818.673     1416.744      519.484        0.395        0.188       64.303       22.347        0.121      337.017        8.706      857.518
11/19/2013  22:35:00       64.870       36.619       -0.668       18.372       24.038       15.592      337.541      577.833      243.113        0.335        0.058       74.493        7.939        0.011      337.002        8.682      857.534
11/19/2013  22:36:00       41.271       31.507        1.543       17.241       14.222       17.772      297.263      202.258      315.837        0.176        0.041       51.923        5.894        0.013      337.010        8.693      857.554
11/19/2013  22:37:00       36.872       27.189       17.050       17.461       23.882       14.058      304.890      570.345      197.621        0.173        0.054       45.812        4.966        0.012      337.023        8.715      857.577
11/19/2013  22:38:00       58.868       36.465       13.983       16.596       11.501       15.575      275.441      132.275      242.579        0.282        0.033       69.247       12.363        0.032      337.007        8.689      857.584
11/19/2013  22:39:00       68.348       42.624       10.244       15.180       14.964       18.520      230.422      223.907      342.979        0.370        0.040       80.550        8.250        0.010      337.041        8.746      857.579
11/19/2013  22:40:00       89.876       62.374       11.245       26.328       22.001       25.171      693.145      484.024      633.594        0.695        0.091      109.400       16.222        0.022      337.040        8.744      857.562
11/19/2013  22:41:00       92.500       63.330       23.631       25.103       24.958       26.139      630.146      622.885      683.226        0.753        0.097      112.102       18.035        0.026      337.037        8.740      857.545
11/19/2013  22:42:00       82.644       57.266       16.214       30.497       21.711       26.202      930.069      471.349      686.526        0.623        0.104      100.546       15.728        0.024      337.041        8.746      857.532
11/19/2013  22:43:00       99.205       60.108       19.472       23.075       18.075       16.595      532.462      326.697      275.384        0.748        0.057      115.994       16.384        0.020      337.032        8.730      857.533
11/19/2013  22:44:00       62.360       45.928       16.717       15.592       11.210       20.833      243.126      125.658      434.015        0.354        0.040       77.448       12.877        0.028      337.053        8.766      857.534
11/19/2013  22:45:00       94.298       66.948       18.421       33.142       13.098       17.122     1098.387      171.553      293.164        0.764        0.078      115.647       13.709        0.014      337.056        8.770      857.525
11/19/2013  22:46:00      118.841       73.246        5.014       33.423       28.785       26.715     1117.116      828.560      713.691        1.109        0.133      139.600       20.940        0.022      337.071        8.798      857.521
11/19/2013  22:47:00      102.762       56.211       -0.751       48.670       27.685       20.933     2368.756      766.435      438.199        0.865        0.179      117.132       23.744        0.041      337.076        8.806      857.520
11/19/2013  22:48:00       78.603       45.891        5.318       24.635       24.485       20.968      606.900      599.515      439.666        0.498        0.082       91.019        5.805        0.004      337.061        8.781      857.535
11/19/2013  22:49:00       49.366       36.460       12.186       22.143       22.140       13.619      490.311      490.181      185.469        0.254        0.058       61.370       11.157        0.033      337.057        8.774      857.546
11/19/2013  22:50:00       84.713       50.013       14.272       19.254       19.623       17.912      370.715      385.074      320.847        0.548        0.054       98.375        8.952        0.008      337.060        8.779      857.534
11/19/2013  22:51:00      119.750       66.476       17.367       44.225       28.375       32.273     1955.811      805.126     1041.521        1.143        0.190      136.964       18.949        0.019      337.084        8.818      857.519
11/19/2013  22:52:00      101.464       50.326        4.752       33.038       34.282       23.892     1091.540     1175.257      570.850        0.784        0.142      113.259        2.855        0.001      337.061        8.781      857.495
11/19/2013  22:53:00       63.833       22.514        9.289       36.381       31.841       24.664     1323.585     1013.837      608.338        0.381        0.147       67.687       19.257        0.081      337.063        8.782      857.487
11/19/2013  22:54:00       51.951       46.696        8.746       39.265       23.984       19.880     1541.731      575.246      395.205        0.373        0.126       69.853       19.856        0.081      337.027        8.720      857.488
11/19/2013  22:55:00       63.893       57.860        6.477       21.670       14.799       15.431      469.588      219.025      238.117        0.420        0.046       86.198        9.653        0.013      337.028        8.723      857.488
11/19/2013  22:56:00       54.724       43.678       -3.281       19.217       18.105       13.550      369.307      327.775      183.597        0.290        0.044       70.017        9.937        0.020      337.021        8.708      857.489
11/19/2013  22:57:00       69.175       33.624       12.224       16.793       15.420       17.947      282.013      237.765      322.099        0.345        0.042       76.914       11.644        0.023      337.031        8.727      857.487
11/19/2013  22:58:00       61.991       39.061       11.782       14.500       15.127       10.213      210.258      228.838      104.304        0.303        0.027       73.271        7.652        0.011      337.029        8.723      857.490
11/19/2013  22:59:00       62.098       44.990        1.136       10.238       15.299        8.638      104.822      234.063       74.612        0.315        0.021       76.683        5.438        0.005      337.027        8.720      857.504
11/19/2013  23:00:00       18.506       23.243        5.144       17.172       19.330       12.649      294.887      373.642      159.989        0.087        0.041       29.711       11.971        0.162      337.052        8.762      857.521
11/19/2013  23:01:00        7.619      -10.258       10.961       15.870       17.786       11.301      251.858      316.343      127.701        0.049        0.035       12.778        8.403        0.432      337.078        8.809      857.539
11/19/2013  23:02:00       21.194        0.875        3.554       18.696        8.116        9.473      349.530       65.876       89.735        0.048        0.025       21.212        7.547        0.127      337.073        8.801      857.543
11/19/2013  23:03:00       18.288       17.017       20.687       14.276       10.238       10.256      203.815      104.820      105.191        0.073        0.021       24.980        8.258        0.109      337.064        8.784      857.551
11/19/2013  23:04:00       62.481       35.189       13.883       19.619       10.829       14.931      384.922      117.277      222.937        0.303        0.036       71.709       10.824        0.023      337.088        8.826      857.552
11/19/2013  23:05:00       61.919       32.179       13.547       21.390       26.543       20.552      457.516      704.522      422.392        0.332        0.079       69.781       11.966        0.029      337.097        8.841      857.554
11/19/2013  23:06:00       49.649       35.557       14.908       16.605       13.232       18.332      275.742      175.089      336.048        0.237        0.039       61.068       11.063        0.033      337.100        8.844      857.562
11/19/2013  23:07:00       23.649       26.016       23.438       20.047       24.991       14.151      401.882      624.538      200.241        0.151        0.061       35.159        6.529        0.034      337.094        8.835      857.561
11/19/2013  23:08:00       49.265       42.249       22.664       21.600       16.824       19.670      466.566      283.041      386.894        0.293        0.057       64.900       16.451        0.064      337.121        8.880      857.557
11/19/2013  23:09:00       46.885       42.065       32.965       15.948        9.328       17.143      254.331       87.014      293.892        0.284        0.032       62.990       11.715        0.035      337.089        8.827      857.550
11/19/2013  23:10:00       33.142       45.634       41.107       25.908       17.285       11.228      671.241      298.766      126.073        0.298        0.055       56.399        8.392        0.022      337.103        8.851      857.528
11/19/2013  23:11:00       53.052       48.054       27.020       17.964       25.798       20.443      322.690      665.542      417.931        0.363        0.070       71.580        7.118        0.010      337.147        8.925      857.506
11/19/2013  23:12:00       65.888       51.874        7.230       18.740       11.713       15.455      351.196      137.191      238.843        0.391        0.036       83.858        1.983        0.001      337.083        8.817      857.492
11/19/2013  23:13:00       62.093       26.660       15.234       23.174       18.863       21.223      537.027      355.824      450.410        0.307        0.067       67.575       10.589        0.025      337.100        8.846      857.489
11/19/2013  23:14:00       27.072       16.655       14.606       25.907       13.986       14.511      671.152      195.604      210.556        0.115        0.054       31.785       14.403        0.205      337.120        8.880      857.506
11/19/2013  23:15:00        8.042        4.117       15.506       10.447        7.395        8.101      109.136       54.682       65.621        0.028        0.011        9.035        4.736        0.275      337.124        8.884      857.534
11/19/2013  23:16:00        1.468       16.688       20.786        5.961       12.316        6.353       35.535      151.693       40.357        0.047        0.011       16.752        7.349        0.192      337.090        8.827      857.560
11/19/2013  23:17:00       22.802       10.989        4.404       13.107        7.372       14.426      171.783       54.347      208.114        0.055        0.022       25.312        8.194        0.105      337.097        8.841      857.573
11/19/2013  23:18:00        8.453        1.429        7.795       15.693        5.821        6.168      246.266       33.889       38.045        0.023        0.016        8.573        5.564        0.421      337.132        8.897      857.574
11/19/2013  23:19:00       27.019        7.155        0.244       10.022        8.430       11.202      100.448       71.066      125.486        0.054        0.015       27.950        6.929        0.061      337.132        8.900      857.570
11/19/2013  23:20:00       26.972       19.257        3.186        9.663        7.894        5.535       93.370       62.321       30.634        0.065        0.009       33.141        4.010        0.015      337.099        8.846      857.563
11/19/2013  23:21:00       36.933       12.516        4.945        9.392        9.559        6.250       88.204       91.382       39.059        0.088        0.011       38.997        4.449        0.013      337.109        8.861      857.558
11/19/2013  23:22:00       36.932       20.797       10.295       10.383        8.428       10.855      107.808       71.031      117.835        0.110        0.015       42.384        4.851        0.013      337.100        8.844      857.554
11/19/2013  23:23:00       36.428       30.944       23.699       20.027       13.248       14.756      401.093      175.503      217.729        0.182        0.040       47.797       10.971        0.053      337.115        8.869      857.548
11/19/2013  23:24:00       48.979       32.092       16.368       15.758       16.853       18.583      248.320      284.016      345.340        0.229        0.044       58.556       16.164        0.076      337.109        8.860      857.549
11/19/2013  23:25:00       47.583       34.714       16.342       12.166       14.148       18.350      148.008      200.157      336.733        0.221        0.034       58.900       11.695        0.039      337.112        8.864      857.546
11/19/2013  23:26:00       39.690       20.526       10.219       12.396       11.534       10.247      153.657      133.030      105.008        0.125        0.020       44.683        4.309        0.009      337.143        8.917      857.542
11/19/2013  23:27:00       40.455       33.202       12.604       17.571       17.944       16.204      308.730      322.004      262.579        0.190        0.045       52.336       11.746        0.050      337.143        8.919      857.539
11/19/2013  23:28:00       44.585       27.204       16.119       18.291       20.633       19.233      334.558      425.721      369.919        0.206        0.057       52.229       16.081        0.095      337.114        8.868      857.535
11/19/2013  23:29:00       35.894       26.277       28.346       21.289       15.341       15.615      453.237      235.335      243.826        0.186        0.047       44.484       10.579        0.057      337.127        8.892      857.535
11/19/2013  23:30:00       42.394       16.663       13.912       20.072       16.233       16.611      402.872      263.501      275.920        0.161        0.047       45.551       12.801        0.079      337.128        8.891      857.533
11/19/2013  23:31:00       48.667       27.367       30.875       21.908       15.013       17.931      479.949      225.396      321.516        0.255        0.051       55.834        7.991        0.020      337.109        8.860      857.528
11/19/2013  23:32:00       35.663       24.965       30.409       21.889       26.142       17.891      479.145      683.388      320.071        0.215        0.074       43.533       18.323        0.177      337.103        8.852      857.518
11/19/2013  23:33:00       28.347       29.742       24.235       15.208       14.960       17.559      231.289      223.796      308.316        0.152        0.038       41.087        9.929        0.058      337.072        8.797      857.528
11/19/2013  23:34:00       35.647       16.672       11.316       21.161       20.104       24.962      447.786      404.163      623.080        0.158        0.074       39.353       17.678        0.202      337.054        8.767      857.540
11/19/2013  23:35:00        4.304       15.109        9.188        7.585       11.056        7.070       57.530      122.245       49.987        0.028        0.011       15.710        4.538        0.083      337.076        8.803      857.547
11/19/2013  23:36:00       31.819       33.455       29.026       16.780       14.946       16.304      281.555      223.391      265.818        0.187        0.039       46.171       11.587        0.063      337.068        8.792      857.555
11/19/2013  23:37:00       59.902       42.999       24.730       19.028       13.059       20.736      362.083      170.529      429.994        0.351        0.048       73.737        8.936        0.015      337.013        8.700      857.561
11/19/2013  23:38:00       73.510       48.286       18.253       16.288       24.177       20.819      265.309      584.542      433.411        0.468        0.064       87.950        9.366        0.011      336.960        8.610      857.567
11/19/2013  23:39:00       55.705       30.971       -0.912       10.934       14.786        8.733      119.553      218.631       76.271        0.224        0.021       63.736        6.171        0.009      336.946        8.586      857.576
11/19/2013  23:40:00       44.466       26.616       11.446       14.100       10.914       12.249      198.800      119.111      150.026        0.164        0.023       51.823        6.247        0.015      336.938        8.573      857.578
11/19/2013  23:41:00       56.536       23.714        8.641       13.815       13.266       13.942      190.864      175.979      194.378        0.220        0.028       61.308        6.392        0.011      336.967        8.621      857.575
11/19/2013  23:42:00       63.292       39.622       12.894       12.762        9.337       10.900      162.869       87.177      118.802        0.306        0.018       74.671        6.074        0.007      336.959        8.609      857.566
11/19/2013  23:43:00       52.830       31.181       24.406       15.065       11.808       15.203      226.951      139.441      231.116        0.248        0.030       61.346        9.268        0.023      336.990        8.662      857.547
11/19/2013  23:44:00       48.185       34.810       40.185       25.812       22.563       23.587      666.270      509.091      556.343        0.344        0.087       59.443       16.762        0.080      337.026        8.721      857.528
11/19/2013  23:45:00       56.153       31.703       24.246       23.686       17.352       23.230      561.032      301.080      539.653        0.307        0.070       64.484       18.671        0.084      337.035        8.735      857.512
11/19/2013  23:46:00       70.918       43.272       24.317       15.931       18.277       20.700      253.807      334.053      428.477        0.425        0.051       83.077       14.984        0.033      336.993        8.667      857.510
11/19/2013  23:47:00       69.617       43.655       28.867       23.268       14.892       21.787      541.388      221.761      474.691        0.441        0.062       82.173       12.204        0.022      337.013        8.699      857.504
11/19/2013  23:48:00       88.097       47.771       17.675       28.278       20.104       19.697      799.644      404.169      387.956        0.597        0.080      100.216       12.233        0.015      337.007        8.690      857.490
11/19/2013  23:49:00       62.928       38.029       25.018       25.317       23.016       21.785      640.964      529.732      474.565        0.384        0.082       73.527       18.017        0.060      337.028        8.724      857.484
11/19/2013  23:50:00       31.078       30.835       38.238       24.515       25.943       19.202      601.001      673.041      368.717        0.251        0.082       43.779       16.123        0.136      337.034        8.734      857.475
11/19/2013  23:51:00       44.409       53.210       49.580       24.916       25.334       23.441      620.794      641.792      549.464        0.454        0.091       69.307       15.581        0.051      337.025        8.719      857.469
11/19/2013  23:52:00       37.207       34.915       46.961       30.029       28.883       18.641      901.755      834.209      347.480        0.345        0.104       51.024       13.722        0.072      337.064        8.785      857.466
11/19/2013  23:53:00       -8.068       39.446       61.240       10.205       27.843       15.983      104.134      775.227      255.457        0.325        0.057       40.263       16.271        0.163      337.066        8.789      857.471
11/19/2013  23:54:00        5.216       39.530       59.507       20.671       29.221       17.571      427.301      853.875      308.757        0.336        0.079       39.873       17.450        0.192      337.048        8.759      857.476
11/19/2013  23:55:00        3.909       43.318       50.066       20.711       40.691       31.095      428.954     1655.746      966.889        0.372        0.153       43.494       28.547        0.431      337.034        8.733      857.477
11/19/2013  23:56:00       20.383       41.760       65.409       29.355       34.500       19.100      861.706     1190.281      364.826        0.443        0.121       46.469       21.372        0.212      337.018        8.709      857.472
11/19/2013  23:57:00       68.140       55.514       44.431       26.882       27.755       28.922      722.657      770.339      836.505        0.601        0.116       87.891       19.879        0.051      337.001        8.680      857.460
11/19/2013  23:58:00       20.939       26.727       40.831       27.946       29.624       21.696      780.996      877.570      470.707        0.247        0.106       33.952       18.082        0.284      337.029        8.726      857.458
11/19/2013  23:59:00       56.701       26.761       22.927       39.548       26.358       31.089     1564.007      694.743      966.545        0.384        0.161       62.699       23.936        0.146      337.035        8.735      857.453
